<?xml version="1.0" encoding="UTF-8" standalone="no" ?>
<gpx xmlns="http://www.topografix.com/GPX/1/1" xmlns:xsi="http://www.w3.org/2001/XMLSchema-instance" xsi:schemaLocation="http://www.topografix.com/GPX/1/1 http://www.topografix.com/GPX/1/1/gpx.xsd" version="1.1" creator="VisuGPX - https://www.visugpx.com">
  <metadata>
    <name>20201018 à 08:20 Mounier en circuit par le Col des Moulines</name>
    <desc><![CDATA[Randonnée sportive au Mounier par un itinéraire original en circuit, magnifique avec les couleurs d automne et la présence d un peu de neige... Dernière pente sous le sommet bien raide et un peu croûlante ! ]]></desc>
  </metadata>
  <trk>
    <name><![CDATA[20201018 à 08:20 Mounier en circuit par le Col des Moulines]]></name>
    <trkseg>
      <trkpt lat="44.10466" lon="6.98681">
        <ele>1404.6813533333</ele>
        <time>2020-10-18T06:20:30Z</time>
      </trkpt>
      <trkpt lat="44.10469" lon="6.9868">
        <ele>1393.8812333333</ele>
        <time>2020-10-18T06:20:37Z</time>
      </trkpt>
      <trkpt lat="44.10473" lon="6.9869">
        <ele>1409.7810933333</ele>
        <time>2020-10-18T06:20:53Z</time>
      </trkpt>
      <trkpt lat="44.10479" lon="6.98681">
        <ele>1406.4808466667</ele>
        <time>2020-10-18T06:21:14Z</time>
      </trkpt>
      <trkpt lat="44.10487" lon="6.98678">
        <ele>1409.88054</ele>
        <time>2020-10-18T06:21:21Z</time>
      </trkpt>
      <trkpt lat="44.10495" lon="6.9868">
        <ele>1410.1802066667</ele>
        <time>2020-10-18T06:21:28Z</time>
      </trkpt>
      <trkpt lat="44.10502" lon="6.98686">
        <ele>1407.67992</ele>
        <time>2020-10-18T06:21:37Z</time>
      </trkpt>
      <trkpt lat="44.10511" lon="6.98688">
        <ele>1405.0795733333</ele>
        <time>2020-10-18T06:21:44Z</time>
      </trkpt>
      <trkpt lat="44.10519" lon="6.98693">
        <ele>1403.67926</ele>
        <time>2020-10-18T06:21:51Z</time>
      </trkpt>
      <trkpt lat="44.10525" lon="6.98699">
        <ele>1405.679</ele>
        <time>2020-10-18T06:21:57Z</time>
      </trkpt>
      <trkpt lat="44.10534" lon="6.987">
        <ele>1404.9786533333</ele>
        <time>2020-10-18T06:22:02Z</time>
      </trkpt>
      <trkpt lat="44.10543" lon="6.98702">
        <ele>1404.6783</ele>
        <time>2020-10-18T06:22:09Z</time>
      </trkpt>
      <trkpt lat="44.1055" lon="6.98704">
        <ele>1404.5779933333</ele>
        <time>2020-10-18T06:22:15Z</time>
      </trkpt>
      <trkpt lat="44.10558" lon="6.98705">
        <ele>1403.67768</ele>
        <time>2020-10-18T06:22:21Z</time>
      </trkpt>
      <trkpt lat="44.10566" lon="6.98707">
        <ele>1403.87736</ele>
        <time>2020-10-18T06:22:27Z</time>
      </trkpt>
      <trkpt lat="44.10574" lon="6.98709">
        <ele>1404.37704</ele>
        <time>2020-10-18T06:22:34Z</time>
      </trkpt>
      <trkpt lat="44.10583" lon="6.98711">
        <ele>1404.7767</ele>
        <time>2020-10-18T06:22:42Z</time>
      </trkpt>
      <trkpt lat="44.10591" lon="6.98709">
        <ele>1405.1763666667</ele>
        <time>2020-10-18T06:22:49Z</time>
      </trkpt>
      <trkpt lat="44.10599" lon="6.98712">
        <ele>1404.5760333333</ele>
        <time>2020-10-18T06:22:56Z</time>
      </trkpt>
      <trkpt lat="44.10606" lon="6.98717">
        <ele>1404.4757466667</ele>
        <time>2020-10-18T06:23:01Z</time>
      </trkpt>
      <trkpt lat="44.10614" lon="6.9872">
        <ele>1405.6754333333</ele>
        <time>2020-10-18T06:23:07Z</time>
      </trkpt>
      <trkpt lat="44.10622" lon="6.98722">
        <ele>1408.37512</ele>
        <time>2020-10-18T06:23:14Z</time>
      </trkpt>
      <trkpt lat="44.1063" lon="6.98722">
        <ele>1411.8747933333</ele>
        <time>2020-10-18T06:23:21Z</time>
      </trkpt>
      <trkpt lat="44.10639" lon="6.98724">
        <ele>1412.77444</ele>
        <time>2020-10-18T06:23:30Z</time>
      </trkpt>
      <trkpt lat="44.10647" lon="6.9872">
        <ele>1412.57412</ele>
        <time>2020-10-18T06:23:36Z</time>
      </trkpt>
      <trkpt lat="44.10655" lon="6.98717">
        <ele>1413.3737933333</ele>
        <time>2020-10-18T06:23:43Z</time>
      </trkpt>
      <trkpt lat="44.10663" lon="6.98717">
        <ele>1413.6734666667</ele>
        <time>2020-10-18T06:23:53Z</time>
      </trkpt>
      <trkpt lat="44.10671" lon="6.9872">
        <ele>1411.97316</ele>
        <time>2020-10-18T06:24:00Z</time>
      </trkpt>
      <trkpt lat="44.1068" lon="6.98719">
        <ele>1411.3728133333</ele>
        <time>2020-10-18T06:24:23Z</time>
      </trkpt>
      <trkpt lat="44.10687" lon="6.98724">
        <ele>1410.07252</ele>
        <time>2020-10-18T06:24:37Z</time>
      </trkpt>
      <trkpt lat="44.10695" lon="6.98729">
        <ele>1408.2721933333</ele>
        <time>2020-10-18T06:24:44Z</time>
      </trkpt>
      <trkpt lat="44.10704" lon="6.98732">
        <ele>1407.2718533333</ele>
        <time>2020-10-18T06:24:54Z</time>
      </trkpt>
      <trkpt lat="44.10713" lon="6.98734">
        <ele>1406.6715</ele>
        <time>2020-10-18T06:25:01Z</time>
      </trkpt>
      <trkpt lat="44.10721" lon="6.98736">
        <ele>1406.37118</ele>
        <time>2020-10-18T06:25:07Z</time>
      </trkpt>
      <trkpt lat="44.10728" lon="6.98738">
        <ele>1405.5708733333</ele>
        <time>2020-10-18T06:25:13Z</time>
      </trkpt>
      <trkpt lat="44.10736" lon="6.98741">
        <ele>1406.2705466667</ele>
        <time>2020-10-18T06:25:18Z</time>
      </trkpt>
      <trkpt lat="44.10745" lon="6.98743">
        <ele>1407.7702066667</ele>
        <time>2020-10-18T06:25:23Z</time>
      </trkpt>
      <trkpt lat="44.10754" lon="6.98746">
        <ele>1410.26986</ele>
        <time>2020-10-18T06:25:29Z</time>
      </trkpt>
      <trkpt lat="44.10762" lon="6.98743">
        <ele>1412.16952</ele>
        <time>2020-10-18T06:25:34Z</time>
      </trkpt>
      <trkpt lat="44.10771" lon="6.98744">
        <ele>1412.16918</ele>
        <time>2020-10-18T06:25:40Z</time>
      </trkpt>
      <trkpt lat="44.10779" lon="6.98746">
        <ele>1412.56884</ele>
        <time>2020-10-18T06:25:45Z</time>
      </trkpt>
      <trkpt lat="44.10787" lon="6.9875">
        <ele>1413.4685066667</ele>
        <time>2020-10-18T06:25:51Z</time>
      </trkpt>
      <trkpt lat="44.10795" lon="6.98755">
        <ele>1413.1682133333</ele>
        <time>2020-10-18T06:25:56Z</time>
      </trkpt>
      <trkpt lat="44.10803" lon="6.98758">
        <ele>1412.6678933333</ele>
        <time>2020-10-18T06:26:02Z</time>
      </trkpt>
      <trkpt lat="44.10811" lon="6.98759">
        <ele>1413.9675666667</ele>
        <time>2020-10-18T06:26:08Z</time>
      </trkpt>
      <trkpt lat="44.10818" lon="6.98765">
        <ele>1413.16728</ele>
        <time>2020-10-18T06:26:15Z</time>
      </trkpt>
      <trkpt lat="44.10825" lon="6.98771">
        <ele>1413.2670066667</ele>
        <time>2020-10-18T06:26:21Z</time>
      </trkpt>
      <trkpt lat="44.10831" lon="6.98779">
        <ele>1412.5667466667</ele>
        <time>2020-10-18T06:26:27Z</time>
      </trkpt>
      <trkpt lat="44.10839" lon="6.9878">
        <ele>1413.1664333333</ele>
        <time>2020-10-18T06:26:32Z</time>
      </trkpt>
      <trkpt lat="44.10847" lon="6.98785">
        <ele>1415.6661066667</ele>
        <time>2020-10-18T06:26:39Z</time>
      </trkpt>
      <trkpt lat="44.10855" lon="6.98791">
        <ele>1416.9658133333</ele>
        <time>2020-10-18T06:26:46Z</time>
      </trkpt>
      <trkpt lat="44.10863" lon="6.98792">
        <ele>1416.7654933333</ele>
        <time>2020-10-18T06:26:54Z</time>
      </trkpt>
      <trkpt lat="44.10871" lon="6.98795">
        <ele>1417.2651466667</ele>
        <time>2020-10-18T06:27:02Z</time>
      </trkpt>
      <trkpt lat="44.1088" lon="6.98797">
        <ele>1418.5647933333</ele>
        <time>2020-10-18T06:27:10Z</time>
      </trkpt>
      <trkpt lat="44.10888" lon="6.98797">
        <ele>1420.4644666667</ele>
        <time>2020-10-18T06:27:17Z</time>
      </trkpt>
      <trkpt lat="44.10895" lon="6.98803">
        <ele>1422.1641866667</ele>
        <time>2020-10-18T06:27:24Z</time>
      </trkpt>
      <trkpt lat="44.10903" lon="6.98805">
        <ele>1422.56388</ele>
        <time>2020-10-18T06:27:31Z</time>
      </trkpt>
      <trkpt lat="44.1091" lon="6.98811">
        <ele>1423.4636</ele>
        <time>2020-10-18T06:27:38Z</time>
      </trkpt>
      <trkpt lat="44.10917" lon="6.98818">
        <ele>1424.7633333333</ele>
        <time>2020-10-18T06:27:45Z</time>
      </trkpt>
      <trkpt lat="44.10925" lon="6.98822">
        <ele>1426.9630133333</ele>
        <time>2020-10-18T06:27:52Z</time>
      </trkpt>
      <trkpt lat="44.10933" lon="6.98823">
        <ele>1428.76268</ele>
        <time>2020-10-18T06:27:59Z</time>
      </trkpt>
      <trkpt lat="44.10941" lon="6.98827">
        <ele>1429.96236</ele>
        <time>2020-10-18T06:28:06Z</time>
      </trkpt>
      <trkpt lat="44.10949" lon="6.98828">
        <ele>1430.2620266667</ele>
        <time>2020-10-18T06:28:13Z</time>
      </trkpt>
      <trkpt lat="44.10957" lon="6.98827">
        <ele>1432.1617066667</ele>
        <time>2020-10-18T06:28:20Z</time>
      </trkpt>
      <trkpt lat="44.10965" lon="6.98825">
        <ele>1433.1614</ele>
        <time>2020-10-18T06:28:27Z</time>
      </trkpt>
      <trkpt lat="44.10974" lon="6.98824">
        <ele>1431.0610533333</ele>
        <time>2020-10-18T06:28:32Z</time>
      </trkpt>
      <trkpt lat="44.10981" lon="6.98827">
        <ele>1430.8607466667</ele>
        <time>2020-10-18T06:28:39Z</time>
      </trkpt>
      <trkpt lat="44.1099" lon="6.98828">
        <ele>1429.6604133333</ele>
        <time>2020-10-18T06:28:44Z</time>
      </trkpt>
      <trkpt lat="44.10998" lon="6.98829">
        <ele>1429.7600733333</ele>
        <time>2020-10-18T06:28:51Z</time>
      </trkpt>
      <trkpt lat="44.11006" lon="6.9883">
        <ele>1430.85976</ele>
        <time>2020-10-18T06:28:59Z</time>
      </trkpt>
      <trkpt lat="44.11014" lon="6.98832">
        <ele>1431.45944</ele>
        <time>2020-10-18T06:29:05Z</time>
      </trkpt>
      <trkpt lat="44.11022" lon="6.98834">
        <ele>1431.7591066667</ele>
        <time>2020-10-18T06:29:12Z</time>
      </trkpt>
      <trkpt lat="44.1103" lon="6.9884">
        <ele>1432.4588</ele>
        <time>2020-10-18T06:29:20Z</time>
      </trkpt>
      <trkpt lat="44.11036" lon="6.98849">
        <ele>1432.85856</ele>
        <time>2020-10-18T06:29:28Z</time>
      </trkpt>
      <trkpt lat="44.11043" lon="6.98856">
        <ele>1431.8582733333</ele>
        <time>2020-10-18T06:29:34Z</time>
      </trkpt>
      <trkpt lat="44.1105" lon="6.98861">
        <ele>1432.158</ele>
        <time>2020-10-18T06:29:41Z</time>
      </trkpt>
      <trkpt lat="44.11058" lon="6.98866">
        <ele>1435.1576666667</ele>
        <time>2020-10-18T06:29:57Z</time>
      </trkpt>
      <trkpt lat="44.11066" lon="6.9887">
        <ele>1436.55738</ele>
        <time>2020-10-18T06:30:03Z</time>
      </trkpt>
      <trkpt lat="44.11073" lon="6.9887">
        <ele>1437.75708</ele>
        <time>2020-10-18T06:30:08Z</time>
      </trkpt>
      <trkpt lat="44.11081" lon="6.98874">
        <ele>1439.2567466667</ele>
        <time>2020-10-18T06:30:17Z</time>
      </trkpt>
      <trkpt lat="44.11089" lon="6.98871">
        <ele>1441.3564266667</ele>
        <time>2020-10-18T06:30:25Z</time>
      </trkpt>
      <trkpt lat="44.11097" lon="6.98869">
        <ele>1443.6561133333</ele>
        <time>2020-10-18T06:30:31Z</time>
      </trkpt>
      <trkpt lat="44.11103" lon="6.9886">
        <ele>1446.55588</ele>
        <time>2020-10-18T06:30:41Z</time>
      </trkpt>
      <trkpt lat="44.11111" lon="6.98863">
        <ele>1445.0555533333</ele>
        <time>2020-10-18T06:30:55Z</time>
      </trkpt>
      <trkpt lat="44.1112" lon="6.98861">
        <ele>1445.1552133333</ele>
        <time>2020-10-18T06:31:04Z</time>
      </trkpt>
      <trkpt lat="44.11128" lon="6.98862">
        <ele>1445.4548733333</ele>
        <time>2020-10-18T06:31:14Z</time>
      </trkpt>
      <trkpt lat="44.11136" lon="6.9886">
        <ele>1446.1545666667</ele>
        <time>2020-10-18T06:31:20Z</time>
      </trkpt>
      <trkpt lat="44.11145" lon="6.9886">
        <ele>1445.1542133333</ele>
        <time>2020-10-18T06:31:29Z</time>
      </trkpt>
      <trkpt lat="44.11152" lon="6.98861">
        <ele>1445.6539133333</ele>
        <time>2020-10-18T06:31:40Z</time>
      </trkpt>
      <trkpt lat="44.1116" lon="6.98858">
        <ele>1445.2535866667</ele>
        <time>2020-10-18T06:31:48Z</time>
      </trkpt>
      <trkpt lat="44.11167" lon="6.98864">
        <ele>1444.35332</ele>
        <time>2020-10-18T06:31:57Z</time>
      </trkpt>
      <trkpt lat="44.11175" lon="6.98867">
        <ele>1445.0530066667</ele>
        <time>2020-10-18T06:32:03Z</time>
      </trkpt>
      <trkpt lat="44.11183" lon="6.98864">
        <ele>1445.6526866667</ele>
        <time>2020-10-18T06:32:12Z</time>
      </trkpt>
      <trkpt lat="44.11191" lon="6.98861">
        <ele>1446.1523733333</ele>
        <time>2020-10-18T06:32:20Z</time>
      </trkpt>
      <trkpt lat="44.11199" lon="6.98856">
        <ele>1446.45206</ele>
        <time>2020-10-18T06:32:29Z</time>
      </trkpt>
      <trkpt lat="44.11206" lon="6.98852">
        <ele>1446.75176</ele>
        <time>2020-10-18T06:32:35Z</time>
      </trkpt>
      <trkpt lat="44.11213" lon="6.98847">
        <ele>1446.9514866667</ele>
        <time>2020-10-18T06:32:40Z</time>
      </trkpt>
      <trkpt lat="44.11222" lon="6.98846">
        <ele>1446.7511333333</ele>
        <time>2020-10-18T06:32:48Z</time>
      </trkpt>
      <trkpt lat="44.1123" lon="6.98846">
        <ele>1447.0508</ele>
        <time>2020-10-18T06:32:55Z</time>
      </trkpt>
      <trkpt lat="44.11238" lon="6.98849">
        <ele>1445.8504933333</ele>
        <time>2020-10-18T06:33:03Z</time>
      </trkpt>
      <trkpt lat="44.11246" lon="6.98852">
        <ele>1445.5501533333</ele>
        <time>2020-10-18T06:33:10Z</time>
      </trkpt>
      <trkpt lat="44.11255" lon="6.98853">
        <ele>1445.9498</ele>
        <time>2020-10-18T06:33:17Z</time>
      </trkpt>
      <trkpt lat="44.11264" lon="6.98853">
        <ele>1446.64946</ele>
        <time>2020-10-18T06:33:24Z</time>
      </trkpt>
      <trkpt lat="44.11272" lon="6.98854">
        <ele>1448.04912</ele>
        <time>2020-10-18T06:33:34Z</time>
      </trkpt>
      <trkpt lat="44.11281" lon="6.98854">
        <ele>1449.7487733333</ele>
        <time>2020-10-18T06:33:41Z</time>
      </trkpt>
      <trkpt lat="44.11289" lon="6.98855">
        <ele>1452.54844</ele>
        <time>2020-10-18T06:33:50Z</time>
      </trkpt>
      <trkpt lat="44.11297" lon="6.9886">
        <ele>1453.1481333333</ele>
        <time>2020-10-18T06:33:57Z</time>
      </trkpt>
      <trkpt lat="44.11304" lon="6.98867">
        <ele>1451.9478533333</ele>
        <time>2020-10-18T06:34:04Z</time>
      </trkpt>
      <trkpt lat="44.11311" lon="6.98875">
        <ele>1451.64758</ele>
        <time>2020-10-18T06:34:12Z</time>
      </trkpt>
      <trkpt lat="44.11309" lon="6.98886">
        <ele>1448.6476266667</ele>
        <time>2020-10-18T06:34:44Z</time>
      </trkpt>
      <trkpt lat="44.11318" lon="6.98888">
        <ele>1447.8473</ele>
        <time>2020-10-18T06:34:52Z</time>
      </trkpt>
      <trkpt lat="44.11326" lon="6.98888">
        <ele>1449.3469466667</ele>
        <time>2020-10-18T06:35:00Z</time>
      </trkpt>
      <trkpt lat="44.11333" lon="6.98894">
        <ele>1455.44668</ele>
        <time>2020-10-18T06:35:13Z</time>
      </trkpt>
      <trkpt lat="44.11337" lon="6.98903">
        <ele>1458.6465066667</ele>
        <time>2020-10-18T06:35:21Z</time>
      </trkpt>
      <trkpt lat="44.11346" lon="6.98908">
        <ele>1463.64618</ele>
        <time>2020-10-18T06:35:29Z</time>
      </trkpt>
      <trkpt lat="44.11353" lon="6.98914">
        <ele>1466.84588</ele>
        <time>2020-10-18T06:35:37Z</time>
      </trkpt>
      <trkpt lat="44.11359" lon="6.98924">
        <ele>1468.5456466667</ele>
        <time>2020-10-18T06:35:45Z</time>
      </trkpt>
      <trkpt lat="44.11366" lon="6.98929">
        <ele>1469.24536</ele>
        <time>2020-10-18T06:35:52Z</time>
      </trkpt>
      <trkpt lat="44.11375" lon="6.9893">
        <ele>1470.7450133333</ele>
        <time>2020-10-18T06:36:02Z</time>
      </trkpt>
      <trkpt lat="44.11381" lon="6.98937">
        <ele>1470.9447466667</ele>
        <time>2020-10-18T06:36:12Z</time>
      </trkpt>
      <trkpt lat="44.11387" lon="6.98946">
        <ele>1472.24454</ele>
        <time>2020-10-18T06:36:22Z</time>
      </trkpt>
      <trkpt lat="44.11393" lon="6.98953">
        <ele>1471.24428</ele>
        <time>2020-10-18T06:36:29Z</time>
      </trkpt>
      <trkpt lat="44.114" lon="6.98961">
        <ele>1471.04402</ele>
        <time>2020-10-18T06:36:38Z</time>
      </trkpt>
      <trkpt lat="44.11406" lon="6.98969">
        <ele>1470.74376</ele>
        <time>2020-10-18T06:36:46Z</time>
      </trkpt>
      <trkpt lat="44.11413" lon="6.98977">
        <ele>1470.3435</ele>
        <time>2020-10-18T06:36:52Z</time>
      </trkpt>
      <trkpt lat="44.1142" lon="6.98981">
        <ele>1470.1432133333</ele>
        <time>2020-10-18T06:36:58Z</time>
      </trkpt>
      <trkpt lat="44.11428" lon="6.9898">
        <ele>1471.0428733333</ele>
        <time>2020-10-18T06:37:05Z</time>
      </trkpt>
      <trkpt lat="44.11435" lon="6.98987">
        <ele>1472.5426133333</ele>
        <time>2020-10-18T06:37:14Z</time>
      </trkpt>
      <trkpt lat="44.11442" lon="6.98994">
        <ele>1473.1423266667</ele>
        <time>2020-10-18T06:37:23Z</time>
      </trkpt>
      <trkpt lat="44.11448" lon="6.99">
        <ele>1473.6420866667</ele>
        <time>2020-10-18T06:37:29Z</time>
      </trkpt>
      <trkpt lat="44.11453" lon="6.99009">
        <ele>1473.7418733333</ele>
        <time>2020-10-18T06:37:35Z</time>
      </trkpt>
      <trkpt lat="44.11458" lon="6.99018">
        <ele>1474.0416666667</ele>
        <time>2020-10-18T06:37:41Z</time>
      </trkpt>
      <trkpt lat="44.11465" lon="6.99026">
        <ele>1473.84142</ele>
        <time>2020-10-18T06:37:48Z</time>
      </trkpt>
      <trkpt lat="44.11472" lon="6.99032">
        <ele>1476.3411133333</ele>
        <time>2020-10-18T06:37:56Z</time>
      </trkpt>
      <trkpt lat="44.11479" lon="6.99039">
        <ele>1475.9408533333</ele>
        <time>2020-10-18T06:38:05Z</time>
      </trkpt>
      <trkpt lat="44.11485" lon="6.99049">
        <ele>1477.04062</ele>
        <time>2020-10-18T06:38:15Z</time>
      </trkpt>
      <trkpt lat="44.1149" lon="6.99056">
        <ele>1476.9404</ele>
        <time>2020-10-18T06:38:21Z</time>
      </trkpt>
      <trkpt lat="44.11497" lon="6.99064">
        <ele>1477.94012</ele>
        <time>2020-10-18T06:38:30Z</time>
      </trkpt>
      <trkpt lat="44.11503" lon="6.99071">
        <ele>1479.3398866667</ele>
        <time>2020-10-18T06:38:36Z</time>
      </trkpt>
      <trkpt lat="44.11509" lon="6.9908">
        <ele>1481.1396333333</ele>
        <time>2020-10-18T06:38:43Z</time>
      </trkpt>
      <trkpt lat="44.11514" lon="6.9909">
        <ele>1481.5394533333</ele>
        <time>2020-10-18T06:38:52Z</time>
      </trkpt>
      <trkpt lat="44.1152" lon="6.99096">
        <ele>1482.8391933333</ele>
        <time>2020-10-18T06:38:57Z</time>
      </trkpt>
      <trkpt lat="44.11527" lon="6.99105">
        <ele>1486.0389333333</ele>
        <time>2020-10-18T06:39:07Z</time>
      </trkpt>
      <trkpt lat="44.11533" lon="6.99112">
        <ele>1489.13868</ele>
        <time>2020-10-18T06:39:14Z</time>
      </trkpt>
      <trkpt lat="44.11541" lon="6.99116">
        <ele>1490.9383666667</ele>
        <time>2020-10-18T06:39:21Z</time>
      </trkpt>
      <trkpt lat="44.11548" lon="6.99122">
        <ele>1492.0381</ele>
        <time>2020-10-18T06:39:27Z</time>
      </trkpt>
      <trkpt lat="44.11556" lon="6.99126">
        <ele>1493.53776</ele>
        <time>2020-10-18T06:39:36Z</time>
      </trkpt>
      <trkpt lat="44.11565" lon="6.99126">
        <ele>1496.7374066667</ele>
        <time>2020-10-18T06:39:45Z</time>
      </trkpt>
      <trkpt lat="44.11574" lon="6.99124">
        <ele>1499.13706</ele>
        <time>2020-10-18T06:39:56Z</time>
      </trkpt>
      <trkpt lat="44.11581" lon="6.99127">
        <ele>1501.63676</ele>
        <time>2020-10-18T06:40:08Z</time>
      </trkpt>
      <trkpt lat="44.11589" lon="6.99131">
        <ele>1501.1364333333</ele>
        <time>2020-10-18T06:40:16Z</time>
      </trkpt>
      <trkpt lat="44.11598" lon="6.99132">
        <ele>1500.8360866667</ele>
        <time>2020-10-18T06:40:24Z</time>
      </trkpt>
      <trkpt lat="44.11605" lon="6.99138">
        <ele>1501.7358</ele>
        <time>2020-10-18T06:40:32Z</time>
      </trkpt>
      <trkpt lat="44.11612" lon="6.99144">
        <ele>1504.4355133333</ele>
        <time>2020-10-18T06:40:41Z</time>
      </trkpt>
      <trkpt lat="44.11619" lon="6.99148">
        <ele>1505.0352466667</ele>
        <time>2020-10-18T06:40:48Z</time>
      </trkpt>
      <trkpt lat="44.11627" lon="6.99154">
        <ele>1506.2349333333</ele>
        <time>2020-10-18T06:40:56Z</time>
      </trkpt>
      <trkpt lat="44.11635" lon="6.99157">
        <ele>1507.7346</ele>
        <time>2020-10-18T06:41:05Z</time>
      </trkpt>
      <trkpt lat="44.11642" lon="6.99161">
        <ele>1507.6343133333</ele>
        <time>2020-10-18T06:41:14Z</time>
      </trkpt>
      <trkpt lat="44.1165" lon="6.99165">
        <ele>1508.734</ele>
        <time>2020-10-18T06:41:22Z</time>
      </trkpt>
      <trkpt lat="44.11658" lon="6.99169">
        <ele>1509.9336733333</ele>
        <time>2020-10-18T06:41:34Z</time>
      </trkpt>
      <trkpt lat="44.11665" lon="6.99175">
        <ele>1509.8334</ele>
        <time>2020-10-18T06:41:42Z</time>
      </trkpt>
      <trkpt lat="44.11673" lon="6.99179">
        <ele>1511.2330733333</ele>
        <time>2020-10-18T06:41:52Z</time>
      </trkpt>
      <trkpt lat="44.11681" lon="6.99185">
        <ele>1511.43278</ele>
        <time>2020-10-18T06:42:01Z</time>
      </trkpt>
      <trkpt lat="44.11688" lon="6.9919">
        <ele>1511.3325</ele>
        <time>2020-10-18T06:42:09Z</time>
      </trkpt>
      <trkpt lat="44.11695" lon="6.99191">
        <ele>1513.0321866667</ele>
        <time>2020-10-18T06:42:17Z</time>
      </trkpt>
      <trkpt lat="44.11703" lon="6.99194">
        <ele>1514.6318666667</ele>
        <time>2020-10-18T06:42:26Z</time>
      </trkpt>
      <trkpt lat="44.11711" lon="6.99195">
        <ele>1515.7315466667</ele>
        <time>2020-10-18T06:42:35Z</time>
      </trkpt>
      <trkpt lat="44.11719" lon="6.99202">
        <ele>1519.03124</ele>
        <time>2020-10-18T06:42:49Z</time>
      </trkpt>
      <trkpt lat="44.11726" lon="6.99208">
        <ele>1522.3309733333</ele>
        <time>2020-10-18T06:43:06Z</time>
      </trkpt>
      <trkpt lat="44.11731" lon="6.99218">
        <ele>1523.1307466667</ele>
        <time>2020-10-18T06:43:15Z</time>
      </trkpt>
      <trkpt lat="44.11736" lon="6.99226">
        <ele>1523.5305533333</ele>
        <time>2020-10-18T06:43:21Z</time>
      </trkpt>
      <trkpt lat="44.11744" lon="6.99231">
        <ele>1523.53024</ele>
        <time>2020-10-18T06:43:28Z</time>
      </trkpt>
      <trkpt lat="44.1175" lon="6.99239">
        <ele>1523.9299866667</ele>
        <time>2020-10-18T06:43:36Z</time>
      </trkpt>
      <trkpt lat="44.11757" lon="6.99246">
        <ele>1525.3297333333</ele>
        <time>2020-10-18T06:43:43Z</time>
      </trkpt>
      <trkpt lat="44.11762" lon="6.99255">
        <ele>1527.22952</ele>
        <time>2020-10-18T06:43:53Z</time>
      </trkpt>
      <trkpt lat="44.11769" lon="6.99261">
        <ele>1527.6292533333</ele>
        <time>2020-10-18T06:44:00Z</time>
      </trkpt>
      <trkpt lat="44.11775" lon="6.99269">
        <ele>1529.6290066667</ele>
        <time>2020-10-18T06:44:08Z</time>
      </trkpt>
      <trkpt lat="44.11782" lon="6.99276">
        <ele>1531.4287066667</ele>
        <time>2020-10-18T06:44:18Z</time>
      </trkpt>
      <trkpt lat="44.11788" lon="6.99285">
        <ele>1533.0284666667</ele>
        <time>2020-10-18T06:44:27Z</time>
      </trkpt>
      <trkpt lat="44.11796" lon="6.99291">
        <ele>1535.3281666667</ele>
        <time>2020-10-18T06:44:38Z</time>
      </trkpt>
      <trkpt lat="44.11799" lon="6.99301">
        <ele>1537.0280333333</ele>
        <time>2020-10-18T06:44:45Z</time>
      </trkpt>
      <trkpt lat="44.11808" lon="6.99303">
        <ele>1539.8277</ele>
        <time>2020-10-18T06:44:55Z</time>
      </trkpt>
      <trkpt lat="44.11815" lon="6.99298">
        <ele>1539.8274066667</ele>
        <time>2020-10-18T06:45:02Z</time>
      </trkpt>
      <trkpt lat="44.11823" lon="6.99292">
        <ele>1540.8270866667</ele>
        <time>2020-10-18T06:45:12Z</time>
      </trkpt>
      <trkpt lat="44.1183" lon="6.99286">
        <ele>1539.3267933333</ele>
        <time>2020-10-18T06:45:22Z</time>
      </trkpt>
      <trkpt lat="44.11838" lon="6.99281">
        <ele>1539.6264866667</ele>
        <time>2020-10-18T06:45:32Z</time>
      </trkpt>
      <trkpt lat="44.11842" lon="6.9927">
        <ele>1544.1263333333</ele>
        <time>2020-10-18T06:45:43Z</time>
      </trkpt>
      <trkpt lat="44.11842" lon="6.99258">
        <ele>1546.9263333333</ele>
        <time>2020-10-18T06:45:56Z</time>
      </trkpt>
      <trkpt lat="44.11843" lon="6.99247">
        <ele>1549.9262933333</ele>
        <time>2020-10-18T06:46:12Z</time>
      </trkpt>
      <trkpt lat="44.11843" lon="6.99235">
        <ele>1550.5262933333</ele>
        <time>2020-10-18T06:46:28Z</time>
      </trkpt>
      <trkpt lat="44.11846" lon="6.99224">
        <ele>1549.32616</ele>
        <time>2020-10-18T06:46:37Z</time>
      </trkpt>
      <trkpt lat="44.11854" lon="6.99219">
        <ele>1547.22586</ele>
        <time>2020-10-18T06:46:44Z</time>
      </trkpt>
      <trkpt lat="44.11861" lon="6.99213">
        <ele>1546.4255666667</ele>
        <time>2020-10-18T06:46:52Z</time>
      </trkpt>
      <trkpt lat="44.11868" lon="6.99209">
        <ele>1545.5252666667</ele>
        <time>2020-10-18T06:47:00Z</time>
      </trkpt>
      <trkpt lat="44.11876" lon="6.99203">
        <ele>1547.9249466667</ele>
        <time>2020-10-18T06:47:11Z</time>
      </trkpt>
      <trkpt lat="44.11882" lon="6.99194">
        <ele>1550.8247133333</ele>
        <time>2020-10-18T06:47:23Z</time>
      </trkpt>
      <trkpt lat="44.11889" lon="6.99186">
        <ele>1551.82446</ele>
        <time>2020-10-18T06:47:32Z</time>
      </trkpt>
      <trkpt lat="44.11895" lon="6.99192">
        <ele>1555.1241866667</ele>
        <time>2020-10-18T06:47:42Z</time>
      </trkpt>
      <trkpt lat="44.11904" lon="6.99191">
        <ele>1558.5238466667</ele>
        <time>2020-10-18T06:48:06Z</time>
      </trkpt>
      <trkpt lat="44.11912" lon="6.99188">
        <ele>1560.3235333333</ele>
        <time>2020-10-18T06:48:18Z</time>
      </trkpt>
      <trkpt lat="44.1192" lon="6.99184">
        <ele>1560.5232</ele>
        <time>2020-10-18T06:48:28Z</time>
      </trkpt>
      <trkpt lat="44.11927" lon="6.99178">
        <ele>1561.8229066667</ele>
        <time>2020-10-18T06:48:40Z</time>
      </trkpt>
      <trkpt lat="44.11934" lon="6.9917">
        <ele>1563.82266</ele>
        <time>2020-10-18T06:48:53Z</time>
      </trkpt>
      <trkpt lat="44.1194" lon="6.99161">
        <ele>1567.3223933333</ele>
        <time>2020-10-18T06:49:08Z</time>
      </trkpt>
      <trkpt lat="44.11948" lon="6.99156">
        <ele>1568.9220933333</ele>
        <time>2020-10-18T06:49:19Z</time>
      </trkpt>
      <trkpt lat="44.11955" lon="6.99149">
        <ele>1568.3217866667</ele>
        <time>2020-10-18T06:49:31Z</time>
      </trkpt>
      <trkpt lat="44.11964" lon="6.99147">
        <ele>1569.72144</ele>
        <time>2020-10-18T06:49:49Z</time>
      </trkpt>
      <trkpt lat="44.11973" lon="6.99143">
        <ele>1570.3210933333</ele>
        <time>2020-10-18T06:50:01Z</time>
      </trkpt>
      <trkpt lat="44.11981" lon="6.99139">
        <ele>1571.2207666667</ele>
        <time>2020-10-18T06:50:18Z</time>
      </trkpt>
      <trkpt lat="44.1199" lon="6.99137">
        <ele>1573.02042</ele>
        <time>2020-10-18T06:50:28Z</time>
      </trkpt>
      <trkpt lat="44.11995" lon="6.99144">
        <ele>1575.3202</ele>
        <time>2020-10-18T06:50:39Z</time>
      </trkpt>
      <trkpt lat="44.12003" lon="6.99145">
        <ele>1581.9198666667</ele>
        <time>2020-10-18T06:51:02Z</time>
      </trkpt>
      <trkpt lat="44.12011" lon="6.99141">
        <ele>1584.31956</ele>
        <time>2020-10-18T06:51:12Z</time>
      </trkpt>
      <trkpt lat="44.12017" lon="6.99132">
        <ele>1588.51932</ele>
        <time>2020-10-18T06:51:29Z</time>
      </trkpt>
      <trkpt lat="44.12024" lon="6.99125">
        <ele>1591.0190266667</ele>
        <time>2020-10-18T06:51:40Z</time>
      </trkpt>
      <trkpt lat="44.12032" lon="6.99121">
        <ele>1593.1187066667</ele>
        <time>2020-10-18T06:51:53Z</time>
      </trkpt>
      <trkpt lat="44.1204" lon="6.99115">
        <ele>1595.1184066667</ele>
        <time>2020-10-18T06:52:04Z</time>
      </trkpt>
      <trkpt lat="44.12048" lon="6.99111">
        <ele>1597.8180933333</ele>
        <time>2020-10-18T06:52:20Z</time>
      </trkpt>
      <trkpt lat="44.12049" lon="6.99123">
        <ele>1602.6180466667</ele>
        <time>2020-10-18T06:52:36Z</time>
      </trkpt>
      <trkpt lat="44.12054" lon="6.99132">
        <ele>1606.01786</ele>
        <time>2020-10-18T06:52:48Z</time>
      </trkpt>
      <trkpt lat="44.1206" lon="6.9914">
        <ele>1608.9175933333</ele>
        <time>2020-10-18T06:52:57Z</time>
      </trkpt>
      <trkpt lat="44.12068" lon="6.99145">
        <ele>1613.4172666667</ele>
        <time>2020-10-18T06:53:10Z</time>
      </trkpt>
      <trkpt lat="44.12076" lon="6.99149">
        <ele>1615.6169466667</ele>
        <time>2020-10-18T06:53:25Z</time>
      </trkpt>
      <trkpt lat="44.12085" lon="6.99151">
        <ele>1617.3166</ele>
        <time>2020-10-18T06:53:36Z</time>
      </trkpt>
      <trkpt lat="44.12093" lon="6.99155">
        <ele>1619.3162933333</ele>
        <time>2020-10-18T06:53:48Z</time>
      </trkpt>
      <trkpt lat="44.121" lon="6.99161">
        <ele>1622.216</ele>
        <time>2020-10-18T06:54:02Z</time>
      </trkpt>
      <trkpt lat="44.12109" lon="6.99163">
        <ele>1627.2156466667</ele>
        <time>2020-10-18T06:54:16Z</time>
      </trkpt>
      <trkpt lat="44.12116" lon="6.9917">
        <ele>1628.8153733333</ele>
        <time>2020-10-18T06:54:26Z</time>
      </trkpt>
      <trkpt lat="44.12124" lon="6.99173">
        <ele>1630.21504</ele>
        <time>2020-10-18T06:54:35Z</time>
      </trkpt>
      <trkpt lat="44.1213" lon="6.99181">
        <ele>1632.4148066667</ele>
        <time>2020-10-18T06:54:45Z</time>
      </trkpt>
      <trkpt lat="44.12135" lon="6.99189">
        <ele>1633.9145866667</ele>
        <time>2020-10-18T06:54:54Z</time>
      </trkpt>
      <trkpt lat="44.12143" lon="6.99196">
        <ele>1634.8142933333</ele>
        <time>2020-10-18T06:55:04Z</time>
      </trkpt>
      <trkpt lat="44.12151" lon="6.992">
        <ele>1635.8139533333</ele>
        <time>2020-10-18T06:55:12Z</time>
      </trkpt>
      <trkpt lat="44.1216" lon="6.99198">
        <ele>1636.7136</ele>
        <time>2020-10-18T06:55:22Z</time>
      </trkpt>
      <trkpt lat="44.12167" lon="6.99192">
        <ele>1637.1133266667</ele>
        <time>2020-10-18T06:55:31Z</time>
      </trkpt>
      <trkpt lat="44.12175" lon="6.99193">
        <ele>1637.1130066667</ele>
        <time>2020-10-18T06:55:40Z</time>
      </trkpt>
      <trkpt lat="44.12181" lon="6.99201">
        <ele>1636.8127533333</ele>
        <time>2020-10-18T06:55:46Z</time>
      </trkpt>
      <trkpt lat="44.12188" lon="6.99205">
        <ele>1637.1124733333</ele>
        <time>2020-10-18T06:55:54Z</time>
      </trkpt>
      <trkpt lat="44.12196" lon="6.9921">
        <ele>1637.5121533333</ele>
        <time>2020-10-18T06:56:03Z</time>
      </trkpt>
      <trkpt lat="44.122" lon="6.99219">
        <ele>1637.812</ele>
        <time>2020-10-18T06:56:11Z</time>
      </trkpt>
      <trkpt lat="44.12201" lon="6.99231">
        <ele>1639.1119666667</ele>
        <time>2020-10-18T06:56:19Z</time>
      </trkpt>
      <trkpt lat="44.122" lon="6.99243">
        <ele>1640.4120133333</ele>
        <time>2020-10-18T06:56:29Z</time>
      </trkpt>
      <trkpt lat="44.12202" lon="6.99254">
        <ele>1642.91192</ele>
        <time>2020-10-18T06:56:46Z</time>
      </trkpt>
      <trkpt lat="44.12208" lon="6.99245">
        <ele>1644.51168</ele>
        <time>2020-10-18T06:57:01Z</time>
      </trkpt>
      <trkpt lat="44.12216" lon="6.99241">
        <ele>1645.01138</ele>
        <time>2020-10-18T06:57:13Z</time>
      </trkpt>
      <trkpt lat="44.12224" lon="6.99238">
        <ele>1646.4110533333</ele>
        <time>2020-10-18T06:57:26Z</time>
      </trkpt>
      <trkpt lat="44.12232" lon="6.99242">
        <ele>1652.51072</ele>
        <time>2020-10-18T06:57:43Z</time>
      </trkpt>
      <trkpt lat="44.1224" lon="6.99248">
        <ele>1654.71042</ele>
        <time>2020-10-18T06:57:50Z</time>
      </trkpt>
      <trkpt lat="44.12245" lon="6.99256">
        <ele>1657.2102066667</ele>
        <time>2020-10-18T06:58:00Z</time>
      </trkpt>
      <trkpt lat="44.12253" lon="6.99262">
        <ele>1659.7098933333</ele>
        <time>2020-10-18T06:58:10Z</time>
      </trkpt>
      <trkpt lat="44.1226" lon="6.99268">
        <ele>1662.9096066667</ele>
        <time>2020-10-18T06:58:23Z</time>
      </trkpt>
      <trkpt lat="44.12268" lon="6.9927">
        <ele>1666.6092666667</ele>
        <time>2020-10-18T06:58:40Z</time>
      </trkpt>
      <trkpt lat="44.12277" lon="6.99271">
        <ele>1669.80892</ele>
        <time>2020-10-18T06:58:54Z</time>
      </trkpt>
      <trkpt lat="44.12284" lon="6.99277">
        <ele>1670.9086333333</ele>
        <time>2020-10-18T06:59:03Z</time>
      </trkpt>
      <trkpt lat="44.12292" lon="6.99284">
        <ele>1670.70834</ele>
        <time>2020-10-18T06:59:12Z</time>
      </trkpt>
      <trkpt lat="44.12298" lon="6.99292">
        <ele>1670.70808</ele>
        <time>2020-10-18T06:59:22Z</time>
      </trkpt>
      <trkpt lat="44.12305" lon="6.99299">
        <ele>1669.1077866667</ele>
        <time>2020-10-18T06:59:33Z</time>
      </trkpt>
      <trkpt lat="44.12313" lon="6.99304">
        <ele>1668.3074733333</ele>
        <time>2020-10-18T06:59:42Z</time>
      </trkpt>
      <trkpt lat="44.1232" lon="6.99311">
        <ele>1669.2071933333</ele>
        <time>2020-10-18T06:59:57Z</time>
      </trkpt>
      <trkpt lat="44.12328" lon="6.99315">
        <ele>1671.1068733333</ele>
        <time>2020-10-18T07:00:08Z</time>
      </trkpt>
      <trkpt lat="44.12336" lon="6.9932">
        <ele>1674.5065533333</ele>
        <time>2020-10-18T07:00:22Z</time>
      </trkpt>
      <trkpt lat="44.12344" lon="6.99325">
        <ele>1677.0062533333</ele>
        <time>2020-10-18T07:00:35Z</time>
      </trkpt>
      <trkpt lat="44.12351" lon="6.99331">
        <ele>1679.6059533333</ele>
        <time>2020-10-18T07:00:47Z</time>
      </trkpt>
      <trkpt lat="44.12359" lon="6.99336">
        <ele>1683.60566</ele>
        <time>2020-10-18T07:01:00Z</time>
      </trkpt>
      <trkpt lat="44.12367" lon="6.99339">
        <ele>1687.9053133333</ele>
        <time>2020-10-18T07:01:09Z</time>
      </trkpt>
      <trkpt lat="44.12375" lon="6.99343">
        <ele>1692.0049933333</ele>
        <time>2020-10-18T07:01:19Z</time>
      </trkpt>
      <trkpt lat="44.12382" lon="6.99349">
        <ele>1696.2047066667</ele>
        <time>2020-10-18T07:01:29Z</time>
      </trkpt>
      <trkpt lat="44.12391" lon="6.99354">
        <ele>1700.6043733333</ele>
        <time>2020-10-18T07:01:42Z</time>
      </trkpt>
      <trkpt lat="44.12399" lon="6.99357">
        <ele>1704.0040533333</ele>
        <time>2020-10-18T07:01:55Z</time>
      </trkpt>
      <trkpt lat="44.12408" lon="6.99359">
        <ele>1706.9037</ele>
        <time>2020-10-18T07:02:07Z</time>
      </trkpt>
      <trkpt lat="44.12416" lon="6.99361">
        <ele>1708.20336</ele>
        <time>2020-10-18T07:02:20Z</time>
      </trkpt>
      <trkpt lat="44.12424" lon="6.99364">
        <ele>1709.1030266667</ele>
        <time>2020-10-18T07:02:28Z</time>
      </trkpt>
      <trkpt lat="44.12432" lon="6.9937">
        <ele>1710.50272</ele>
        <time>2020-10-18T07:02:38Z</time>
      </trkpt>
      <trkpt lat="44.12438" lon="6.99379">
        <ele>1711.6025</ele>
        <time>2020-10-18T07:02:49Z</time>
      </trkpt>
      <trkpt lat="44.12446" lon="6.99382">
        <ele>1711.7021533333</ele>
        <time>2020-10-18T07:03:00Z</time>
      </trkpt>
      <trkpt lat="44.12454" lon="6.99388">
        <ele>1712.3018533333</ele>
        <time>2020-10-18T07:03:10Z</time>
      </trkpt>
      <trkpt lat="44.12461" lon="6.99394">
        <ele>1711.40156</ele>
        <time>2020-10-18T07:03:23Z</time>
      </trkpt>
      <trkpt lat="44.12469" lon="6.99399">
        <ele>1711.3012466667</ele>
        <time>2020-10-18T07:03:33Z</time>
      </trkpt>
      <trkpt lat="44.12476" lon="6.99406">
        <ele>1712.6009666667</ele>
        <time>2020-10-18T07:03:43Z</time>
      </trkpt>
      <trkpt lat="44.12484" lon="6.99411">
        <ele>1712.7006533333</ele>
        <time>2020-10-18T07:03:54Z</time>
      </trkpt>
      <trkpt lat="44.12492" lon="6.99413">
        <ele>1711.1003066667</ele>
        <time>2020-10-18T07:04:05Z</time>
      </trkpt>
      <trkpt lat="44.12501" lon="6.99417">
        <ele>1713.79998</ele>
        <time>2020-10-18T07:04:33Z</time>
      </trkpt>
      <trkpt lat="44.12509" lon="6.99418">
        <ele>1717.2996266667</ele>
        <time>2020-10-18T07:04:48Z</time>
      </trkpt>
      <trkpt lat="44.12518" lon="6.99418">
        <ele>1721.4992733333</ele>
        <time>2020-10-18T07:05:05Z</time>
      </trkpt>
      <trkpt lat="44.12527" lon="6.99419">
        <ele>1722.49894</ele>
        <time>2020-10-18T07:05:15Z</time>
      </trkpt>
      <trkpt lat="44.12535" lon="6.99418">
        <ele>1723.6985866667</ele>
        <time>2020-10-18T07:05:26Z</time>
      </trkpt>
      <trkpt lat="44.12544" lon="6.99416">
        <ele>1725.3982466667</ele>
        <time>2020-10-18T07:05:35Z</time>
      </trkpt>
      <trkpt lat="44.12552" lon="6.99413">
        <ele>1726.5979133333</ele>
        <time>2020-10-18T07:05:45Z</time>
      </trkpt>
      <trkpt lat="44.12561" lon="6.99412">
        <ele>1728.4975666667</ele>
        <time>2020-10-18T07:05:55Z</time>
      </trkpt>
      <trkpt lat="44.12569" lon="6.99411">
        <ele>1730.39724</ele>
        <time>2020-10-18T07:06:10Z</time>
      </trkpt>
      <trkpt lat="44.12577" lon="6.99414">
        <ele>1731.9969066667</ele>
        <time>2020-10-18T07:06:22Z</time>
      </trkpt>
      <trkpt lat="44.12584" lon="6.99422">
        <ele>1733.29666</ele>
        <time>2020-10-18T07:06:32Z</time>
      </trkpt>
      <trkpt lat="44.12591" lon="6.99429">
        <ele>1734.7963733333</ele>
        <time>2020-10-18T07:06:43Z</time>
      </trkpt>
      <trkpt lat="44.12599" lon="6.99426">
        <ele>1737.0960466667</ele>
        <time>2020-10-18T07:07:01Z</time>
      </trkpt>
      <trkpt lat="44.12606" lon="6.99432">
        <ele>1737.8957666667</ele>
        <time>2020-10-18T07:07:11Z</time>
      </trkpt>
      <trkpt lat="44.12613" lon="6.99439">
        <ele>1738.3954866667</ele>
        <time>2020-10-18T07:07:20Z</time>
      </trkpt>
      <trkpt lat="44.12621" lon="6.99443">
        <ele>1741.1951466667</ele>
        <time>2020-10-18T07:07:33Z</time>
      </trkpt>
      <trkpt lat="44.1263" lon="6.99443">
        <ele>1746.3948</ele>
        <time>2020-10-18T07:07:50Z</time>
      </trkpt>
      <trkpt lat="44.12639" lon="6.99445">
        <ele>1747.8944533333</ele>
        <time>2020-10-18T07:08:02Z</time>
      </trkpt>
      <trkpt lat="44.12647" lon="6.99449">
        <ele>1749.39412</ele>
        <time>2020-10-18T07:08:14Z</time>
      </trkpt>
      <trkpt lat="44.12655" lon="6.99456">
        <ele>1749.89382</ele>
        <time>2020-10-18T07:08:28Z</time>
      </trkpt>
      <trkpt lat="44.1266" lon="6.99465">
        <ele>1750.3935933333</ele>
        <time>2020-10-18T07:08:37Z</time>
      </trkpt>
      <trkpt lat="44.12664" lon="6.99476">
        <ele>1752.09346</ele>
        <time>2020-10-18T07:08:46Z</time>
      </trkpt>
      <trkpt lat="44.12672" lon="6.99481">
        <ele>1756.59314</ele>
        <time>2020-10-18T07:08:57Z</time>
      </trkpt>
      <trkpt lat="44.1268" lon="6.99483">
        <ele>1760.2928133333</ele>
        <time>2020-10-18T07:09:05Z</time>
      </trkpt>
      <trkpt lat="44.12688" lon="6.99482">
        <ele>1764.4924666667</ele>
        <time>2020-10-18T07:09:20Z</time>
      </trkpt>
      <trkpt lat="44.12693" lon="6.99472">
        <ele>1764.1922666667</ele>
        <time>2020-10-18T07:09:41Z</time>
      </trkpt>
      <trkpt lat="44.12691" lon="6.9946">
        <ele>1763.7923466667</ele>
        <time>2020-10-18T07:09:53Z</time>
      </trkpt>
      <trkpt lat="44.12688" lon="6.99449">
        <ele>1764.5925</ele>
        <time>2020-10-18T07:10:04Z</time>
      </trkpt>
      <trkpt lat="44.12687" lon="6.99437">
        <ele>1764.9925266667</ele>
        <time>2020-10-18T07:10:14Z</time>
      </trkpt>
      <trkpt lat="44.12682" lon="6.99426">
        <ele>1765.2927133333</ele>
        <time>2020-10-18T07:11:47Z</time>
      </trkpt>
      <trkpt lat="44.12676" lon="6.99417">
        <ele>1771.1929466667</ele>
        <time>2020-10-18T07:14:41Z</time>
      </trkpt>
      <trkpt lat="44.12672" lon="6.99407">
        <ele>1771.1931266667</ele>
        <time>2020-10-18T07:14:52Z</time>
      </trkpt>
      <trkpt lat="44.1267" lon="6.99395">
        <ele>1773.5931933333</ele>
        <time>2020-10-18T07:15:09Z</time>
      </trkpt>
      <trkpt lat="44.12678" lon="6.99393">
        <ele>1774.7928733333</ele>
        <time>2020-10-18T07:15:21Z</time>
      </trkpt>
      <trkpt lat="44.12687" lon="6.99394">
        <ele>1775.99252</ele>
        <time>2020-10-18T07:15:30Z</time>
      </trkpt>
      <trkpt lat="44.12696" lon="6.99396">
        <ele>1777.8921733333</ele>
        <time>2020-10-18T07:15:42Z</time>
      </trkpt>
      <trkpt lat="44.12704" lon="6.99398">
        <ele>1780.9918533333</ele>
        <time>2020-10-18T07:15:50Z</time>
      </trkpt>
      <trkpt lat="44.12712" lon="6.99402">
        <ele>1785.1915333333</ele>
        <time>2020-10-18T07:15:59Z</time>
      </trkpt>
      <trkpt lat="44.12721" lon="6.99403">
        <ele>1786.29118</ele>
        <time>2020-10-18T07:16:09Z</time>
      </trkpt>
      <trkpt lat="44.12729" lon="6.99406">
        <ele>1787.1908533333</ele>
        <time>2020-10-18T07:16:19Z</time>
      </trkpt>
      <trkpt lat="44.12737" lon="6.99409">
        <ele>1789.5905133333</ele>
        <time>2020-10-18T07:16:29Z</time>
      </trkpt>
      <trkpt lat="44.12746" lon="6.99412">
        <ele>1791.19018</ele>
        <time>2020-10-18T07:16:38Z</time>
      </trkpt>
      <trkpt lat="44.12754" lon="6.99416">
        <ele>1791.4898533333</ele>
        <time>2020-10-18T07:16:49Z</time>
      </trkpt>
      <trkpt lat="44.12763" lon="6.99417">
        <ele>1793.5895</ele>
        <time>2020-10-18T07:17:00Z</time>
      </trkpt>
      <trkpt lat="44.12771" lon="6.99421">
        <ele>1795.9891666667</ele>
        <time>2020-10-18T07:17:10Z</time>
      </trkpt>
      <trkpt lat="44.12779" lon="6.99424">
        <ele>1797.0888466667</ele>
        <time>2020-10-18T07:17:19Z</time>
      </trkpt>
      <trkpt lat="44.12785" lon="6.99432">
        <ele>1800.2886</ele>
        <time>2020-10-18T07:17:29Z</time>
      </trkpt>
      <trkpt lat="44.12793" lon="6.99437">
        <ele>1804.28828</ele>
        <time>2020-10-18T07:17:42Z</time>
      </trkpt>
      <trkpt lat="44.12801" lon="6.99435">
        <ele>1804.6879533333</ele>
        <time>2020-10-18T07:17:50Z</time>
      </trkpt>
      <trkpt lat="44.1281" lon="6.99433">
        <ele>1805.3876066667</ele>
        <time>2020-10-18T07:18:01Z</time>
      </trkpt>
      <trkpt lat="44.12819" lon="6.99436">
        <ele>1806.78726</ele>
        <time>2020-10-18T07:18:11Z</time>
      </trkpt>
      <trkpt lat="44.12827" lon="6.99438">
        <ele>1807.68692</ele>
        <time>2020-10-18T07:18:20Z</time>
      </trkpt>
      <trkpt lat="44.12835" lon="6.99438">
        <ele>1806.9865866667</ele>
        <time>2020-10-18T07:18:29Z</time>
      </trkpt>
      <trkpt lat="44.12843" lon="6.99433">
        <ele>1810.4862866667</ele>
        <time>2020-10-18T07:18:42Z</time>
      </trkpt>
      <trkpt lat="44.12851" lon="6.99429">
        <ele>1814.38598</ele>
        <time>2020-10-18T07:18:56Z</time>
      </trkpt>
      <trkpt lat="44.12851" lon="6.99417">
        <ele>1818.3859666667</ele>
        <time>2020-10-18T07:19:14Z</time>
      </trkpt>
      <trkpt lat="44.12854" lon="6.99407">
        <ele>1821.3858266667</ele>
        <time>2020-10-18T07:19:31Z</time>
      </trkpt>
      <trkpt lat="44.12856" lon="6.99395">
        <ele>1823.5857466667</ele>
        <time>2020-10-18T07:19:49Z</time>
      </trkpt>
      <trkpt lat="44.12864" lon="6.9939">
        <ele>1824.4854466667</ele>
        <time>2020-10-18T07:20:03Z</time>
      </trkpt>
      <trkpt lat="44.12872" lon="6.99388">
        <ele>1826.6851066667</ele>
        <time>2020-10-18T07:20:13Z</time>
      </trkpt>
      <trkpt lat="44.12881" lon="6.99387">
        <ele>1829.0847733333</ele>
        <time>2020-10-18T07:20:22Z</time>
      </trkpt>
      <trkpt lat="44.1289" lon="6.99388">
        <ele>1831.48442</ele>
        <time>2020-10-18T07:20:33Z</time>
      </trkpt>
      <trkpt lat="44.12898" lon="6.99385">
        <ele>1832.98408</ele>
        <time>2020-10-18T07:20:45Z</time>
      </trkpt>
      <trkpt lat="44.12907" lon="6.99383">
        <ele>1835.8837333333</ele>
        <time>2020-10-18T07:20:58Z</time>
      </trkpt>
      <trkpt lat="44.12915" lon="6.99383">
        <ele>1835.1834066667</ele>
        <time>2020-10-18T07:21:09Z</time>
      </trkpt>
      <trkpt lat="44.12924" lon="6.99381">
        <ele>1836.9830533333</ele>
        <time>2020-10-18T07:21:21Z</time>
      </trkpt>
      <trkpt lat="44.12932" lon="6.99382">
        <ele>1841.3827333333</ele>
        <time>2020-10-18T07:21:31Z</time>
      </trkpt>
      <trkpt lat="44.12941" lon="6.9938">
        <ele>1843.38238</ele>
        <time>2020-10-18T07:21:42Z</time>
      </trkpt>
      <trkpt lat="44.12949" lon="6.99378">
        <ele>1844.2820266667</ele>
        <time>2020-10-18T07:21:54Z</time>
      </trkpt>
      <trkpt lat="44.12958" lon="6.99378">
        <ele>1846.3816933333</ele>
        <time>2020-10-18T07:22:04Z</time>
      </trkpt>
      <trkpt lat="44.12966" lon="6.99379">
        <ele>1848.2813733333</ele>
        <time>2020-10-18T07:22:12Z</time>
      </trkpt>
      <trkpt lat="44.12974" lon="6.9938">
        <ele>1849.78104</ele>
        <time>2020-10-18T07:22:24Z</time>
      </trkpt>
      <trkpt lat="44.12983" lon="6.99382">
        <ele>1851.5807</ele>
        <time>2020-10-18T07:22:39Z</time>
      </trkpt>
      <trkpt lat="44.12991" lon="6.99384">
        <ele>1854.4803533333</ele>
        <time>2020-10-18T07:22:55Z</time>
      </trkpt>
      <trkpt lat="44.13" lon="6.99386">
        <ele>1856.9800066667</ele>
        <time>2020-10-18T07:23:09Z</time>
      </trkpt>
      <trkpt lat="44.13008" lon="6.99391">
        <ele>1858.4796866667</ele>
        <time>2020-10-18T07:23:23Z</time>
      </trkpt>
      <trkpt lat="44.13017" lon="6.99393">
        <ele>1860.07934</ele>
        <time>2020-10-18T07:23:41Z</time>
      </trkpt>
      <trkpt lat="44.13025" lon="6.99393">
        <ele>1862.6790066667</ele>
        <time>2020-10-18T07:23:53Z</time>
      </trkpt>
      <trkpt lat="44.13033" lon="6.99387">
        <ele>1866.4787</ele>
        <time>2020-10-18T07:24:13Z</time>
      </trkpt>
      <trkpt lat="44.13041" lon="6.99387">
        <ele>1870.9783666667</ele>
        <time>2020-10-18T07:24:36Z</time>
      </trkpt>
      <trkpt lat="44.13049" lon="6.99385">
        <ele>1870.0780266667</ele>
        <time>2020-10-18T07:24:53Z</time>
      </trkpt>
      <trkpt lat="44.13057" lon="6.99389">
        <ele>1871.6777133333</ele>
        <time>2020-10-18T07:25:10Z</time>
      </trkpt>
      <trkpt lat="44.13065" lon="6.99395">
        <ele>1874.47742</ele>
        <time>2020-10-18T07:25:23Z</time>
      </trkpt>
      <trkpt lat="44.13071" lon="6.99402">
        <ele>1876.2771666667</ele>
        <time>2020-10-18T07:25:35Z</time>
      </trkpt>
      <trkpt lat="44.13079" lon="6.99407">
        <ele>1877.6768533333</ele>
        <time>2020-10-18T07:25:44Z</time>
      </trkpt>
      <trkpt lat="44.13081" lon="6.99419">
        <ele>1881.5767466667</ele>
        <time>2020-10-18T07:25:53Z</time>
      </trkpt>
      <trkpt lat="44.13084" lon="6.9943">
        <ele>1884.3766333333</ele>
        <time>2020-10-18T07:26:02Z</time>
      </trkpt>
      <trkpt lat="44.13091" lon="6.99436">
        <ele>1885.1763533333</ele>
        <time>2020-10-18T07:26:12Z</time>
      </trkpt>
      <trkpt lat="44.13096" lon="6.99447">
        <ele>1886.47616</ele>
        <time>2020-10-18T07:26:27Z</time>
      </trkpt>
      <trkpt lat="44.13104" lon="6.99453">
        <ele>1885.8758533333</ele>
        <time>2020-10-18T07:26:43Z</time>
      </trkpt>
      <trkpt lat="44.13112" lon="6.99454">
        <ele>1888.5755133333</ele>
        <time>2020-10-18T07:26:58Z</time>
      </trkpt>
      <trkpt lat="44.1312" lon="6.99455">
        <ele>1891.5751866667</ele>
        <time>2020-10-18T07:27:13Z</time>
      </trkpt>
      <trkpt lat="44.13129" lon="6.99459">
        <ele>1894.27486</ele>
        <time>2020-10-18T07:27:28Z</time>
      </trkpt>
      <trkpt lat="44.13137" lon="6.9946">
        <ele>1901.07452</ele>
        <time>2020-10-18T07:27:46Z</time>
      </trkpt>
      <trkpt lat="44.13144" lon="6.99452">
        <ele>1905.6742466667</ele>
        <time>2020-10-18T07:28:04Z</time>
      </trkpt>
      <trkpt lat="44.13151" lon="6.99459">
        <ele>1908.2739533333</ele>
        <time>2020-10-18T07:28:23Z</time>
      </trkpt>
      <trkpt lat="44.13159" lon="6.99454">
        <ele>1909.17364</ele>
        <time>2020-10-18T07:28:52Z</time>
      </trkpt>
      <trkpt lat="44.13168" lon="6.99455">
        <ele>1910.2733</ele>
        <time>2020-10-18T07:29:06Z</time>
      </trkpt>
      <trkpt lat="44.13174" lon="6.99462">
        <ele>1913.27304</ele>
        <time>2020-10-18T07:29:22Z</time>
      </trkpt>
      <trkpt lat="44.13183" lon="6.99463">
        <ele>1915.8726866667</ele>
        <time>2020-10-18T07:29:37Z</time>
      </trkpt>
      <trkpt lat="44.13191" lon="6.99466">
        <ele>1919.4723533333</ele>
        <time>2020-10-18T07:29:57Z</time>
      </trkpt>
      <trkpt lat="44.13197" lon="6.99456">
        <ele>1921.5721266667</ele>
        <time>2020-10-18T07:30:21Z</time>
      </trkpt>
      <trkpt lat="44.13205" lon="6.99452">
        <ele>1921.9718133333</ele>
        <time>2020-10-18T07:30:35Z</time>
      </trkpt>
      <trkpt lat="44.13213" lon="6.99447">
        <ele>1924.0715</ele>
        <time>2020-10-18T07:30:47Z</time>
      </trkpt>
      <trkpt lat="44.13217" lon="6.99437">
        <ele>1926.5713266667</ele>
        <time>2020-10-18T07:31:03Z</time>
      </trkpt>
      <trkpt lat="44.13219" lon="6.99425">
        <ele>1928.6712466667</ele>
        <time>2020-10-18T07:31:13Z</time>
      </trkpt>
      <trkpt lat="44.13223" lon="6.99414">
        <ele>1932.5710933333</ele>
        <time>2020-10-18T07:31:28Z</time>
      </trkpt>
      <trkpt lat="44.13231" lon="6.99412">
        <ele>1934.5707733333</ele>
        <time>2020-10-18T07:31:41Z</time>
      </trkpt>
      <trkpt lat="44.13238" lon="6.99417">
        <ele>1935.3704933333</ele>
        <time>2020-10-18T07:32:11Z</time>
      </trkpt>
      <trkpt lat="44.13239" lon="6.99405">
        <ele>1936.5704266667</ele>
        <time>2020-10-18T07:37:46Z</time>
      </trkpt>
      <trkpt lat="44.13246" lon="6.99397">
        <ele>1934.9701733333</ele>
        <time>2020-10-18T07:37:55Z</time>
      </trkpt>
      <trkpt lat="44.13252" lon="6.99389">
        <ele>1933.16992</ele>
        <time>2020-10-18T07:38:03Z</time>
      </trkpt>
      <trkpt lat="44.1326" lon="6.99384">
        <ele>1929.7696133333</ele>
        <time>2020-10-18T07:38:11Z</time>
      </trkpt>
      <trkpt lat="44.13264" lon="6.99374">
        <ele>1926.7694333333</ele>
        <time>2020-10-18T07:38:19Z</time>
      </trkpt>
      <trkpt lat="44.1327" lon="6.99364">
        <ele>1922.66922</ele>
        <time>2020-10-18T07:38:27Z</time>
      </trkpt>
      <trkpt lat="44.13277" lon="6.99358">
        <ele>1920.9689333333</ele>
        <time>2020-10-18T07:38:36Z</time>
      </trkpt>
      <trkpt lat="44.13284" lon="6.99354">
        <ele>1920.06864</ele>
        <time>2020-10-18T07:38:43Z</time>
      </trkpt>
      <trkpt lat="44.13291" lon="6.99349">
        <ele>1918.8683466667</ele>
        <time>2020-10-18T07:38:49Z</time>
      </trkpt>
      <trkpt lat="44.13299" lon="6.99345">
        <ele>1916.9680266667</ele>
        <time>2020-10-18T07:38:54Z</time>
      </trkpt>
      <trkpt lat="44.13306" lon="6.9934">
        <ele>1915.0677533333</ele>
        <time>2020-10-18T07:38:59Z</time>
      </trkpt>
      <trkpt lat="44.13313" lon="6.99334">
        <ele>1912.7675</ele>
        <time>2020-10-18T07:39:04Z</time>
      </trkpt>
      <trkpt lat="44.1332" lon="6.99327">
        <ele>1911.3671933333</ele>
        <time>2020-10-18T07:39:11Z</time>
      </trkpt>
      <trkpt lat="44.13326" lon="6.99318">
        <ele>1909.5669533333</ele>
        <time>2020-10-18T07:39:19Z</time>
      </trkpt>
      <trkpt lat="44.13333" lon="6.99314">
        <ele>1907.2666733333</ele>
        <time>2020-10-18T07:39:26Z</time>
      </trkpt>
      <trkpt lat="44.13339" lon="6.99307">
        <ele>1905.9664266667</ele>
        <time>2020-10-18T07:39:31Z</time>
      </trkpt>
      <trkpt lat="44.13346" lon="6.99301">
        <ele>1904.76616</ele>
        <time>2020-10-18T07:39:38Z</time>
      </trkpt>
      <trkpt lat="44.13351" lon="6.99292">
        <ele>1903.7659533333</ele>
        <time>2020-10-18T07:39:44Z</time>
      </trkpt>
      <trkpt lat="44.13357" lon="6.99283">
        <ele>1900.9657333333</ele>
        <time>2020-10-18T07:39:51Z</time>
      </trkpt>
      <trkpt lat="44.13359" lon="6.99272">
        <ele>1898.0656266667</ele>
        <time>2020-10-18T07:39:59Z</time>
      </trkpt>
      <trkpt lat="44.13363" lon="6.9926">
        <ele>1894.9655</ele>
        <time>2020-10-18T07:40:09Z</time>
      </trkpt>
      <trkpt lat="44.13367" lon="6.9925">
        <ele>1892.56532</ele>
        <time>2020-10-18T07:40:17Z</time>
      </trkpt>
      <trkpt lat="44.13371" lon="6.99239">
        <ele>1890.46518</ele>
        <time>2020-10-18T07:40:26Z</time>
      </trkpt>
      <trkpt lat="44.13375" lon="6.99229">
        <ele>1888.16502</ele>
        <time>2020-10-18T07:40:33Z</time>
      </trkpt>
      <trkpt lat="44.13379" lon="6.9922">
        <ele>1885.9648533333</ele>
        <time>2020-10-18T07:40:40Z</time>
      </trkpt>
      <trkpt lat="44.13382" lon="6.99209">
        <ele>1884.3647333333</ele>
        <time>2020-10-18T07:40:48Z</time>
      </trkpt>
      <trkpt lat="44.13389" lon="6.99215">
        <ele>1884.2644533333</ele>
        <time>2020-10-18T07:41:04Z</time>
      </trkpt>
      <trkpt lat="44.13394" lon="6.99225">
        <ele>1884.0642266667</ele>
        <time>2020-10-18T07:41:11Z</time>
      </trkpt>
      <trkpt lat="44.13398" lon="6.99235">
        <ele>1883.86408</ele>
        <time>2020-10-18T07:41:17Z</time>
      </trkpt>
      <trkpt lat="44.134" lon="6.99246">
        <ele>1883.9639933333</ele>
        <time>2020-10-18T07:41:23Z</time>
      </trkpt>
      <trkpt lat="44.13402" lon="6.99235">
        <ele>1881.6639266667</ele>
        <time>2020-10-18T07:41:45Z</time>
      </trkpt>
      <trkpt lat="44.13402" lon="6.99222">
        <ele>1880.7639133333</ele>
        <time>2020-10-18T07:41:52Z</time>
      </trkpt>
      <trkpt lat="44.13403" lon="6.9921">
        <ele>1878.3638666667</ele>
        <time>2020-10-18T07:42:00Z</time>
      </trkpt>
      <trkpt lat="44.13405" lon="6.99199">
        <ele>1876.56382</ele>
        <time>2020-10-18T07:42:08Z</time>
      </trkpt>
      <trkpt lat="44.13406" lon="6.99188">
        <ele>1875.0637733333</ele>
        <time>2020-10-18T07:42:16Z</time>
      </trkpt>
      <trkpt lat="44.13408" lon="6.99177">
        <ele>1873.7636933333</ele>
        <time>2020-10-18T07:42:22Z</time>
      </trkpt>
      <trkpt lat="44.13409" lon="6.99166">
        <ele>1872.0636266667</ele>
        <time>2020-10-18T07:42:29Z</time>
      </trkpt>
      <trkpt lat="44.13411" lon="6.99154">
        <ele>1871.66356</ele>
        <time>2020-10-18T07:42:37Z</time>
      </trkpt>
      <trkpt lat="44.13413" lon="6.99142">
        <ele>1870.1634933333</ele>
        <time>2020-10-18T07:42:45Z</time>
      </trkpt>
      <trkpt lat="44.13415" lon="6.99131">
        <ele>1869.5634133333</ele>
        <time>2020-10-18T07:42:51Z</time>
      </trkpt>
      <trkpt lat="44.13415" lon="6.99119">
        <ele>1868.5634066667</ele>
        <time>2020-10-18T07:42:59Z</time>
      </trkpt>
      <trkpt lat="44.13417" lon="6.99108">
        <ele>1867.66334</ele>
        <time>2020-10-18T07:43:06Z</time>
      </trkpt>
      <trkpt lat="44.13418" lon="6.99096">
        <ele>1866.66328</ele>
        <time>2020-10-18T07:43:12Z</time>
      </trkpt>
      <trkpt lat="44.1342" lon="6.99084">
        <ele>1865.4632</ele>
        <time>2020-10-18T07:43:20Z</time>
      </trkpt>
      <trkpt lat="44.13421" lon="6.99074">
        <ele>1863.6631733333</ele>
        <time>2020-10-18T07:43:26Z</time>
      </trkpt>
      <trkpt lat="44.13421" lon="6.99062">
        <ele>1859.3631466667</ele>
        <time>2020-10-18T07:43:33Z</time>
      </trkpt>
      <trkpt lat="44.13422" lon="6.99051">
        <ele>1858.7631266667</ele>
        <time>2020-10-18T07:43:40Z</time>
      </trkpt>
      <trkpt lat="44.13426" lon="6.99041">
        <ele>1858.4629666667</ele>
        <time>2020-10-18T07:43:45Z</time>
      </trkpt>
      <trkpt lat="44.1343" lon="6.9903">
        <ele>1858.6628066667</ele>
        <time>2020-10-18T07:43:52Z</time>
      </trkpt>
      <trkpt lat="44.13432" lon="6.99018">
        <ele>1858.2627133333</ele>
        <time>2020-10-18T07:43:59Z</time>
      </trkpt>
      <trkpt lat="44.13434" lon="6.99007">
        <ele>1858.2626266667</ele>
        <time>2020-10-18T07:44:06Z</time>
      </trkpt>
      <trkpt lat="44.13436" lon="6.98996">
        <ele>1856.9625466667</ele>
        <time>2020-10-18T07:44:14Z</time>
      </trkpt>
      <trkpt lat="44.13439" lon="6.98984">
        <ele>1854.56246</ele>
        <time>2020-10-18T07:44:23Z</time>
      </trkpt>
      <trkpt lat="44.1344" lon="6.98972">
        <ele>1851.5624066667</ele>
        <time>2020-10-18T07:44:31Z</time>
      </trkpt>
      <trkpt lat="44.13443" lon="6.98961">
        <ele>1849.1622666667</ele>
        <time>2020-10-18T07:44:39Z</time>
      </trkpt>
      <trkpt lat="44.13447" lon="6.9895">
        <ele>1846.1621266667</ele>
        <time>2020-10-18T07:44:47Z</time>
      </trkpt>
      <trkpt lat="44.13452" lon="6.9894">
        <ele>1843.8619066667</ele>
        <time>2020-10-18T07:44:54Z</time>
      </trkpt>
      <trkpt lat="44.13458" lon="6.98931">
        <ele>1843.1616933333</ele>
        <time>2020-10-18T07:45:01Z</time>
      </trkpt>
      <trkpt lat="44.13461" lon="6.98921">
        <ele>1841.96158</ele>
        <time>2020-10-18T07:45:08Z</time>
      </trkpt>
      <trkpt lat="44.13463" lon="6.9891">
        <ele>1838.7615</ele>
        <time>2020-10-18T07:45:16Z</time>
      </trkpt>
      <trkpt lat="44.13463" lon="6.98898">
        <ele>1834.8614733333</ele>
        <time>2020-10-18T07:45:30Z</time>
      </trkpt>
      <trkpt lat="44.13463" lon="6.98886">
        <ele>1833.1614866667</ele>
        <time>2020-10-18T07:45:39Z</time>
      </trkpt>
      <trkpt lat="44.13465" lon="6.98874">
        <ele>1832.0614133333</ele>
        <time>2020-10-18T07:45:48Z</time>
      </trkpt>
      <trkpt lat="44.13465" lon="6.98862">
        <ele>1830.6613866667</ele>
        <time>2020-10-18T07:46:02Z</time>
      </trkpt>
      <trkpt lat="44.13469" lon="6.98852">
        <ele>1830.3612466667</ele>
        <time>2020-10-18T07:46:10Z</time>
      </trkpt>
      <trkpt lat="44.13471" lon="6.9884">
        <ele>1830.06116</ele>
        <time>2020-10-18T07:46:18Z</time>
      </trkpt>
      <trkpt lat="44.13476" lon="6.98831">
        <ele>1830.96098</ele>
        <time>2020-10-18T07:46:27Z</time>
      </trkpt>
      <trkpt lat="44.13483" lon="6.98823">
        <ele>1832.1607</ele>
        <time>2020-10-18T07:46:36Z</time>
      </trkpt>
      <trkpt lat="44.13489" lon="6.98816">
        <ele>1833.6604533333</ele>
        <time>2020-10-18T07:46:43Z</time>
      </trkpt>
      <trkpt lat="44.13492" lon="6.98806">
        <ele>1839.6603066667</ele>
        <time>2020-10-18T07:47:03Z</time>
      </trkpt>
      <trkpt lat="44.13497" lon="6.98797">
        <ele>1841.0601066667</ele>
        <time>2020-10-18T07:47:11Z</time>
      </trkpt>
      <trkpt lat="44.13502" lon="6.98786">
        <ele>1841.5599333333</ele>
        <time>2020-10-18T07:47:20Z</time>
      </trkpt>
      <trkpt lat="44.13504" lon="6.98774">
        <ele>1841.75984</ele>
        <time>2020-10-18T07:47:29Z</time>
      </trkpt>
      <trkpt lat="44.135" lon="6.98763">
        <ele>1842.9599866667</ele>
        <time>2020-10-18T07:47:43Z</time>
      </trkpt>
      <trkpt lat="44.13504" lon="6.98753">
        <ele>1843.7598533333</ele>
        <time>2020-10-18T07:47:53Z</time>
      </trkpt>
      <trkpt lat="44.13509" lon="6.98743">
        <ele>1844.15964</ele>
        <time>2020-10-18T07:48:01Z</time>
      </trkpt>
      <trkpt lat="44.13514" lon="6.98733">
        <ele>1843.35946</ele>
        <time>2020-10-18T07:48:09Z</time>
      </trkpt>
      <trkpt lat="44.13518" lon="6.98722">
        <ele>1844.1592666667</ele>
        <time>2020-10-18T07:48:17Z</time>
      </trkpt>
      <trkpt lat="44.13524" lon="6.98713">
        <ele>1844.95906</ele>
        <time>2020-10-18T07:48:24Z</time>
      </trkpt>
      <trkpt lat="44.13529" lon="6.98705">
        <ele>1844.0588533333</ele>
        <time>2020-10-18T07:48:31Z</time>
      </trkpt>
      <trkpt lat="44.13535" lon="6.98697">
        <ele>1843.85862</ele>
        <time>2020-10-18T07:48:38Z</time>
      </trkpt>
      <trkpt lat="44.1354" lon="6.98687">
        <ele>1844.65842</ele>
        <time>2020-10-18T07:48:48Z</time>
      </trkpt>
      <trkpt lat="44.13545" lon="6.98678">
        <ele>1846.3582</ele>
        <time>2020-10-18T07:48:58Z</time>
      </trkpt>
      <trkpt lat="44.1355" lon="6.98667">
        <ele>1847.658</ele>
        <time>2020-10-18T07:49:07Z</time>
      </trkpt>
      <trkpt lat="44.13557" lon="6.9866">
        <ele>1848.6577333333</ele>
        <time>2020-10-18T07:49:14Z</time>
      </trkpt>
      <trkpt lat="44.13564" lon="6.98652">
        <ele>1850.65746</ele>
        <time>2020-10-18T07:49:23Z</time>
      </trkpt>
      <trkpt lat="44.13569" lon="6.98645">
        <ele>1851.35724</ele>
        <time>2020-10-18T07:49:30Z</time>
      </trkpt>
      <trkpt lat="44.13576" lon="6.98637">
        <ele>1851.55698</ele>
        <time>2020-10-18T07:49:37Z</time>
      </trkpt>
      <trkpt lat="44.13582" lon="6.98628">
        <ele>1850.15674</ele>
        <time>2020-10-18T07:49:43Z</time>
      </trkpt>
      <trkpt lat="44.13586" lon="6.9862">
        <ele>1849.35656</ele>
        <time>2020-10-18T07:49:48Z</time>
      </trkpt>
      <trkpt lat="44.13592" lon="6.98612">
        <ele>1848.7563266667</ele>
        <time>2020-10-18T07:49:54Z</time>
      </trkpt>
      <trkpt lat="44.13597" lon="6.98605">
        <ele>1848.6561066667</ele>
        <time>2020-10-18T07:50:00Z</time>
      </trkpt>
      <trkpt lat="44.13604" lon="6.98597">
        <ele>1849.5558333333</ele>
        <time>2020-10-18T07:50:07Z</time>
      </trkpt>
      <trkpt lat="44.13611" lon="6.9859">
        <ele>1850.05556</ele>
        <time>2020-10-18T07:50:14Z</time>
      </trkpt>
      <trkpt lat="44.13615" lon="6.9858">
        <ele>1849.7554066667</ele>
        <time>2020-10-18T07:50:20Z</time>
      </trkpt>
      <trkpt lat="44.1362" lon="6.98572">
        <ele>1850.3551866667</ele>
        <time>2020-10-18T07:50:26Z</time>
      </trkpt>
      <trkpt lat="44.13625" lon="6.98562">
        <ele>1850.8550133333</ele>
        <time>2020-10-18T07:50:34Z</time>
      </trkpt>
      <trkpt lat="44.1363" lon="6.98553">
        <ele>1852.5547866667</ele>
        <time>2020-10-18T07:50:41Z</time>
      </trkpt>
      <trkpt lat="44.13637" lon="6.98545">
        <ele>1854.5545333333</ele>
        <time>2020-10-18T07:50:49Z</time>
      </trkpt>
      <trkpt lat="44.13642" lon="6.98536">
        <ele>1855.4543066667</ele>
        <time>2020-10-18T07:50:57Z</time>
      </trkpt>
      <trkpt lat="44.13647" lon="6.98526">
        <ele>1855.6541266667</ele>
        <time>2020-10-18T07:51:04Z</time>
      </trkpt>
      <trkpt lat="44.13654" lon="6.98519">
        <ele>1855.6538533333</ele>
        <time>2020-10-18T07:51:11Z</time>
      </trkpt>
      <trkpt lat="44.13661" lon="6.98512">
        <ele>1857.15358</ele>
        <time>2020-10-18T07:51:18Z</time>
      </trkpt>
      <trkpt lat="44.13667" lon="6.98507">
        <ele>1858.6533066667</ele>
        <time>2020-10-18T07:51:25Z</time>
      </trkpt>
      <trkpt lat="44.13674" lon="6.985">
        <ele>1859.8530266667</ele>
        <time>2020-10-18T07:51:32Z</time>
      </trkpt>
      <trkpt lat="44.13681" lon="6.98493">
        <ele>1860.9527466667</ele>
        <time>2020-10-18T07:51:40Z</time>
      </trkpt>
      <trkpt lat="44.13688" lon="6.98485">
        <ele>1862.3524933333</ele>
        <time>2020-10-18T07:51:50Z</time>
      </trkpt>
      <trkpt lat="44.13694" lon="6.98477">
        <ele>1864.25226</ele>
        <time>2020-10-18T07:51:57Z</time>
      </trkpt>
      <trkpt lat="44.13699" lon="6.98468">
        <ele>1864.0520466667</ele>
        <time>2020-10-18T07:52:03Z</time>
      </trkpt>
      <trkpt lat="44.13706" lon="6.98463">
        <ele>1863.95176</ele>
        <time>2020-10-18T07:52:11Z</time>
      </trkpt>
      <trkpt lat="44.13714" lon="6.98458">
        <ele>1864.85146</ele>
        <time>2020-10-18T07:52:19Z</time>
      </trkpt>
      <trkpt lat="44.13722" lon="6.98453">
        <ele>1866.2511333333</ele>
        <time>2020-10-18T07:52:28Z</time>
      </trkpt>
      <trkpt lat="44.1373" lon="6.98452">
        <ele>1867.9507866667</ele>
        <time>2020-10-18T07:52:37Z</time>
      </trkpt>
      <trkpt lat="44.13738" lon="6.98445">
        <ele>1870.55048</ele>
        <time>2020-10-18T07:52:45Z</time>
      </trkpt>
      <trkpt lat="44.13743" lon="6.98436">
        <ele>1871.05028</ele>
        <time>2020-10-18T07:52:53Z</time>
      </trkpt>
      <trkpt lat="44.1375" lon="6.98429">
        <ele>1873.5499866667</ele>
        <time>2020-10-18T07:53:06Z</time>
      </trkpt>
      <trkpt lat="44.13758" lon="6.98424">
        <ele>1874.6497</ele>
        <time>2020-10-18T07:53:13Z</time>
      </trkpt>
      <trkpt lat="44.13763" lon="6.98417">
        <ele>1875.2494666667</ele>
        <time>2020-10-18T07:53:22Z</time>
      </trkpt>
      <trkpt lat="44.1377" lon="6.98409">
        <ele>1876.74922</ele>
        <time>2020-10-18T07:53:32Z</time>
      </trkpt>
      <trkpt lat="44.13774" lon="6.98399">
        <ele>1878.3490533333</ele>
        <time>2020-10-18T07:53:41Z</time>
      </trkpt>
      <trkpt lat="44.13778" lon="6.98388">
        <ele>1880.3488866667</ele>
        <time>2020-10-18T07:53:50Z</time>
      </trkpt>
      <trkpt lat="44.13781" lon="6.98377">
        <ele>1881.1487733333</ele>
        <time>2020-10-18T07:53:59Z</time>
      </trkpt>
      <trkpt lat="44.13782" lon="6.98365">
        <ele>1882.0487133333</ele>
        <time>2020-10-18T07:54:07Z</time>
      </trkpt>
      <trkpt lat="44.13786" lon="6.98353">
        <ele>1883.3485733333</ele>
        <time>2020-10-18T07:54:16Z</time>
      </trkpt>
      <trkpt lat="44.1379" lon="6.98343">
        <ele>1885.2484066667</ele>
        <time>2020-10-18T07:54:25Z</time>
      </trkpt>
      <trkpt lat="44.13794" lon="6.98333">
        <ele>1886.44826</ele>
        <time>2020-10-18T07:54:33Z</time>
      </trkpt>
      <trkpt lat="44.13797" lon="6.98322">
        <ele>1888.04812</ele>
        <time>2020-10-18T07:54:44Z</time>
      </trkpt>
      <trkpt lat="44.13802" lon="6.98313">
        <ele>1890.44794</ele>
        <time>2020-10-18T07:54:55Z</time>
      </trkpt>
      <trkpt lat="44.13808" lon="6.98304">
        <ele>1892.0477</ele>
        <time>2020-10-18T07:55:03Z</time>
      </trkpt>
      <trkpt lat="44.13815" lon="6.98297">
        <ele>1894.34742</ele>
        <time>2020-10-18T07:55:14Z</time>
      </trkpt>
      <trkpt lat="44.13823" lon="6.98293">
        <ele>1896.5470866667</ele>
        <time>2020-10-18T07:55:24Z</time>
      </trkpt>
      <trkpt lat="44.13829" lon="6.98284">
        <ele>1897.54686</ele>
        <time>2020-10-18T07:55:33Z</time>
      </trkpt>
      <trkpt lat="44.1383" lon="6.98272">
        <ele>1898.3467866667</ele>
        <time>2020-10-18T07:55:44Z</time>
      </trkpt>
      <trkpt lat="44.13833" lon="6.98261">
        <ele>1898.7466866667</ele>
        <time>2020-10-18T07:55:54Z</time>
      </trkpt>
      <trkpt lat="44.13838" lon="6.98252">
        <ele>1901.44648</ele>
        <time>2020-10-18T07:56:05Z</time>
      </trkpt>
      <trkpt lat="44.13845" lon="6.98246">
        <ele>1902.4462</ele>
        <time>2020-10-18T07:56:15Z</time>
      </trkpt>
      <trkpt lat="44.13852" lon="6.98238">
        <ele>1904.54594</ele>
        <time>2020-10-18T07:56:24Z</time>
      </trkpt>
      <trkpt lat="44.13856" lon="6.98227">
        <ele>1905.6457533333</ele>
        <time>2020-10-18T07:56:34Z</time>
      </trkpt>
      <trkpt lat="44.13861" lon="6.98218">
        <ele>1907.44556</ele>
        <time>2020-10-18T07:56:44Z</time>
      </trkpt>
      <trkpt lat="44.1387" lon="6.98216">
        <ele>1909.84522</ele>
        <time>2020-10-18T07:56:53Z</time>
      </trkpt>
      <trkpt lat="44.13878" lon="6.98214">
        <ele>1911.3448666667</ele>
        <time>2020-10-18T07:57:01Z</time>
      </trkpt>
      <trkpt lat="44.13885" lon="6.98207">
        <ele>1913.2445933333</ele>
        <time>2020-10-18T07:57:10Z</time>
      </trkpt>
      <trkpt lat="44.1389" lon="6.98197">
        <ele>1915.1444133333</ele>
        <time>2020-10-18T07:57:18Z</time>
      </trkpt>
      <trkpt lat="44.13896" lon="6.98189">
        <ele>1917.0441733333</ele>
        <time>2020-10-18T07:57:30Z</time>
      </trkpt>
      <trkpt lat="44.139" lon="6.98178">
        <ele>1919.2439866667</ele>
        <time>2020-10-18T07:57:43Z</time>
      </trkpt>
      <trkpt lat="44.13908" lon="6.98172">
        <ele>1921.54368</ele>
        <time>2020-10-18T08:03:00Z</time>
      </trkpt>
      <trkpt lat="44.13915" lon="6.98165">
        <ele>1926.7433866667</ele>
        <time>2020-10-18T08:06:12Z</time>
      </trkpt>
      <trkpt lat="44.13923" lon="6.98159">
        <ele>1927.8430666667</ele>
        <time>2020-10-18T08:06:23Z</time>
      </trkpt>
      <trkpt lat="44.13931" lon="6.98155">
        <ele>1928.6427533333</ele>
        <time>2020-10-18T08:06:32Z</time>
      </trkpt>
      <trkpt lat="44.13938" lon="6.98148">
        <ele>1926.7424666667</ele>
        <time>2020-10-18T08:06:43Z</time>
      </trkpt>
      <trkpt lat="44.13945" lon="6.9814">
        <ele>1925.7422</ele>
        <time>2020-10-18T08:06:54Z</time>
      </trkpt>
      <trkpt lat="44.1395" lon="6.98131">
        <ele>1924.8420066667</ele>
        <time>2020-10-18T08:07:04Z</time>
      </trkpt>
      <trkpt lat="44.13957" lon="6.98123">
        <ele>1924.84174</ele>
        <time>2020-10-18T08:07:16Z</time>
      </trkpt>
      <trkpt lat="44.13962" lon="6.98115">
        <ele>1923.5415333333</ele>
        <time>2020-10-18T08:07:27Z</time>
      </trkpt>
      <trkpt lat="44.13967" lon="6.98107">
        <ele>1923.8413133333</ele>
        <time>2020-10-18T08:07:41Z</time>
      </trkpt>
      <trkpt lat="44.13975" lon="6.98106">
        <ele>1922.6410066667</ele>
        <time>2020-10-18T08:07:48Z</time>
      </trkpt>
      <trkpt lat="44.13983" lon="6.98106">
        <ele>1921.8406733333</ele>
        <time>2020-10-18T08:07:56Z</time>
      </trkpt>
      <trkpt lat="44.13991" lon="6.9811">
        <ele>1921.9403466667</ele>
        <time>2020-10-18T08:08:06Z</time>
      </trkpt>
      <trkpt lat="44.14" lon="6.98111">
        <ele>1921.5400133333</ele>
        <time>2020-10-18T08:08:14Z</time>
      </trkpt>
      <trkpt lat="44.14007" lon="6.98108">
        <ele>1920.1397066667</ele>
        <time>2020-10-18T08:08:21Z</time>
      </trkpt>
      <trkpt lat="44.14016" lon="6.98106">
        <ele>1919.6393733333</ele>
        <time>2020-10-18T08:08:35Z</time>
      </trkpt>
      <trkpt lat="44.14023" lon="6.9811">
        <ele>1920.4390733333</ele>
        <time>2020-10-18T08:08:45Z</time>
      </trkpt>
      <trkpt lat="44.14028" lon="6.98119">
        <ele>1920.3388666667</ele>
        <time>2020-10-18T08:08:53Z</time>
      </trkpt>
      <trkpt lat="44.14032" lon="6.9813">
        <ele>1919.33874</ele>
        <time>2020-10-18T08:09:05Z</time>
      </trkpt>
      <trkpt lat="44.14034" lon="6.98142">
        <ele>1923.93866</ele>
        <time>2020-10-18T08:09:15Z</time>
      </trkpt>
      <trkpt lat="44.14039" lon="6.98151">
        <ele>1929.0384266667</ele>
        <time>2020-10-18T08:09:32Z</time>
      </trkpt>
      <trkpt lat="44.1404" lon="6.98163">
        <ele>1932.9384</ele>
        <time>2020-10-18T08:09:49Z</time>
      </trkpt>
      <trkpt lat="44.14042" lon="6.98175">
        <ele>1935.2383333333</ele>
        <time>2020-10-18T08:10:07Z</time>
      </trkpt>
      <trkpt lat="44.14044" lon="6.98186">
        <ele>1938.1382266667</ele>
        <time>2020-10-18T08:10:20Z</time>
      </trkpt>
      <trkpt lat="44.14043" lon="6.98197">
        <ele>1940.6382933333</ele>
        <time>2020-10-18T08:10:31Z</time>
      </trkpt>
      <trkpt lat="44.14042" lon="6.98208">
        <ele>1944.23834</ele>
        <time>2020-10-18T08:10:42Z</time>
      </trkpt>
      <trkpt lat="44.14039" lon="6.9822">
        <ele>1946.7384466667</ele>
        <time>2020-10-18T08:10:54Z</time>
      </trkpt>
      <trkpt lat="44.14041" lon="6.98231">
        <ele>1948.13838</ele>
        <time>2020-10-18T08:11:06Z</time>
      </trkpt>
      <trkpt lat="44.14042" lon="6.98243">
        <ele>1948.1383066667</ele>
        <time>2020-10-18T08:11:20Z</time>
      </trkpt>
      <trkpt lat="44.14048" lon="6.98252">
        <ele>1950.1380866667</ele>
        <time>2020-10-18T08:11:35Z</time>
      </trkpt>
      <trkpt lat="44.14053" lon="6.98262">
        <ele>1951.8378933333</ele>
        <time>2020-10-18T08:11:48Z</time>
      </trkpt>
      <trkpt lat="44.14056" lon="6.98273">
        <ele>1953.6377466667</ele>
        <time>2020-10-18T08:12:04Z</time>
      </trkpt>
      <trkpt lat="44.14056" lon="6.98286">
        <ele>1955.0377533333</ele>
        <time>2020-10-18T08:12:21Z</time>
      </trkpt>
      <trkpt lat="44.14053" lon="6.98297">
        <ele>1956.4378866667</ele>
        <time>2020-10-18T08:12:35Z</time>
      </trkpt>
      <trkpt lat="44.14049" lon="6.98308">
        <ele>1958.4380266667</ele>
        <time>2020-10-18T08:12:46Z</time>
      </trkpt>
      <trkpt lat="44.14048" lon="6.9832">
        <ele>1960.3380933333</ele>
        <time>2020-10-18T08:12:55Z</time>
      </trkpt>
      <trkpt lat="44.14048" lon="6.98332">
        <ele>1963.4380666667</ele>
        <time>2020-10-18T08:13:11Z</time>
      </trkpt>
      <trkpt lat="44.14053" lon="6.98342">
        <ele>1965.5378733333</ele>
        <time>2020-10-18T08:13:23Z</time>
      </trkpt>
      <trkpt lat="44.14057" lon="6.98353">
        <ele>1968.2377266667</ele>
        <time>2020-10-18T08:13:39Z</time>
      </trkpt>
      <trkpt lat="44.14063" lon="6.98362">
        <ele>1970.5375</ele>
        <time>2020-10-18T08:13:53Z</time>
      </trkpt>
      <trkpt lat="44.14067" lon="6.98372">
        <ele>1974.4373133333</ele>
        <time>2020-10-18T08:14:14Z</time>
      </trkpt>
      <trkpt lat="44.14074" lon="6.9838">
        <ele>1976.1370533333</ele>
        <time>2020-10-18T08:14:26Z</time>
      </trkpt>
      <trkpt lat="44.14078" lon="6.98389">
        <ele>1978.4368666667</ele>
        <time>2020-10-18T08:14:40Z</time>
      </trkpt>
      <trkpt lat="44.14086" lon="6.98395">
        <ele>1979.63658</ele>
        <time>2020-10-18T08:14:51Z</time>
      </trkpt>
      <trkpt lat="44.14094" lon="6.98398">
        <ele>1982.7362333333</ele>
        <time>2020-10-18T08:15:10Z</time>
      </trkpt>
      <trkpt lat="44.14101" lon="6.98406">
        <ele>1985.13596</ele>
        <time>2020-10-18T08:15:24Z</time>
      </trkpt>
      <trkpt lat="44.14109" lon="6.98409">
        <ele>1987.5356333333</ele>
        <time>2020-10-18T08:15:38Z</time>
      </trkpt>
      <trkpt lat="44.14118" lon="6.9841">
        <ele>1991.6352933333</ele>
        <time>2020-10-18T08:15:59Z</time>
      </trkpt>
      <trkpt lat="44.14126" lon="6.9841">
        <ele>1993.2349666667</ele>
        <time>2020-10-18T08:16:12Z</time>
      </trkpt>
      <trkpt lat="44.14134" lon="6.98411">
        <ele>1997.23464</ele>
        <time>2020-10-18T08:16:25Z</time>
      </trkpt>
      <trkpt lat="44.14143" lon="6.98412">
        <ele>2000.8343</ele>
        <time>2020-10-18T08:16:35Z</time>
      </trkpt>
      <trkpt lat="44.14151" lon="6.98414">
        <ele>2002.9339533333</ele>
        <time>2020-10-18T08:16:45Z</time>
      </trkpt>
      <trkpt lat="44.14159" lon="6.98413">
        <ele>2003.9336333333</ele>
        <time>2020-10-18T08:16:55Z</time>
      </trkpt>
      <trkpt lat="44.14167" lon="6.98414">
        <ele>2005.8333066667</ele>
        <time>2020-10-18T08:17:06Z</time>
      </trkpt>
      <trkpt lat="44.14175" lon="6.98409">
        <ele>2006.833</ele>
        <time>2020-10-18T08:17:18Z</time>
      </trkpt>
      <trkpt lat="44.14183" lon="6.98411">
        <ele>2008.8326666667</ele>
        <time>2020-10-18T08:17:32Z</time>
      </trkpt>
      <trkpt lat="44.14192" lon="6.9841">
        <ele>2009.6323266667</ele>
        <time>2020-10-18T08:17:42Z</time>
      </trkpt>
      <trkpt lat="44.142" lon="6.98406">
        <ele>2011.5319933333</ele>
        <time>2020-10-18T08:17:56Z</time>
      </trkpt>
      <trkpt lat="44.14208" lon="6.98401">
        <ele>2013.1316666667</ele>
        <time>2020-10-18T08:18:07Z</time>
      </trkpt>
      <trkpt lat="44.14216" lon="6.984">
        <ele>2014.0313466667</ele>
        <time>2020-10-18T08:18:13Z</time>
      </trkpt>
      <trkpt lat="44.14225" lon="6.98401">
        <ele>2014.93102</ele>
        <time>2020-10-18T08:18:21Z</time>
      </trkpt>
      <trkpt lat="44.14232" lon="6.98403">
        <ele>2015.2307066667</ele>
        <time>2020-10-18T08:18:28Z</time>
      </trkpt>
      <trkpt lat="44.1424" lon="6.98408">
        <ele>2015.6303933333</ele>
        <time>2020-10-18T08:18:36Z</time>
      </trkpt>
      <trkpt lat="44.14248" lon="6.98411">
        <ele>2016.2300733333</ele>
        <time>2020-10-18T08:18:44Z</time>
      </trkpt>
      <trkpt lat="44.14256" lon="6.98416">
        <ele>2018.2297533333</ele>
        <time>2020-10-18T08:18:53Z</time>
      </trkpt>
      <trkpt lat="44.14265" lon="6.98417">
        <ele>2020.9294066667</ele>
        <time>2020-10-18T08:19:04Z</time>
      </trkpt>
      <trkpt lat="44.14274" lon="6.98419">
        <ele>2023.9290533333</ele>
        <time>2020-10-18T08:19:14Z</time>
      </trkpt>
      <trkpt lat="44.14283" lon="6.98418">
        <ele>2025.7287</ele>
        <time>2020-10-18T08:19:23Z</time>
      </trkpt>
      <trkpt lat="44.14291" lon="6.98418">
        <ele>2027.0283533333</ele>
        <time>2020-10-18T08:19:33Z</time>
      </trkpt>
      <trkpt lat="44.143" lon="6.9842">
        <ele>2028.4280066667</ele>
        <time>2020-10-18T08:19:45Z</time>
      </trkpt>
      <trkpt lat="44.14308" lon="6.98424">
        <ele>2031.52768</ele>
        <time>2020-10-18T08:19:58Z</time>
      </trkpt>
      <trkpt lat="44.14316" lon="6.98422">
        <ele>2032.6273666667</ele>
        <time>2020-10-18T08:20:09Z</time>
      </trkpt>
      <trkpt lat="44.14324" lon="6.98427">
        <ele>2034.0270466667</ele>
        <time>2020-10-18T08:20:23Z</time>
      </trkpt>
      <trkpt lat="44.14333" lon="6.98426">
        <ele>2036.9266933333</ele>
        <time>2020-10-18T08:20:40Z</time>
      </trkpt>
      <trkpt lat="44.14341" lon="6.98426">
        <ele>2039.7263533333</ele>
        <time>2020-10-18T08:20:55Z</time>
      </trkpt>
      <trkpt lat="44.1435" lon="6.98424">
        <ele>2044.5260066667</ele>
        <time>2020-10-18T08:21:17Z</time>
      </trkpt>
      <trkpt lat="44.14359" lon="6.98424">
        <ele>2048.0256533333</ele>
        <time>2020-10-18T08:21:32Z</time>
      </trkpt>
      <trkpt lat="44.14367" lon="6.9842">
        <ele>2050.92532</ele>
        <time>2020-10-18T08:21:51Z</time>
      </trkpt>
      <trkpt lat="44.14374" lon="6.98412">
        <ele>2054.32506</ele>
        <time>2020-10-18T08:22:12Z</time>
      </trkpt>
      <trkpt lat="44.1438" lon="6.98404">
        <ele>2058.6248066667</ele>
        <time>2020-10-18T08:22:37Z</time>
      </trkpt>
      <trkpt lat="44.14386" lon="6.98395">
        <ele>2060.32458</ele>
        <time>2020-10-18T08:22:56Z</time>
      </trkpt>
      <trkpt lat="44.1439" lon="6.98384">
        <ele>2062.4244</ele>
        <time>2020-10-18T08:23:12Z</time>
      </trkpt>
      <trkpt lat="44.14397" lon="6.98377">
        <ele>2067.12412</ele>
        <time>2020-10-18T08:23:37Z</time>
      </trkpt>
      <trkpt lat="44.14403" lon="6.98369">
        <ele>2070.8238666667</ele>
        <time>2020-10-18T08:24:02Z</time>
      </trkpt>
      <trkpt lat="44.1441" lon="6.98362">
        <ele>2071.8236133333</ele>
        <time>2020-10-18T08:24:15Z</time>
      </trkpt>
      <trkpt lat="44.14417" lon="6.98356">
        <ele>2074.9233066667</ele>
        <time>2020-10-18T08:24:32Z</time>
      </trkpt>
      <trkpt lat="44.14421" lon="6.98345">
        <ele>2077.6231466667</ele>
        <time>2020-10-18T08:24:49Z</time>
      </trkpt>
      <trkpt lat="44.14424" lon="6.98334">
        <ele>2081.8230466667</ele>
        <time>2020-10-18T08:25:04Z</time>
      </trkpt>
      <trkpt lat="44.1443" lon="6.98325">
        <ele>2084.2228066667</ele>
        <time>2020-10-18T08:25:18Z</time>
      </trkpt>
      <trkpt lat="44.14434" lon="6.98314">
        <ele>2084.8226333333</ele>
        <time>2020-10-18T08:25:27Z</time>
      </trkpt>
      <trkpt lat="44.14442" lon="6.98309">
        <ele>2086.0223333333</ele>
        <time>2020-10-18T08:25:40Z</time>
      </trkpt>
      <trkpt lat="44.14448" lon="6.98301">
        <ele>2087.22208</ele>
        <time>2020-10-18T08:25:50Z</time>
      </trkpt>
      <trkpt lat="44.14456" lon="6.98296">
        <ele>2088.22178</ele>
        <time>2020-10-18T08:26:00Z</time>
      </trkpt>
      <trkpt lat="44.14463" lon="6.9829">
        <ele>2089.1214666667</ele>
        <time>2020-10-18T08:26:09Z</time>
      </trkpt>
      <trkpt lat="44.14472" lon="6.98289">
        <ele>2091.0211133333</ele>
        <time>2020-10-18T08:26:20Z</time>
      </trkpt>
      <trkpt lat="44.14481" lon="6.98286">
        <ele>2093.52078</ele>
        <time>2020-10-18T08:26:30Z</time>
      </trkpt>
      <trkpt lat="44.14488" lon="6.98283">
        <ele>2096.2204666667</ele>
        <time>2020-10-18T08:26:41Z</time>
      </trkpt>
      <trkpt lat="44.14497" lon="6.9828">
        <ele>2097.9201333333</ele>
        <time>2020-10-18T08:26:50Z</time>
      </trkpt>
      <trkpt lat="44.14505" lon="6.98284">
        <ele>2101.1198066667</ele>
        <time>2020-10-18T08:27:03Z</time>
      </trkpt>
      <trkpt lat="44.14513" lon="6.98287">
        <ele>2102.41948</ele>
        <time>2020-10-18T08:27:12Z</time>
      </trkpt>
      <trkpt lat="44.14519" lon="6.98296">
        <ele>2104.01924</ele>
        <time>2020-10-18T08:27:25Z</time>
      </trkpt>
      <trkpt lat="44.14527" lon="6.98294">
        <ele>2105.2189133333</ele>
        <time>2020-10-18T08:27:36Z</time>
      </trkpt>
      <trkpt lat="44.14536" lon="6.98294">
        <ele>2107.0185733333</ele>
        <time>2020-10-18T08:27:53Z</time>
      </trkpt>
      <trkpt lat="44.14541" lon="6.98304">
        <ele>2109.1183666667</ele>
        <time>2020-10-18T08:28:06Z</time>
      </trkpt>
      <trkpt lat="44.14549" lon="6.98309">
        <ele>2105.0180466667</ele>
        <time>2020-10-18T08:28:23Z</time>
      </trkpt>
      <trkpt lat="44.14557" lon="6.98309">
        <ele>2105.91772</ele>
        <time>2020-10-18T08:28:41Z</time>
      </trkpt>
      <trkpt lat="44.14566" lon="6.98311">
        <ele>2107.0173733333</ele>
        <time>2020-10-18T08:28:55Z</time>
      </trkpt>
      <trkpt lat="44.14574" lon="6.98315">
        <ele>2107.3170533333</ele>
        <time>2020-10-18T08:29:08Z</time>
      </trkpt>
      <trkpt lat="44.1458" lon="6.9832">
        <ele>2106.6167933333</ele>
        <time>2020-10-18T08:29:26Z</time>
      </trkpt>
      <trkpt lat="44.14588" lon="6.98323">
        <ele>2110.3164733333</ele>
        <time>2020-10-18T08:29:34Z</time>
      </trkpt>
      <trkpt lat="44.14597" lon="6.98321">
        <ele>2115.6161333333</ele>
        <time>2020-10-18T08:29:48Z</time>
      </trkpt>
      <trkpt lat="44.14605" lon="6.9832">
        <ele>2123.1157866667</ele>
        <time>2020-10-18T08:30:05Z</time>
      </trkpt>
      <trkpt lat="44.14612" lon="6.98313">
        <ele>2129.5155133333</ele>
        <time>2020-10-18T08:30:17Z</time>
      </trkpt>
      <trkpt lat="44.14621" lon="6.98312">
        <ele>2130.8151666667</ele>
        <time>2020-10-18T08:30:33Z</time>
      </trkpt>
      <trkpt lat="44.14627" lon="6.98304">
        <ele>2131.5149266667</ele>
        <time>2020-10-18T08:30:45Z</time>
      </trkpt>
      <trkpt lat="44.14635" lon="6.98303">
        <ele>2132.9145866667</ele>
        <time>2020-10-18T08:30:59Z</time>
      </trkpt>
      <trkpt lat="44.14643" lon="6.98296">
        <ele>2135.7142933333</ele>
        <time>2020-10-18T08:31:14Z</time>
      </trkpt>
      <trkpt lat="44.14651" lon="6.983">
        <ele>2139.0139533333</ele>
        <time>2020-10-18T08:31:32Z</time>
      </trkpt>
      <trkpt lat="44.1466" lon="6.98301">
        <ele>2143.9136</ele>
        <time>2020-10-18T08:31:54Z</time>
      </trkpt>
      <trkpt lat="44.14668" lon="6.98295">
        <ele>2151.71328</ele>
        <time>2020-10-18T08:32:18Z</time>
      </trkpt>
      <trkpt lat="44.14677" lon="6.98296">
        <ele>2157.0129266667</ele>
        <time>2020-10-18T08:32:44Z</time>
      </trkpt>
      <trkpt lat="44.14683" lon="6.98305">
        <ele>2160.7126933333</ele>
        <time>2020-10-18T08:33:00Z</time>
      </trkpt>
      <trkpt lat="44.14689" lon="6.98313">
        <ele>2164.7124333333</ele>
        <time>2020-10-18T08:33:27Z</time>
      </trkpt>
      <trkpt lat="44.14698" lon="6.98314">
        <ele>2163.91208</ele>
        <time>2020-10-18T08:33:48Z</time>
      </trkpt>
      <trkpt lat="44.14706" lon="6.98309">
        <ele>2165.91178</ele>
        <time>2020-10-18T08:34:08Z</time>
      </trkpt>
      <trkpt lat="44.14714" lon="6.98307">
        <ele>2171.4114266667</ele>
        <time>2020-10-18T08:34:28Z</time>
      </trkpt>
      <trkpt lat="44.14723" lon="6.98312">
        <ele>2179.1111</ele>
        <time>2020-10-18T08:34:52Z</time>
      </trkpt>
      <trkpt lat="44.1473" lon="6.98309">
        <ele>2181.6107866667</ele>
        <time>2020-10-18T08:35:02Z</time>
      </trkpt>
      <trkpt lat="44.14735" lon="6.9832">
        <ele>2187.11062</ele>
        <time>2020-10-18T08:35:22Z</time>
      </trkpt>
      <trkpt lat="44.14743" lon="6.98325">
        <ele>2189.4103</ele>
        <time>2020-10-18T08:35:34Z</time>
      </trkpt>
      <trkpt lat="44.14744" lon="6.98336">
        <ele>2193.4102466667</ele>
        <time>2020-10-18T08:36:34Z</time>
      </trkpt>
      <trkpt lat="44.14745" lon="6.9833">
        <ele>2195.81022</ele>
        <time>2020-10-18T08:40:29Z</time>
      </trkpt>
      <trkpt lat="44.14738" lon="6.98324">
        <ele>2194.81048</ele>
        <time>2020-10-18T08:40:41Z</time>
      </trkpt>
      <trkpt lat="44.14743" lon="6.98333">
        <ele>2194.6102733333</ele>
        <time>2020-10-18T08:42:10Z</time>
      </trkpt>
      <trkpt lat="44.14751" lon="6.98329">
        <ele>2195.5099733333</ele>
        <time>2020-10-18T08:42:31Z</time>
      </trkpt>
      <trkpt lat="44.14759" lon="6.98328">
        <ele>2193.7096333333</ele>
        <time>2020-10-18T08:42:39Z</time>
      </trkpt>
      <trkpt lat="44.14768" lon="6.98324">
        <ele>2195.3092933333</ele>
        <time>2020-10-18T08:42:46Z</time>
      </trkpt>
      <trkpt lat="44.14774" lon="6.98329">
        <ele>2197.1090466667</ele>
        <time>2020-10-18T08:42:52Z</time>
      </trkpt>
      <trkpt lat="44.14782" lon="6.98329">
        <ele>2197.00872</ele>
        <time>2020-10-18T08:43:00Z</time>
      </trkpt>
      <trkpt lat="44.1479" lon="6.98326">
        <ele>2198.5083933333</ele>
        <time>2020-10-18T08:43:09Z</time>
      </trkpt>
      <trkpt lat="44.14798" lon="6.98321">
        <ele>2198.6080933333</ele>
        <time>2020-10-18T08:43:21Z</time>
      </trkpt>
      <trkpt lat="44.14803" lon="6.98312">
        <ele>2198.7079</ele>
        <time>2020-10-18T08:43:34Z</time>
      </trkpt>
      <trkpt lat="44.1481" lon="6.98306">
        <ele>2202.4075933333</ele>
        <time>2020-10-18T08:43:47Z</time>
      </trkpt>
      <trkpt lat="44.14817" lon="6.98299">
        <ele>2204.1073333333</ele>
        <time>2020-10-18T08:43:59Z</time>
      </trkpt>
      <trkpt lat="44.14824" lon="6.98293">
        <ele>2204.8070533333</ele>
        <time>2020-10-18T08:44:09Z</time>
      </trkpt>
      <trkpt lat="44.14831" lon="6.98286">
        <ele>2208.6067666667</ele>
        <time>2020-10-18T08:44:23Z</time>
      </trkpt>
      <trkpt lat="44.14837" lon="6.98279">
        <ele>2211.7065133333</ele>
        <time>2020-10-18T08:44:34Z</time>
      </trkpt>
      <trkpt lat="44.14845" lon="6.98274">
        <ele>2210.6061933333</ele>
        <time>2020-10-18T08:44:44Z</time>
      </trkpt>
      <trkpt lat="44.1485" lon="6.98265">
        <ele>2210.3060066667</ele>
        <time>2020-10-18T08:44:53Z</time>
      </trkpt>
      <trkpt lat="44.14857" lon="6.98257">
        <ele>2210.9057333333</ele>
        <time>2020-10-18T08:45:14Z</time>
      </trkpt>
      <trkpt lat="44.14863" lon="6.98248">
        <ele>2213.9054933333</ele>
        <time>2020-10-18T08:45:30Z</time>
      </trkpt>
      <trkpt lat="44.14863" lon="6.98236">
        <ele>2216.6054733333</ele>
        <time>2020-10-18T08:45:43Z</time>
      </trkpt>
      <trkpt lat="44.14866" lon="6.98224">
        <ele>2219.4053733333</ele>
        <time>2020-10-18T08:45:58Z</time>
      </trkpt>
      <trkpt lat="44.14869" lon="6.98214">
        <ele>2221.6052266667</ele>
        <time>2020-10-18T08:46:10Z</time>
      </trkpt>
      <trkpt lat="44.14873" lon="6.98202">
        <ele>2223.1051</ele>
        <time>2020-10-18T08:46:23Z</time>
      </trkpt>
      <trkpt lat="44.14873" lon="6.9819">
        <ele>2224.2050666667</ele>
        <time>2020-10-18T08:46:38Z</time>
      </trkpt>
      <trkpt lat="44.14878" lon="6.9818">
        <ele>2225.4048866667</ele>
        <time>2020-10-18T08:46:50Z</time>
      </trkpt>
      <trkpt lat="44.14882" lon="6.98169">
        <ele>2225.1047333333</ele>
        <time>2020-10-18T08:47:02Z</time>
      </trkpt>
      <trkpt lat="44.14887" lon="6.9816">
        <ele>2227.1045066667</ele>
        <time>2020-10-18T08:47:23Z</time>
      </trkpt>
      <trkpt lat="44.14888" lon="6.98148">
        <ele>2231.0044933333</ele>
        <time>2020-10-18T08:47:44Z</time>
      </trkpt>
      <trkpt lat="44.14893" lon="6.98138">
        <ele>2234.4043</ele>
        <time>2020-10-18T08:48:06Z</time>
      </trkpt>
      <trkpt lat="44.14894" lon="6.98126">
        <ele>2237.6042533333</ele>
        <time>2020-10-18T08:48:30Z</time>
      </trkpt>
      <trkpt lat="44.14898" lon="6.98115">
        <ele>2239.9040666667</ele>
        <time>2020-10-18T08:48:53Z</time>
      </trkpt>
      <trkpt lat="44.14903" lon="6.98105">
        <ele>2241.0039</ele>
        <time>2020-10-18T08:49:28Z</time>
      </trkpt>
      <trkpt lat="44.14907" lon="6.98095">
        <ele>2243.30374</ele>
        <time>2020-10-18T08:49:51Z</time>
      </trkpt>
      <trkpt lat="44.14912" lon="6.98086">
        <ele>2246.90354</ele>
        <time>2020-10-18T08:50:18Z</time>
      </trkpt>
      <trkpt lat="44.14915" lon="6.98074">
        <ele>2252.4034066667</ele>
        <time>2020-10-18T08:50:58Z</time>
      </trkpt>
      <trkpt lat="44.14923" lon="6.98071">
        <ele>2257.4030666667</ele>
        <time>2020-10-18T08:51:21Z</time>
      </trkpt>
      <trkpt lat="44.14932" lon="6.98068">
        <ele>2265.00272</ele>
        <time>2020-10-18T08:51:59Z</time>
      </trkpt>
      <trkpt lat="44.14941" lon="6.98066">
        <ele>2268.1023733333</ele>
        <time>2020-10-18T08:52:17Z</time>
      </trkpt>
      <trkpt lat="44.14949" lon="6.98061">
        <ele>2271.6020533333</ele>
        <time>2020-10-18T08:52:47Z</time>
      </trkpt>
      <trkpt lat="44.14957" lon="6.98055">
        <ele>2272.70174</ele>
        <time>2020-10-18T08:53:10Z</time>
      </trkpt>
      <trkpt lat="44.14964" lon="6.98051">
        <ele>2279.1014266667</ele>
        <time>2020-10-18T08:53:40Z</time>
      </trkpt>
      <trkpt lat="44.14966" lon="6.98039">
        <ele>2286.7013666667</ele>
        <time>2020-10-18T08:54:16Z</time>
      </trkpt>
      <trkpt lat="44.14975" lon="6.98038">
        <ele>2287.8010133333</ele>
        <time>2020-10-18T08:54:40Z</time>
      </trkpt>
      <trkpt lat="44.14981" lon="6.9803">
        <ele>2292.70076</ele>
        <time>2020-10-18T08:55:38Z</time>
      </trkpt>
      <trkpt lat="44.1499" lon="6.9803">
        <ele>2297.20042</ele>
        <time>2020-10-18T08:55:58Z</time>
      </trkpt>
      <trkpt lat="44.14998" lon="6.98028">
        <ele>2301.2000666667</ele>
        <time>2020-10-18T08:56:23Z</time>
      </trkpt>
      <trkpt lat="44.15006" lon="6.98027">
        <ele>2303.29976</ele>
        <time>2020-10-18T08:57:05Z</time>
      </trkpt>
      <trkpt lat="44.15014" lon="6.98032">
        <ele>2307.3994533333</ele>
        <time>2020-10-18T08:57:26Z</time>
      </trkpt>
      <trkpt lat="44.15022" lon="6.98033">
        <ele>2310.7991266667</ele>
        <time>2020-10-18T08:57:52Z</time>
      </trkpt>
      <trkpt lat="44.1503" lon="6.98031">
        <ele>2317.29882</ele>
        <time>2020-10-18T08:58:29Z</time>
      </trkpt>
      <trkpt lat="44.15029" lon="6.98043">
        <ele>2320.5988466667</ele>
        <time>2020-10-18T08:58:38Z</time>
      </trkpt>
      <trkpt lat="44.15036" lon="6.9805">
        <ele>2327.49856</ele>
        <time>2020-10-18T09:00:10Z</time>
      </trkpt>
      <trkpt lat="44.1504" lon="6.9805">
        <ele>2342.59842</ele>
        <time>2020-10-18T09:07:11Z</time>
      </trkpt>
      <trkpt lat="44.15048" lon="6.98049">
        <ele>2339.99808</ele>
        <time>2020-10-18T09:07:24Z</time>
      </trkpt>
      <trkpt lat="44.15054" lon="6.98041">
        <ele>2340.59784</ele>
        <time>2020-10-18T09:07:36Z</time>
      </trkpt>
      <trkpt lat="44.15062" lon="6.98036">
        <ele>2346.9975133333</ele>
        <time>2020-10-18T09:08:09Z</time>
      </trkpt>
      <trkpt lat="44.15071" lon="6.98035">
        <ele>2349.6971733333</ele>
        <time>2020-10-18T09:08:27Z</time>
      </trkpt>
      <trkpt lat="44.15076" lon="6.98025">
        <ele>2352.89698</ele>
        <time>2020-10-18T09:08:59Z</time>
      </trkpt>
      <trkpt lat="44.15081" lon="6.98015">
        <ele>2359.9967733333</ele>
        <time>2020-10-18T09:09:26Z</time>
      </trkpt>
      <trkpt lat="44.15088" lon="6.98008">
        <ele>2364.69648</ele>
        <time>2020-10-18T09:09:52Z</time>
      </trkpt>
      <trkpt lat="44.15097" lon="6.9801">
        <ele>2368.2961333333</ele>
        <time>2020-10-18T09:10:21Z</time>
      </trkpt>
      <trkpt lat="44.15102" lon="6.98008">
        <ele>2371.2959333333</ele>
        <time>2020-10-18T09:10:58Z</time>
      </trkpt>
      <trkpt lat="44.15104" lon="6.97996">
        <ele>2376.6958533333</ele>
        <time>2020-10-18T09:11:10Z</time>
      </trkpt>
      <trkpt lat="44.15104" lon="6.97984">
        <ele>2379.4958333333</ele>
        <time>2020-10-18T09:11:39Z</time>
      </trkpt>
      <trkpt lat="44.1511" lon="6.97975">
        <ele>2379.99562</ele>
        <time>2020-10-18T09:11:56Z</time>
      </trkpt>
      <trkpt lat="44.15115" lon="6.97969">
        <ele>2383.59542</ele>
        <time>2020-10-18T09:12:33Z</time>
      </trkpt>
      <trkpt lat="44.15123" lon="6.97965">
        <ele>2391.7951</ele>
        <time>2020-10-18T09:13:02Z</time>
      </trkpt>
      <trkpt lat="44.1513" lon="6.97957">
        <ele>2395.3948133333</ele>
        <time>2020-10-18T09:13:32Z</time>
      </trkpt>
      <trkpt lat="44.15138" lon="6.97956">
        <ele>2398.4944666667</ele>
        <time>2020-10-18T09:14:05Z</time>
      </trkpt>
      <trkpt lat="44.15144" lon="6.9795">
        <ele>2403.19426</ele>
        <time>2020-10-18T09:15:08Z</time>
      </trkpt>
      <trkpt lat="44.15152" lon="6.97946">
        <ele>2408.29392</ele>
        <time>2020-10-18T09:15:14Z</time>
      </trkpt>
      <trkpt lat="44.15161" lon="6.97948">
        <ele>2413.39358</ele>
        <time>2020-10-18T09:15:46Z</time>
      </trkpt>
      <trkpt lat="44.15169" lon="6.97951">
        <ele>2420.4932333333</ele>
        <time>2020-10-18T09:16:26Z</time>
      </trkpt>
      <trkpt lat="44.15178" lon="6.97949">
        <ele>2426.39288</ele>
        <time>2020-10-18T09:17:14Z</time>
      </trkpt>
      <trkpt lat="44.15187" lon="6.97949">
        <ele>2431.3925333333</ele>
        <time>2020-10-18T09:17:51Z</time>
      </trkpt>
      <trkpt lat="44.15196" lon="6.97949">
        <ele>2440.99218</ele>
        <time>2020-10-18T09:18:50Z</time>
      </trkpt>
      <trkpt lat="44.15204" lon="6.97947">
        <ele>2444.1918466667</ele>
        <time>2020-10-18T09:19:18Z</time>
      </trkpt>
      <trkpt lat="44.15212" lon="6.97951">
        <ele>2446.69152</ele>
        <time>2020-10-18T09:19:41Z</time>
      </trkpt>
      <trkpt lat="44.15217" lon="6.97941">
        <ele>2452.8913133333</ele>
        <time>2020-10-18T09:20:21Z</time>
      </trkpt>
      <trkpt lat="44.15224" lon="6.97934">
        <ele>2457.6910333333</ele>
        <time>2020-10-18T09:20:39Z</time>
      </trkpt>
      <trkpt lat="44.1523" lon="6.97924">
        <ele>2462.1908133333</ele>
        <time>2020-10-18T09:21:02Z</time>
      </trkpt>
      <trkpt lat="44.15235" lon="6.97915">
        <ele>2465.7905933333</ele>
        <time>2020-10-18T09:21:20Z</time>
      </trkpt>
      <trkpt lat="44.15239" lon="6.97904">
        <ele>2468.9904533333</ele>
        <time>2020-10-18T09:21:38Z</time>
      </trkpt>
      <trkpt lat="44.15246" lon="6.97898">
        <ele>2470.39016</ele>
        <time>2020-10-18T09:21:51Z</time>
      </trkpt>
      <trkpt lat="44.15254" lon="6.97892">
        <ele>2472.2898533333</ele>
        <time>2020-10-18T09:22:08Z</time>
      </trkpt>
      <trkpt lat="44.15261" lon="6.97884">
        <ele>2474.6895666667</ele>
        <time>2020-10-18T09:22:28Z</time>
      </trkpt>
      <trkpt lat="44.15267" lon="6.97876">
        <ele>2476.9893266667</ele>
        <time>2020-10-18T09:23:36Z</time>
      </trkpt>
      <trkpt lat="44.15273" lon="6.97868">
        <ele>2477.8890666667</ele>
        <time>2020-10-18T09:23:51Z</time>
      </trkpt>
      <trkpt lat="44.1528" lon="6.9786">
        <ele>2480.0888066667</ele>
        <time>2020-10-18T09:24:09Z</time>
      </trkpt>
      <trkpt lat="44.15285" lon="6.97851">
        <ele>2481.8885866667</ele>
        <time>2020-10-18T09:24:23Z</time>
      </trkpt>
      <trkpt lat="44.1529" lon="6.97845">
        <ele>2483.9884133333</ele>
        <time>2020-10-18T09:24:44Z</time>
      </trkpt>
      <trkpt lat="44.15294" lon="6.97835">
        <ele>2487.0882466667</ele>
        <time>2020-10-18T09:24:57Z</time>
      </trkpt>
      <trkpt lat="44.15298" lon="6.97824">
        <ele>2489.68808</ele>
        <time>2020-10-18T09:25:21Z</time>
      </trkpt>
      <trkpt lat="44.15303" lon="6.97814">
        <ele>2492.18788</ele>
        <time>2020-10-18T09:25:44Z</time>
      </trkpt>
      <trkpt lat="44.15309" lon="6.97805">
        <ele>2495.7876533333</ele>
        <time>2020-10-18T09:26:06Z</time>
      </trkpt>
      <trkpt lat="44.15313" lon="6.97794">
        <ele>2498.5874733333</ele>
        <time>2020-10-18T09:26:23Z</time>
      </trkpt>
      <trkpt lat="44.15319" lon="6.97785">
        <ele>2501.8872333333</ele>
        <time>2020-10-18T09:26:48Z</time>
      </trkpt>
      <trkpt lat="44.15323" lon="6.97775">
        <ele>2507.08708</ele>
        <time>2020-10-18T09:27:11Z</time>
      </trkpt>
      <trkpt lat="44.15326" lon="6.97763">
        <ele>2507.9869666667</ele>
        <time>2020-10-18T09:27:47Z</time>
      </trkpt>
      <trkpt lat="44.15333" lon="6.97755">
        <ele>2510.5866933333</ele>
        <time>2020-10-18T09:27:56Z</time>
      </trkpt>
      <trkpt lat="44.15335" lon="6.97744">
        <ele>2514.6865866667</ele>
        <time>2020-10-18T09:28:20Z</time>
      </trkpt>
      <trkpt lat="44.15339" lon="6.97733">
        <ele>2517.0864266667</ele>
        <time>2020-10-18T09:28:41Z</time>
      </trkpt>
      <trkpt lat="44.15345" lon="6.97723">
        <ele>2520.78622</ele>
        <time>2020-10-18T09:29:02Z</time>
      </trkpt>
      <trkpt lat="44.15347" lon="6.97711">
        <ele>2522.38614</ele>
        <time>2020-10-18T09:29:24Z</time>
      </trkpt>
      <trkpt lat="44.15349" lon="6.977">
        <ele>2524.88604</ele>
        <time>2020-10-18T09:29:50Z</time>
      </trkpt>
      <trkpt lat="44.15353" lon="6.97691">
        <ele>2528.3859</ele>
        <time>2020-10-18T09:30:18Z</time>
      </trkpt>
      <trkpt lat="44.15353" lon="6.97679">
        <ele>2531.2858666667</ele>
        <time>2020-10-18T09:30:36Z</time>
      </trkpt>
      <trkpt lat="44.15354" lon="6.9767">
        <ele>2534.4858466667</ele>
        <time>2020-10-18T09:31:20Z</time>
      </trkpt>
      <trkpt lat="44.15357" lon="6.97658">
        <ele>2538.18574</ele>
        <time>2020-10-18T09:31:24Z</time>
      </trkpt>
      <trkpt lat="44.15359" lon="6.9765">
        <ele>2542.6856533333</ele>
        <time>2020-10-18T09:31:52Z</time>
      </trkpt>
      <trkpt lat="44.15358" lon="6.97638">
        <ele>2546.7856666667</ele>
        <time>2020-10-18T09:32:06Z</time>
      </trkpt>
      <trkpt lat="44.1536" lon="6.97627">
        <ele>2548.7856</ele>
        <time>2020-10-18T09:32:27Z</time>
      </trkpt>
      <trkpt lat="44.15364" lon="6.97616">
        <ele>2551.6854333333</ele>
        <time>2020-10-18T09:32:50Z</time>
      </trkpt>
      <trkpt lat="44.15366" lon="6.97603">
        <ele>2553.78538</ele>
        <time>2020-10-18T09:33:11Z</time>
      </trkpt>
      <trkpt lat="44.15367" lon="6.97597">
        <ele>2556.2853133333</ele>
        <time>2020-10-18T09:33:50Z</time>
      </trkpt>
      <trkpt lat="44.15368" lon="6.97585">
        <ele>2560.1852866667</ele>
        <time>2020-10-18T09:34:02Z</time>
      </trkpt>
      <trkpt lat="44.15369" lon="6.97573">
        <ele>2563.5852533333</ele>
        <time>2020-10-18T09:34:24Z</time>
      </trkpt>
      <trkpt lat="44.15371" lon="6.97563">
        <ele>2566.9851666667</ele>
        <time>2020-10-18T09:34:59Z</time>
      </trkpt>
      <trkpt lat="44.15375" lon="6.97552">
        <ele>2568.98502</ele>
        <time>2020-10-18T09:35:20Z</time>
      </trkpt>
      <trkpt lat="44.15375" lon="6.97539">
        <ele>2572.0849933333</ele>
        <time>2020-10-18T09:35:39Z</time>
      </trkpt>
      <trkpt lat="44.15377" lon="6.97527">
        <ele>2577.9849133333</ele>
        <time>2020-10-18T09:36:44Z</time>
      </trkpt>
      <trkpt lat="44.15379" lon="6.97517">
        <ele>2581.58484</ele>
        <time>2020-10-18T09:36:54Z</time>
      </trkpt>
      <trkpt lat="44.15385" lon="6.97508">
        <ele>2583.1846133333</ele>
        <time>2020-10-18T09:37:12Z</time>
      </trkpt>
      <trkpt lat="44.15388" lon="6.97496">
        <ele>2587.0844933333</ele>
        <time>2020-10-18T09:37:44Z</time>
      </trkpt>
      <trkpt lat="44.15389" lon="6.97487">
        <ele>2593.2844533333</ele>
        <time>2020-10-18T09:38:39Z</time>
      </trkpt>
      <trkpt lat="44.15394" lon="6.97479">
        <ele>2601.78424</ele>
        <time>2020-10-18T09:39:34Z</time>
      </trkpt>
      <trkpt lat="44.15397" lon="6.9747">
        <ele>2604.38412</ele>
        <time>2020-10-18T09:39:51Z</time>
      </trkpt>
      <trkpt lat="44.15395" lon="6.97465">
        <ele>2609.3842133333</ele>
        <time>2020-10-18T09:40:44Z</time>
      </trkpt>
      <trkpt lat="44.15395" lon="6.97453">
        <ele>2616.0842133333</ele>
        <time>2020-10-18T09:41:23Z</time>
      </trkpt>
      <trkpt lat="44.15394" lon="6.97441">
        <ele>2622.88426</ele>
        <time>2020-10-18T09:42:10Z</time>
      </trkpt>
      <trkpt lat="44.15396" lon="6.97429">
        <ele>2628.3841466667</ele>
        <time>2020-10-18T09:43:18Z</time>
      </trkpt>
      <trkpt lat="44.15397" lon="6.97425">
        <ele>2629.0841333333</ele>
        <time>2020-10-18T09:44:11Z</time>
      </trkpt>
      <trkpt lat="44.15401" lon="6.97413">
        <ele>2631.88398</ele>
        <time>2020-10-18T09:44:22Z</time>
      </trkpt>
      <trkpt lat="44.154" lon="6.97406">
        <ele>2640.584</ele>
        <time>2020-10-18T09:45:58Z</time>
      </trkpt>
      <trkpt lat="44.15404" lon="6.97395">
        <ele>2645.4838533333</ele>
        <time>2020-10-18T09:46:15Z</time>
      </trkpt>
      <trkpt lat="44.154" lon="6.97384">
        <ele>2650.084</ele>
        <time>2020-10-18T09:47:00Z</time>
      </trkpt>
      <trkpt lat="44.15394" lon="6.97378">
        <ele>2655.9842533333</ele>
        <time>2020-10-18T09:47:52Z</time>
      </trkpt>
      <trkpt lat="44.15398" lon="6.97368">
        <ele>2657.8840733333</ele>
        <time>2020-10-18T09:48:35Z</time>
      </trkpt>
      <trkpt lat="44.15403" lon="6.97362">
        <ele>2660.7838666667</ele>
        <time>2020-10-18T09:50:28Z</time>
      </trkpt>
      <trkpt lat="44.15405" lon="6.97352">
        <ele>2667.4838066667</ele>
        <time>2020-10-18T09:51:33Z</time>
      </trkpt>
      <trkpt lat="44.15401" lon="6.97341">
        <ele>2678.08398</ele>
        <time>2020-10-18T09:51:38Z</time>
      </trkpt>
      <trkpt lat="44.15399" lon="6.97335">
        <ele>2687.78406</ele>
        <time>2020-10-18T09:52:56Z</time>
      </trkpt>
      <trkpt lat="44.15403" lon="6.97326">
        <ele>2690.3839</ele>
        <time>2020-10-18T09:55:04Z</time>
      </trkpt>
      <trkpt lat="44.15407" lon="6.97316">
        <ele>2699.0837133333</ele>
        <time>2020-10-18T09:56:27Z</time>
      </trkpt>
      <trkpt lat="44.15407" lon="6.97303">
        <ele>2704.7837333333</ele>
        <time>2020-10-18T09:56:32Z</time>
      </trkpt>
      <trkpt lat="44.15412" lon="6.97299">
        <ele>2706.6835133333</ele>
        <time>2020-10-18T09:57:57Z</time>
      </trkpt>
      <trkpt lat="44.15413" lon="6.97294">
        <ele>2711.88348</ele>
        <time>2020-10-18T09:58:50Z</time>
      </trkpt>
      <trkpt lat="44.1541" lon="6.97283">
        <ele>2723.4835933333</ele>
        <time>2020-10-18T10:02:57Z</time>
      </trkpt>
      <trkpt lat="44.15414" lon="6.97277">
        <ele>2728.78344</ele>
        <time>2020-10-18T10:03:48Z</time>
      </trkpt>
      <trkpt lat="44.15419" lon="6.97266">
        <ele>2734.08326</ele>
        <time>2020-10-18T10:03:56Z</time>
      </trkpt>
      <trkpt lat="44.1542" lon="6.97264">
        <ele>2734.6832066667</ele>
        <time>2020-10-18T10:04:32Z</time>
      </trkpt>
      <trkpt lat="44.15423" lon="6.97255">
        <ele>2737.6830666667</ele>
        <time>2020-10-18T10:04:44Z</time>
      </trkpt>
      <trkpt lat="44.15427" lon="6.9725">
        <ele>2738.2829066667</ele>
        <time>2020-10-18T10:05:20Z</time>
      </trkpt>
      <trkpt lat="44.15431" lon="6.97239">
        <ele>2742.7827533333</ele>
        <time>2020-10-18T10:05:42Z</time>
      </trkpt>
      <trkpt lat="44.15434" lon="6.97227">
        <ele>2748.9826533333</ele>
        <time>2020-10-18T10:06:14Z</time>
      </trkpt>
      <trkpt lat="44.15438" lon="6.97217">
        <ele>2751.48248</ele>
        <time>2020-10-18T10:07:04Z</time>
      </trkpt>
      <trkpt lat="44.1544" lon="6.97207">
        <ele>2755.0824066667</ele>
        <time>2020-10-18T10:07:40Z</time>
      </trkpt>
      <trkpt lat="44.15441" lon="6.97194">
        <ele>2757.6823533333</ele>
        <time>2020-10-18T10:08:00Z</time>
      </trkpt>
      <trkpt lat="44.15443" lon="6.97185">
        <ele>2761.8823</ele>
        <time>2020-10-18T10:20:53Z</time>
      </trkpt>
      <trkpt lat="44.15436" lon="6.97177">
        <ele>2769.3825666667</ele>
        <time>2020-10-18T11:15:44Z</time>
      </trkpt>
      <trkpt lat="44.1543" lon="6.97168">
        <ele>2762.6828133333</ele>
        <time>2020-10-18T11:15:54Z</time>
      </trkpt>
      <trkpt lat="44.15422" lon="6.97162">
        <ele>2758.5831066667</ele>
        <time>2020-10-18T11:16:06Z</time>
      </trkpt>
      <trkpt lat="44.15418" lon="6.97153">
        <ele>2756.0833</ele>
        <time>2020-10-18T11:16:16Z</time>
      </trkpt>
      <trkpt lat="44.15412" lon="6.97143">
        <ele>2753.3835066667</ele>
        <time>2020-10-18T11:16:27Z</time>
      </trkpt>
      <trkpt lat="44.15406" lon="6.97135">
        <ele>2750.0837733333</ele>
        <time>2020-10-18T11:16:38Z</time>
      </trkpt>
      <trkpt lat="44.15401" lon="6.97126">
        <ele>2747.0839733333</ele>
        <time>2020-10-18T11:16:46Z</time>
      </trkpt>
      <trkpt lat="44.15397" lon="6.97116">
        <ele>2744.8841266667</ele>
        <time>2020-10-18T11:16:57Z</time>
      </trkpt>
      <trkpt lat="44.15392" lon="6.97106">
        <ele>2742.0843066667</ele>
        <time>2020-10-18T11:17:08Z</time>
      </trkpt>
      <trkpt lat="44.15388" lon="6.97095">
        <ele>2739.48448</ele>
        <time>2020-10-18T11:17:17Z</time>
      </trkpt>
      <trkpt lat="44.15386" lon="6.97084">
        <ele>2733.8845733333</ele>
        <time>2020-10-18T11:17:32Z</time>
      </trkpt>
      <trkpt lat="44.15381" lon="6.97074">
        <ele>2731.18476</ele>
        <time>2020-10-18T11:17:40Z</time>
      </trkpt>
      <trkpt lat="44.15376" lon="6.97064">
        <ele>2728.4849666667</ele>
        <time>2020-10-18T11:17:50Z</time>
      </trkpt>
      <trkpt lat="44.15372" lon="6.97053">
        <ele>2728.3851266667</ele>
        <time>2020-10-18T11:18:00Z</time>
      </trkpt>
      <trkpt lat="44.15371" lon="6.97042">
        <ele>2728.28516</ele>
        <time>2020-10-18T11:18:14Z</time>
      </trkpt>
      <trkpt lat="44.15368" lon="6.97031">
        <ele>2726.7852733333</ele>
        <time>2020-10-18T11:18:28Z</time>
      </trkpt>
      <trkpt lat="44.15366" lon="6.9702">
        <ele>2725.2853533333</ele>
        <time>2020-10-18T11:18:40Z</time>
      </trkpt>
      <trkpt lat="44.15362" lon="6.9701">
        <ele>2722.88554</ele>
        <time>2020-10-18T11:18:51Z</time>
      </trkpt>
      <trkpt lat="44.15357" lon="6.97">
        <ele>2719.4857133333</ele>
        <time>2020-10-18T11:19:05Z</time>
      </trkpt>
      <trkpt lat="44.15355" lon="6.96988">
        <ele>2716.1857933333</ele>
        <time>2020-10-18T11:19:15Z</time>
      </trkpt>
      <trkpt lat="44.1535" lon="6.96978">
        <ele>2711.486</ele>
        <time>2020-10-18T11:19:29Z</time>
      </trkpt>
      <trkpt lat="44.15344" lon="6.9697">
        <ele>2709.2862333333</ele>
        <time>2020-10-18T11:20:02Z</time>
      </trkpt>
      <trkpt lat="44.15341" lon="6.9696">
        <ele>2708.7863733333</ele>
        <time>2020-10-18T11:20:16Z</time>
      </trkpt>
      <trkpt lat="44.15336" lon="6.96949">
        <ele>2705.9865533333</ele>
        <time>2020-10-18T11:20:26Z</time>
      </trkpt>
      <trkpt lat="44.15333" lon="6.96938">
        <ele>2701.8866666667</ele>
        <time>2020-10-18T11:20:44Z</time>
      </trkpt>
      <trkpt lat="44.15327" lon="6.96929">
        <ele>2698.5869266667</ele>
        <time>2020-10-18T11:21:00Z</time>
      </trkpt>
      <trkpt lat="44.15322" lon="6.96919">
        <ele>2697.3871266667</ele>
        <time>2020-10-18T11:21:11Z</time>
      </trkpt>
      <trkpt lat="44.15318" lon="6.96911">
        <ele>2694.8872666667</ele>
        <time>2020-10-18T11:21:52Z</time>
      </trkpt>
      <trkpt lat="44.15316" lon="6.969">
        <ele>2690.08736</ele>
        <time>2020-10-18T11:22:14Z</time>
      </trkpt>
      <trkpt lat="44.15312" lon="6.9689">
        <ele>2689.1875333333</ele>
        <time>2020-10-18T11:22:20Z</time>
      </trkpt>
      <trkpt lat="44.15308" lon="6.9688">
        <ele>2687.5877</ele>
        <time>2020-10-18T11:22:32Z</time>
      </trkpt>
      <trkpt lat="44.15307" lon="6.96868">
        <ele>2685.5877333333</ele>
        <time>2020-10-18T11:22:41Z</time>
      </trkpt>
      <trkpt lat="44.15303" lon="6.96857">
        <ele>2683.6878866667</ele>
        <time>2020-10-18T11:22:54Z</time>
      </trkpt>
      <trkpt lat="44.15298" lon="6.96848">
        <ele>2682.3881</ele>
        <time>2020-10-18T11:23:04Z</time>
      </trkpt>
      <trkpt lat="44.15294" lon="6.96838">
        <ele>2682.0882466667</ele>
        <time>2020-10-18T11:23:14Z</time>
      </trkpt>
      <trkpt lat="44.1529" lon="6.96828">
        <ele>2679.9883866667</ele>
        <time>2020-10-18T11:23:26Z</time>
      </trkpt>
      <trkpt lat="44.15286" lon="6.96817">
        <ele>2676.98856</ele>
        <time>2020-10-18T11:23:45Z</time>
      </trkpt>
      <trkpt lat="44.15283" lon="6.96806">
        <ele>2673.0886866667</ele>
        <time>2020-10-18T11:24:02Z</time>
      </trkpt>
      <trkpt lat="44.15281" lon="6.96795">
        <ele>2671.48876</ele>
        <time>2020-10-18T11:24:18Z</time>
      </trkpt>
      <trkpt lat="44.1528" lon="6.96783">
        <ele>2672.18882</ele>
        <time>2020-10-18T11:24:38Z</time>
      </trkpt>
      <trkpt lat="44.15279" lon="6.96772">
        <ele>2668.1888333333</ele>
        <time>2020-10-18T11:25:35Z</time>
      </trkpt>
      <trkpt lat="44.15278" lon="6.9676">
        <ele>2668.0888733333</ele>
        <time>2020-10-18T11:26:02Z</time>
      </trkpt>
      <trkpt lat="44.15273" lon="6.9675">
        <ele>2667.3890866667</ele>
        <time>2020-10-18T11:26:11Z</time>
      </trkpt>
      <trkpt lat="44.15271" lon="6.96739">
        <ele>2666.28916</ele>
        <time>2020-10-18T11:26:29Z</time>
      </trkpt>
      <trkpt lat="44.15267" lon="6.96729">
        <ele>2664.9893333333</ele>
        <time>2020-10-18T11:26:38Z</time>
      </trkpt>
      <trkpt lat="44.15264" lon="6.96719">
        <ele>2662.8894266667</ele>
        <time>2020-10-18T11:26:46Z</time>
      </trkpt>
      <trkpt lat="44.15262" lon="6.96708">
        <ele>2660.28954</ele>
        <time>2020-10-18T11:26:54Z</time>
      </trkpt>
      <trkpt lat="44.1526" lon="6.96696">
        <ele>2658.68962</ele>
        <time>2020-10-18T11:27:02Z</time>
      </trkpt>
      <trkpt lat="44.15254" lon="6.96688">
        <ele>2655.28986</ele>
        <time>2020-10-18T11:27:14Z</time>
      </trkpt>
      <trkpt lat="44.15251" lon="6.96676">
        <ele>2652.9899666667</ele>
        <time>2020-10-18T11:27:26Z</time>
      </trkpt>
      <trkpt lat="44.15247" lon="6.96667">
        <ele>2651.89014</ele>
        <time>2020-10-18T11:27:32Z</time>
      </trkpt>
      <trkpt lat="44.15241" lon="6.96658">
        <ele>2649.8903466667</ele>
        <time>2020-10-18T11:27:40Z</time>
      </trkpt>
      <trkpt lat="44.15236" lon="6.96649">
        <ele>2648.6905533333</ele>
        <time>2020-10-18T11:27:47Z</time>
      </trkpt>
      <trkpt lat="44.15233" lon="6.96638">
        <ele>2647.7906866667</ele>
        <time>2020-10-18T11:27:56Z</time>
      </trkpt>
      <trkpt lat="44.1523" lon="6.96627">
        <ele>2645.39082</ele>
        <time>2020-10-18T11:28:11Z</time>
      </trkpt>
      <trkpt lat="44.15224" lon="6.96618">
        <ele>2644.29104</ele>
        <time>2020-10-18T11:28:23Z</time>
      </trkpt>
      <trkpt lat="44.1522" lon="6.96607">
        <ele>2643.3911933333</ele>
        <time>2020-10-18T11:28:32Z</time>
      </trkpt>
      <trkpt lat="44.15217" lon="6.96596">
        <ele>2642.4913133333</ele>
        <time>2020-10-18T11:28:50Z</time>
      </trkpt>
      <trkpt lat="44.15214" lon="6.96585">
        <ele>2644.4914533333</ele>
        <time>2020-10-18T11:29:02Z</time>
      </trkpt>
      <trkpt lat="44.1521" lon="6.96574">
        <ele>2647.2915866667</ele>
        <time>2020-10-18T11:29:21Z</time>
      </trkpt>
      <trkpt lat="44.15205" lon="6.96566">
        <ele>2646.6918066667</ele>
        <time>2020-10-18T11:29:38Z</time>
      </trkpt>
      <trkpt lat="44.15199" lon="6.96556">
        <ele>2647.6920333333</ele>
        <time>2020-10-18T11:29:51Z</time>
      </trkpt>
      <trkpt lat="44.15196" lon="6.96544">
        <ele>2646.69216</ele>
        <time>2020-10-18T11:30:19Z</time>
      </trkpt>
      <trkpt lat="44.1519" lon="6.96537">
        <ele>2646.09242</ele>
        <time>2020-10-18T11:30:35Z</time>
      </trkpt>
      <trkpt lat="44.15184" lon="6.96528">
        <ele>2646.19264</ele>
        <time>2020-10-18T11:30:45Z</time>
      </trkpt>
      <trkpt lat="44.15181" lon="6.96517">
        <ele>2646.39278</ele>
        <time>2020-10-18T11:30:54Z</time>
      </trkpt>
      <trkpt lat="44.15177" lon="6.96506">
        <ele>2648.0929066667</ele>
        <time>2020-10-18T11:31:04Z</time>
      </trkpt>
      <trkpt lat="44.15176" lon="6.96495">
        <ele>2649.4929733333</ele>
        <time>2020-10-18T11:31:15Z</time>
      </trkpt>
      <trkpt lat="44.15172" lon="6.96484">
        <ele>2649.7931266667</ele>
        <time>2020-10-18T11:31:25Z</time>
      </trkpt>
      <trkpt lat="44.15171" lon="6.96472">
        <ele>2650.1931666667</ele>
        <time>2020-10-18T11:31:34Z</time>
      </trkpt>
      <trkpt lat="44.15168" lon="6.96462">
        <ele>2650.0932666667</ele>
        <time>2020-10-18T11:31:43Z</time>
      </trkpt>
      <trkpt lat="44.15163" lon="6.96452">
        <ele>2649.3934733333</ele>
        <time>2020-10-18T11:31:53Z</time>
      </trkpt>
      <trkpt lat="44.15158" lon="6.96443">
        <ele>2648.7936866667</ele>
        <time>2020-10-18T11:32:04Z</time>
      </trkpt>
      <trkpt lat="44.15154" lon="6.96432">
        <ele>2649.7938466667</ele>
        <time>2020-10-18T11:32:14Z</time>
      </trkpt>
      <trkpt lat="44.1515" lon="6.96422">
        <ele>2650.4940133333</ele>
        <time>2020-10-18T11:32:23Z</time>
      </trkpt>
      <trkpt lat="44.15146" lon="6.96412">
        <ele>2650.69416</ele>
        <time>2020-10-18T11:32:31Z</time>
      </trkpt>
      <trkpt lat="44.15143" lon="6.96402">
        <ele>2651.69428</ele>
        <time>2020-10-18T11:32:38Z</time>
      </trkpt>
      <trkpt lat="44.15139" lon="6.96392">
        <ele>2653.89444</ele>
        <time>2020-10-18T11:32:47Z</time>
      </trkpt>
      <trkpt lat="44.15134" lon="6.96382">
        <ele>2654.0946466667</ele>
        <time>2020-10-18T11:32:55Z</time>
      </trkpt>
      <trkpt lat="44.15129" lon="6.96372">
        <ele>2653.7948533333</ele>
        <time>2020-10-18T11:33:04Z</time>
      </trkpt>
      <trkpt lat="44.15123" lon="6.96363">
        <ele>2653.9950933333</ele>
        <time>2020-10-18T11:33:14Z</time>
      </trkpt>
      <trkpt lat="44.15117" lon="6.96355">
        <ele>2654.4953133333</ele>
        <time>2020-10-18T11:33:23Z</time>
      </trkpt>
      <trkpt lat="44.15113" lon="6.96345">
        <ele>2655.3955</ele>
        <time>2020-10-18T11:33:32Z</time>
      </trkpt>
      <trkpt lat="44.15109" lon="6.96334">
        <ele>2657.4956266667</ele>
        <time>2020-10-18T11:33:42Z</time>
      </trkpt>
      <trkpt lat="44.15106" lon="6.96323">
        <ele>2661.1957666667</ele>
        <time>2020-10-18T11:34:06Z</time>
      </trkpt>
      <trkpt lat="44.15102" lon="6.96313">
        <ele>2659.7959266667</ele>
        <time>2020-10-18T11:37:43Z</time>
      </trkpt>
      <trkpt lat="44.15095" lon="6.96306">
        <ele>2660.7961866667</ele>
        <time>2020-10-18T11:37:54Z</time>
      </trkpt>
      <trkpt lat="44.15089" lon="6.96299">
        <ele>2662.1964533333</ele>
        <time>2020-10-18T11:38:03Z</time>
      </trkpt>
      <trkpt lat="44.15084" lon="6.96289">
        <ele>2664.7966533333</ele>
        <time>2020-10-18T11:38:14Z</time>
      </trkpt>
      <trkpt lat="44.15078" lon="6.96281">
        <ele>2666.7968733333</ele>
        <time>2020-10-18T11:38:25Z</time>
      </trkpt>
      <trkpt lat="44.15073" lon="6.96272">
        <ele>2668.2970866667</ele>
        <time>2020-10-18T11:38:36Z</time>
      </trkpt>
      <trkpt lat="44.15067" lon="6.96263">
        <ele>2671.19732</ele>
        <time>2020-10-18T11:38:50Z</time>
      </trkpt>
      <trkpt lat="44.15062" lon="6.96253">
        <ele>2673.39754</ele>
        <time>2020-10-18T11:39:03Z</time>
      </trkpt>
      <trkpt lat="44.15057" lon="6.96242">
        <ele>2676.4977133333</ele>
        <time>2020-10-18T11:39:17Z</time>
      </trkpt>
      <trkpt lat="44.15049" lon="6.96239">
        <ele>2679.0980533333</ele>
        <time>2020-10-18T11:39:29Z</time>
      </trkpt>
      <trkpt lat="44.15043" lon="6.96232">
        <ele>2679.9982933333</ele>
        <time>2020-10-18T11:39:39Z</time>
      </trkpt>
      <trkpt lat="44.15037" lon="6.96223">
        <ele>2680.5985066667</ele>
        <time>2020-10-18T11:39:49Z</time>
      </trkpt>
      <trkpt lat="44.1503" lon="6.96217">
        <ele>2680.9988</ele>
        <time>2020-10-18T11:40:01Z</time>
      </trkpt>
      <trkpt lat="44.15026" lon="6.96206">
        <ele>2681.69896</ele>
        <time>2020-10-18T11:40:13Z</time>
      </trkpt>
      <trkpt lat="44.15022" lon="6.96196">
        <ele>2681.6991133333</ele>
        <time>2020-10-18T11:40:21Z</time>
      </trkpt>
      <trkpt lat="44.15021" lon="6.96185">
        <ele>2680.89916</ele>
        <time>2020-10-18T11:40:29Z</time>
      </trkpt>
      <trkpt lat="44.15018" lon="6.96174">
        <ele>2680.7992933333</ele>
        <time>2020-10-18T11:40:37Z</time>
      </trkpt>
      <trkpt lat="44.15014" lon="6.96164">
        <ele>2679.9994533333</ele>
        <time>2020-10-18T11:40:45Z</time>
      </trkpt>
      <trkpt lat="44.15009" lon="6.96153">
        <ele>2678.7996266667</ele>
        <time>2020-10-18T11:40:52Z</time>
      </trkpt>
      <trkpt lat="44.15006" lon="6.96143">
        <ele>2678.0997466667</ele>
        <time>2020-10-18T11:41:00Z</time>
      </trkpt>
      <trkpt lat="44.15006" lon="6.9613">
        <ele>2678.19976</ele>
        <time>2020-10-18T11:41:08Z</time>
      </trkpt>
      <trkpt lat="44.15004" lon="6.96119">
        <ele>2678.39986</ele>
        <time>2020-10-18T11:41:16Z</time>
      </trkpt>
      <trkpt lat="44.15002" lon="6.96108">
        <ele>2678.09992</ele>
        <time>2020-10-18T11:41:23Z</time>
      </trkpt>
      <trkpt lat="44.15" lon="6.96096">
        <ele>2676.9000133333</ele>
        <time>2020-10-18T11:41:31Z</time>
      </trkpt>
      <trkpt lat="44.14997" lon="6.96086">
        <ele>2675.6001333333</ele>
        <time>2020-10-18T11:41:38Z</time>
      </trkpt>
      <trkpt lat="44.14994" lon="6.96074">
        <ele>2674.10024</ele>
        <time>2020-10-18T11:41:46Z</time>
      </trkpt>
      <trkpt lat="44.14991" lon="6.96063">
        <ele>2674.0003733333</ele>
        <time>2020-10-18T11:41:54Z</time>
      </trkpt>
      <trkpt lat="44.14988" lon="6.96051">
        <ele>2673.7004933333</ele>
        <time>2020-10-18T11:42:02Z</time>
      </trkpt>
      <trkpt lat="44.14986" lon="6.96039">
        <ele>2673.7005533333</ele>
        <time>2020-10-18T11:42:09Z</time>
      </trkpt>
      <trkpt lat="44.14983" lon="6.96028">
        <ele>2673.4006666667</ele>
        <time>2020-10-18T11:42:16Z</time>
      </trkpt>
      <trkpt lat="44.14981" lon="6.96018">
        <ele>2673.70078</ele>
        <time>2020-10-18T11:42:23Z</time>
      </trkpt>
      <trkpt lat="44.14979" lon="6.96006">
        <ele>2672.70084</ele>
        <time>2020-10-18T11:42:32Z</time>
      </trkpt>
      <trkpt lat="44.14976" lon="6.95996">
        <ele>2671.70098</ele>
        <time>2020-10-18T11:42:39Z</time>
      </trkpt>
      <trkpt lat="44.14973" lon="6.95985">
        <ele>2670.8010666667</ele>
        <time>2020-10-18T11:42:46Z</time>
      </trkpt>
      <trkpt lat="44.14971" lon="6.95975">
        <ele>2670.2011533333</ele>
        <time>2020-10-18T11:42:52Z</time>
      </trkpt>
      <trkpt lat="44.14968" lon="6.95963">
        <ele>2669.6012666667</ele>
        <time>2020-10-18T11:42:59Z</time>
      </trkpt>
      <trkpt lat="44.14966" lon="6.95951">
        <ele>2669.9013666667</ele>
        <time>2020-10-18T11:43:06Z</time>
      </trkpt>
      <trkpt lat="44.14963" lon="6.95941">
        <ele>2669.4014733333</ele>
        <time>2020-10-18T11:43:12Z</time>
      </trkpt>
      <trkpt lat="44.1496" lon="6.95931">
        <ele>2668.8016</ele>
        <time>2020-10-18T11:43:18Z</time>
      </trkpt>
      <trkpt lat="44.14956" lon="6.95921">
        <ele>2666.7017733333</ele>
        <time>2020-10-18T11:43:25Z</time>
      </trkpt>
      <trkpt lat="44.14953" lon="6.95909">
        <ele>2665.1018733333</ele>
        <time>2020-10-18T11:43:32Z</time>
      </trkpt>
      <trkpt lat="44.14945" lon="6.95909">
        <ele>2662.7022133333</ele>
        <time>2020-10-18T11:43:39Z</time>
      </trkpt>
      <trkpt lat="44.14939" lon="6.959">
        <ele>2660.20244</ele>
        <time>2020-10-18T11:43:46Z</time>
      </trkpt>
      <trkpt lat="44.14933" lon="6.95892">
        <ele>2657.6027</ele>
        <time>2020-10-18T11:43:55Z</time>
      </trkpt>
      <trkpt lat="44.14927" lon="6.95884">
        <ele>2654.3029333333</ele>
        <time>2020-10-18T11:44:03Z</time>
      </trkpt>
      <trkpt lat="44.14921" lon="6.95876">
        <ele>2652.90318</ele>
        <time>2020-10-18T11:44:09Z</time>
      </trkpt>
      <trkpt lat="44.14917" lon="6.95866">
        <ele>2651.5033333333</ele>
        <time>2020-10-18T11:44:17Z</time>
      </trkpt>
      <trkpt lat="44.14911" lon="6.95857">
        <ele>2650.2035666667</ele>
        <time>2020-10-18T11:44:24Z</time>
      </trkpt>
      <trkpt lat="44.14906" lon="6.95847">
        <ele>2648.40378</ele>
        <time>2020-10-18T11:44:32Z</time>
      </trkpt>
      <trkpt lat="44.14899" lon="6.95839">
        <ele>2646.6040333333</ele>
        <time>2020-10-18T11:44:39Z</time>
      </trkpt>
      <trkpt lat="44.14892" lon="6.95833">
        <ele>2645.5043333333</ele>
        <time>2020-10-18T11:44:47Z</time>
      </trkpt>
      <trkpt lat="44.14886" lon="6.95823">
        <ele>2643.00456</ele>
        <time>2020-10-18T11:44:55Z</time>
      </trkpt>
      <trkpt lat="44.14889" lon="6.95812">
        <ele>2638.7044533333</ele>
        <time>2020-10-18T11:45:09Z</time>
      </trkpt>
      <trkpt lat="44.14893" lon="6.95801">
        <ele>2634.9043</ele>
        <time>2020-10-18T11:45:28Z</time>
      </trkpt>
      <trkpt lat="44.14891" lon="6.95789">
        <ele>2629.8043533333</ele>
        <time>2020-10-18T11:45:53Z</time>
      </trkpt>
      <trkpt lat="44.1489" lon="6.95777">
        <ele>2628.4044066667</ele>
        <time>2020-10-18T11:46:14Z</time>
      </trkpt>
      <trkpt lat="44.1489" lon="6.95765">
        <ele>2624.5044133333</ele>
        <time>2020-10-18T11:46:32Z</time>
      </trkpt>
      <trkpt lat="44.1489" lon="6.95753">
        <ele>2620.8044133333</ele>
        <time>2020-10-18T11:46:47Z</time>
      </trkpt>
      <trkpt lat="44.14888" lon="6.95741">
        <ele>2616.8044666667</ele>
        <time>2020-10-18T11:46:58Z</time>
      </trkpt>
      <trkpt lat="44.14885" lon="6.9573">
        <ele>2613.9046</ele>
        <time>2020-10-18T11:47:07Z</time>
      </trkpt>
      <trkpt lat="44.14883" lon="6.95719">
        <ele>2611.0047</ele>
        <time>2020-10-18T11:47:15Z</time>
      </trkpt>
      <trkpt lat="44.1488" lon="6.95708">
        <ele>2608.70482</ele>
        <time>2020-10-18T11:47:24Z</time>
      </trkpt>
      <trkpt lat="44.14873" lon="6.95702">
        <ele>2605.80508</ele>
        <time>2020-10-18T11:47:32Z</time>
      </trkpt>
      <trkpt lat="44.14875" lon="6.9569">
        <ele>2602.8050066667</ele>
        <time>2020-10-18T11:47:39Z</time>
      </trkpt>
      <trkpt lat="44.14876" lon="6.95679">
        <ele>2600.80496</ele>
        <time>2020-10-18T11:47:45Z</time>
      </trkpt>
      <trkpt lat="44.14878" lon="6.95669">
        <ele>2599.40488</ele>
        <time>2020-10-18T11:47:50Z</time>
      </trkpt>
      <trkpt lat="44.14881" lon="6.95659">
        <ele>2598.2047733333</ele>
        <time>2020-10-18T11:47:56Z</time>
      </trkpt>
      <trkpt lat="44.14882" lon="6.95647">
        <ele>2598.3047266667</ele>
        <time>2020-10-18T11:48:02Z</time>
      </trkpt>
      <trkpt lat="44.14879" lon="6.95637">
        <ele>2597.10484</ele>
        <time>2020-10-18T11:48:08Z</time>
      </trkpt>
      <trkpt lat="44.14878" lon="6.95625">
        <ele>2595.5048866667</ele>
        <time>2020-10-18T11:48:14Z</time>
      </trkpt>
      <trkpt lat="44.14875" lon="6.95615">
        <ele>2593.405</ele>
        <time>2020-10-18T11:48:21Z</time>
      </trkpt>
      <trkpt lat="44.14872" lon="6.95603">
        <ele>2594.80514</ele>
        <time>2020-10-18T11:48:29Z</time>
      </trkpt>
      <trkpt lat="44.14867" lon="6.95593">
        <ele>2595.60534</ele>
        <time>2020-10-18T11:48:37Z</time>
      </trkpt>
      <trkpt lat="44.14862" lon="6.95585">
        <ele>2596.20554</ele>
        <time>2020-10-18T11:48:43Z</time>
      </trkpt>
      <trkpt lat="44.14856" lon="6.95575">
        <ele>2596.2057466667</ele>
        <time>2020-10-18T11:48:51Z</time>
      </trkpt>
      <trkpt lat="44.14851" lon="6.95567">
        <ele>2595.6059666667</ele>
        <time>2020-10-18T11:48:59Z</time>
      </trkpt>
      <trkpt lat="44.14844" lon="6.95559">
        <ele>2595.60624</ele>
        <time>2020-10-18T11:49:06Z</time>
      </trkpt>
      <trkpt lat="44.14838" lon="6.9555">
        <ele>2597.8064733333</ele>
        <time>2020-10-18T11:49:15Z</time>
      </trkpt>
      <trkpt lat="44.14833" lon="6.9554">
        <ele>2598.8066666667</ele>
        <time>2020-10-18T11:49:24Z</time>
      </trkpt>
      <trkpt lat="44.14829" lon="6.9553">
        <ele>2597.9068533333</ele>
        <time>2020-10-18T11:49:33Z</time>
      </trkpt>
      <trkpt lat="44.14825" lon="6.95519">
        <ele>2598.6069933333</ele>
        <time>2020-10-18T11:49:41Z</time>
      </trkpt>
      <trkpt lat="44.14822" lon="6.95509">
        <ele>2599.7071266667</ele>
        <time>2020-10-18T11:49:49Z</time>
      </trkpt>
      <trkpt lat="44.14819" lon="6.95499">
        <ele>2601.9072266667</ele>
        <time>2020-10-18T11:49:59Z</time>
      </trkpt>
      <trkpt lat="44.14818" lon="6.95488">
        <ele>2602.9073</ele>
        <time>2020-10-18T11:50:06Z</time>
      </trkpt>
      <trkpt lat="44.14815" lon="6.95476">
        <ele>2602.5074066667</ele>
        <time>2020-10-18T11:50:15Z</time>
      </trkpt>
      <trkpt lat="44.14812" lon="6.95465">
        <ele>2601.9075133333</ele>
        <time>2020-10-18T11:50:23Z</time>
      </trkpt>
      <trkpt lat="44.1481" lon="6.95454">
        <ele>2601.9075933333</ele>
        <time>2020-10-18T11:50:31Z</time>
      </trkpt>
      <trkpt lat="44.14808" lon="6.95442">
        <ele>2600.5076733333</ele>
        <time>2020-10-18T11:50:38Z</time>
      </trkpt>
      <trkpt lat="44.14804" lon="6.95433">
        <ele>2599.80786</ele>
        <time>2020-10-18T11:50:45Z</time>
      </trkpt>
      <trkpt lat="44.14798" lon="6.95426">
        <ele>2599.6081</ele>
        <time>2020-10-18T11:50:52Z</time>
      </trkpt>
      <trkpt lat="44.14791" lon="6.95419">
        <ele>2598.7083466667</ele>
        <time>2020-10-18T11:50:59Z</time>
      </trkpt>
      <trkpt lat="44.14785" lon="6.95411">
        <ele>2596.1085933333</ele>
        <time>2020-10-18T11:51:07Z</time>
      </trkpt>
      <trkpt lat="44.1478" lon="6.95401">
        <ele>2593.6088133333</ele>
        <time>2020-10-18T11:51:18Z</time>
      </trkpt>
      <trkpt lat="44.14772" lon="6.95397">
        <ele>2591.1091266667</ele>
        <time>2020-10-18T11:51:29Z</time>
      </trkpt>
      <trkpt lat="44.14765" lon="6.9539">
        <ele>2586.6094</ele>
        <time>2020-10-18T11:51:43Z</time>
      </trkpt>
      <trkpt lat="44.14757" lon="6.9539">
        <ele>2583.4097333333</ele>
        <time>2020-10-18T11:51:53Z</time>
      </trkpt>
      <trkpt lat="44.14749" lon="6.95384">
        <ele>2579.9100333333</ele>
        <time>2020-10-18T11:52:10Z</time>
      </trkpt>
      <trkpt lat="44.14741" lon="6.9538">
        <ele>2577.9103533333</ele>
        <time>2020-10-18T11:52:23Z</time>
      </trkpt>
      <trkpt lat="44.14733" lon="6.95378">
        <ele>2575.01068</ele>
        <time>2020-10-18T11:52:34Z</time>
      </trkpt>
      <trkpt lat="44.14725" lon="6.95373">
        <ele>2571.1110133333</ele>
        <time>2020-10-18T11:52:50Z</time>
      </trkpt>
      <trkpt lat="44.14717" lon="6.9537">
        <ele>2568.1113333333</ele>
        <time>2020-10-18T11:53:00Z</time>
      </trkpt>
      <trkpt lat="44.14708" lon="6.95366">
        <ele>2565.4116666667</ele>
        <time>2020-10-18T11:53:10Z</time>
      </trkpt>
      <trkpt lat="44.14701" lon="6.95362">
        <ele>2563.01198</ele>
        <time>2020-10-18T11:53:20Z</time>
      </trkpt>
      <trkpt lat="44.14693" lon="6.95358">
        <ele>2559.7122933333</ele>
        <time>2020-10-18T11:53:32Z</time>
      </trkpt>
      <trkpt lat="44.14685" lon="6.95356">
        <ele>2557.5126133333</ele>
        <time>2020-10-18T11:53:44Z</time>
      </trkpt>
      <trkpt lat="44.14677" lon="6.95353">
        <ele>2555.31294</ele>
        <time>2020-10-18T11:53:52Z</time>
      </trkpt>
      <trkpt lat="44.14669" lon="6.9535">
        <ele>2553.5132533333</ele>
        <time>2020-10-18T11:53:59Z</time>
      </trkpt>
      <trkpt lat="44.14662" lon="6.95343">
        <ele>2552.6135266667</ele>
        <time>2020-10-18T11:54:07Z</time>
      </trkpt>
      <trkpt lat="44.14654" lon="6.95339">
        <ele>2552.1138266667</ele>
        <time>2020-10-18T11:54:14Z</time>
      </trkpt>
      <trkpt lat="44.14646" lon="6.95337">
        <ele>2551.2141733333</ele>
        <time>2020-10-18T11:54:23Z</time>
      </trkpt>
      <trkpt lat="44.14639" lon="6.95345">
        <ele>2549.01444</ele>
        <time>2020-10-18T11:54:32Z</time>
      </trkpt>
      <trkpt lat="44.14631" lon="6.95342">
        <ele>2547.1147466667</ele>
        <time>2020-10-18T11:54:39Z</time>
      </trkpt>
      <trkpt lat="44.14623" lon="6.95343">
        <ele>2543.1150933333</ele>
        <time>2020-10-18T11:54:52Z</time>
      </trkpt>
      <trkpt lat="44.14614" lon="6.95343">
        <ele>2541.3154266667</ele>
        <time>2020-10-18T11:55:00Z</time>
      </trkpt>
      <trkpt lat="44.14607" lon="6.9534">
        <ele>2539.2157266667</ele>
        <time>2020-10-18T11:55:07Z</time>
      </trkpt>
      <trkpt lat="44.14599" lon="6.95338">
        <ele>2537.4160466667</ele>
        <time>2020-10-18T11:55:16Z</time>
      </trkpt>
      <trkpt lat="44.14591" lon="6.9534">
        <ele>2536.2163733333</ele>
        <time>2020-10-18T11:55:24Z</time>
      </trkpt>
      <trkpt lat="44.14583" lon="6.95339">
        <ele>2534.0167</ele>
        <time>2020-10-18T11:55:32Z</time>
      </trkpt>
      <trkpt lat="44.14575" lon="6.95338">
        <ele>2532.61702</ele>
        <time>2020-10-18T11:55:38Z</time>
      </trkpt>
      <trkpt lat="44.14566" lon="6.95338">
        <ele>2530.8173666667</ele>
        <time>2020-10-18T11:55:44Z</time>
      </trkpt>
      <trkpt lat="44.14558" lon="6.95338">
        <ele>2529.0176933333</ele>
        <time>2020-10-18T11:55:51Z</time>
      </trkpt>
      <trkpt lat="44.14549" lon="6.95336">
        <ele>2526.71804</ele>
        <time>2020-10-18T11:56:00Z</time>
      </trkpt>
      <trkpt lat="44.14541" lon="6.95338">
        <ele>2524.6183733333</ele>
        <time>2020-10-18T11:56:07Z</time>
      </trkpt>
      <trkpt lat="44.14532" lon="6.95339">
        <ele>2522.71872</ele>
        <time>2020-10-18T11:56:15Z</time>
      </trkpt>
      <trkpt lat="44.14524" lon="6.95337">
        <ele>2521.4190333333</ele>
        <time>2020-10-18T11:56:22Z</time>
      </trkpt>
      <trkpt lat="44.14516" lon="6.95337">
        <ele>2522.01936</ele>
        <time>2020-10-18T11:56:30Z</time>
      </trkpt>
      <trkpt lat="44.14508" lon="6.95342">
        <ele>2521.21968</ele>
        <time>2020-10-18T11:56:38Z</time>
      </trkpt>
      <trkpt lat="44.145" lon="6.95343">
        <ele>2519.3200133333</ele>
        <time>2020-10-18T11:56:47Z</time>
      </trkpt>
      <trkpt lat="44.14491" lon="6.95345">
        <ele>2518.6203666667</ele>
        <time>2020-10-18T11:56:55Z</time>
      </trkpt>
      <trkpt lat="44.14482" lon="6.95346">
        <ele>2517.2207133333</ele>
        <time>2020-10-18T11:57:04Z</time>
      </trkpt>
      <trkpt lat="44.14474" lon="6.95348">
        <ele>2515.4210266667</ele>
        <time>2020-10-18T11:57:11Z</time>
      </trkpt>
      <trkpt lat="44.14466" lon="6.95348">
        <ele>2513.72138</ele>
        <time>2020-10-18T11:57:19Z</time>
      </trkpt>
      <trkpt lat="44.14457" lon="6.95351">
        <ele>2511.6217133333</ele>
        <time>2020-10-18T11:57:29Z</time>
      </trkpt>
      <trkpt lat="44.14449" lon="6.95354">
        <ele>2510.12204</ele>
        <time>2020-10-18T11:57:37Z</time>
      </trkpt>
      <trkpt lat="44.1444" lon="6.95353">
        <ele>2507.8223866667</ele>
        <time>2020-10-18T11:57:44Z</time>
      </trkpt>
      <trkpt lat="44.14433" lon="6.95355">
        <ele>2506.5227</ele>
        <time>2020-10-18T11:57:51Z</time>
      </trkpt>
      <trkpt lat="44.14425" lon="6.95359">
        <ele>2503.72302</ele>
        <time>2020-10-18T11:58:00Z</time>
      </trkpt>
      <trkpt lat="44.14417" lon="6.95363">
        <ele>2501.3233266667</ele>
        <time>2020-10-18T11:58:09Z</time>
      </trkpt>
      <trkpt lat="44.14409" lon="6.95368">
        <ele>2497.4236333333</ele>
        <time>2020-10-18T11:58:20Z</time>
      </trkpt>
      <trkpt lat="44.14404" lon="6.95377">
        <ele>2494.1238333333</ele>
        <time>2020-10-18T11:58:30Z</time>
      </trkpt>
      <trkpt lat="44.14396" lon="6.95381">
        <ele>2491.7241533333</ele>
        <time>2020-10-18T11:58:38Z</time>
      </trkpt>
      <trkpt lat="44.14388" lon="6.95384">
        <ele>2490.1244666667</ele>
        <time>2020-10-18T11:58:44Z</time>
      </trkpt>
      <trkpt lat="44.14382" lon="6.95391">
        <ele>2488.1247066667</ele>
        <time>2020-10-18T11:58:51Z</time>
      </trkpt>
      <trkpt lat="44.14378" lon="6.95401">
        <ele>2485.72488</ele>
        <time>2020-10-18T11:59:03Z</time>
      </trkpt>
      <trkpt lat="44.14371" lon="6.95406">
        <ele>2483.52518</ele>
        <time>2020-10-18T11:59:12Z</time>
      </trkpt>
      <trkpt lat="44.14362" lon="6.95411">
        <ele>2481.1255066667</ele>
        <time>2020-10-18T11:59:20Z</time>
      </trkpt>
      <trkpt lat="44.14356" lon="6.95417">
        <ele>2478.32576</ele>
        <time>2020-10-18T11:59:27Z</time>
      </trkpt>
      <trkpt lat="44.14348" lon="6.95421">
        <ele>2476.8260733333</ele>
        <time>2020-10-18T11:59:33Z</time>
      </trkpt>
      <trkpt lat="44.14341" lon="6.95425">
        <ele>2476.0263466667</ele>
        <time>2020-10-18T11:59:38Z</time>
      </trkpt>
      <trkpt lat="44.14333" lon="6.95429">
        <ele>2474.72668</ele>
        <time>2020-10-18T11:59:44Z</time>
      </trkpt>
      <trkpt lat="44.14326" lon="6.95432">
        <ele>2473.02698</ele>
        <time>2020-10-18T11:59:49Z</time>
      </trkpt>
      <trkpt lat="44.14318" lon="6.95438">
        <ele>2470.52728</ele>
        <time>2020-10-18T11:59:56Z</time>
      </trkpt>
      <trkpt lat="44.14312" lon="6.95446">
        <ele>2468.32754</ele>
        <time>2020-10-18T12:00:03Z</time>
      </trkpt>
      <trkpt lat="44.14305" lon="6.95454">
        <ele>2464.5277866667</ele>
        <time>2020-10-18T12:00:14Z</time>
      </trkpt>
      <trkpt lat="44.14299" lon="6.95463">
        <ele>2462.0280266667</ele>
        <time>2020-10-18T12:00:22Z</time>
      </trkpt>
      <trkpt lat="44.14293" lon="6.9547">
        <ele>2460.0283</ele>
        <time>2020-10-18T12:00:29Z</time>
      </trkpt>
      <trkpt lat="44.14286" lon="6.95476">
        <ele>2458.0285733333</ele>
        <time>2020-10-18T12:00:36Z</time>
      </trkpt>
      <trkpt lat="44.14283" lon="6.95487">
        <ele>2455.8286933333</ele>
        <time>2020-10-18T12:00:44Z</time>
      </trkpt>
      <trkpt lat="44.14277" lon="6.95495">
        <ele>2453.4289333333</ele>
        <time>2020-10-18T12:00:50Z</time>
      </trkpt>
      <trkpt lat="44.14271" lon="6.95505">
        <ele>2450.4291466667</ele>
        <time>2020-10-18T12:01:01Z</time>
      </trkpt>
      <trkpt lat="44.14266" lon="6.95514">
        <ele>2449.2293733333</ele>
        <time>2020-10-18T12:03:48Z</time>
      </trkpt>
      <trkpt lat="44.14261" lon="6.95524">
        <ele>2448.0295533333</ele>
        <time>2020-10-18T12:03:56Z</time>
      </trkpt>
      <trkpt lat="44.14256" lon="6.95534">
        <ele>2445.6297533333</ele>
        <time>2020-10-18T12:04:05Z</time>
      </trkpt>
      <trkpt lat="44.1425" lon="6.95542">
        <ele>2444.63</ele>
        <time>2020-10-18T12:04:13Z</time>
      </trkpt>
      <trkpt lat="44.14244" lon="6.9555">
        <ele>2442.13024</ele>
        <time>2020-10-18T12:04:22Z</time>
      </trkpt>
      <trkpt lat="44.1424" lon="6.9556">
        <ele>2440.8303866667</ele>
        <time>2020-10-18T12:04:31Z</time>
      </trkpt>
      <trkpt lat="44.14237" lon="6.95571">
        <ele>2439.13054</ele>
        <time>2020-10-18T12:04:42Z</time>
      </trkpt>
      <trkpt lat="44.14232" lon="6.9558">
        <ele>2437.0307333333</ele>
        <time>2020-10-18T12:04:53Z</time>
      </trkpt>
      <trkpt lat="44.14228" lon="6.9559">
        <ele>2434.0309</ele>
        <time>2020-10-18T12:05:02Z</time>
      </trkpt>
      <trkpt lat="44.14224" lon="6.95601">
        <ele>2431.73104</ele>
        <time>2020-10-18T12:05:10Z</time>
      </trkpt>
      <trkpt lat="44.14218" lon="6.95609">
        <ele>2428.6312733333</ele>
        <time>2020-10-18T12:05:19Z</time>
      </trkpt>
      <trkpt lat="44.14213" lon="6.95619">
        <ele>2425.93148</ele>
        <time>2020-10-18T12:05:27Z</time>
      </trkpt>
      <trkpt lat="44.14208" lon="6.95628">
        <ele>2424.1317</ele>
        <time>2020-10-18T12:05:36Z</time>
      </trkpt>
      <trkpt lat="44.14203" lon="6.95638">
        <ele>2422.7318733333</ele>
        <time>2020-10-18T12:05:44Z</time>
      </trkpt>
      <trkpt lat="44.14198" lon="6.95646">
        <ele>2421.0321</ele>
        <time>2020-10-18T12:05:51Z</time>
      </trkpt>
      <trkpt lat="44.14193" lon="6.95656">
        <ele>2420.23228</ele>
        <time>2020-10-18T12:06:00Z</time>
      </trkpt>
      <trkpt lat="44.14187" lon="6.95664">
        <ele>2418.0325133333</ele>
        <time>2020-10-18T12:06:09Z</time>
      </trkpt>
      <trkpt lat="44.14183" lon="6.95675">
        <ele>2413.93268</ele>
        <time>2020-10-18T12:06:19Z</time>
      </trkpt>
      <trkpt lat="44.14178" lon="6.95685">
        <ele>2412.2328866667</ele>
        <time>2020-10-18T12:06:27Z</time>
      </trkpt>
      <trkpt lat="44.14171" lon="6.95692">
        <ele>2409.5331466667</ele>
        <time>2020-10-18T12:06:36Z</time>
      </trkpt>
      <trkpt lat="44.14166" lon="6.957">
        <ele>2408.8333533333</ele>
        <time>2020-10-18T12:06:43Z</time>
      </trkpt>
      <trkpt lat="44.14163" lon="6.9571">
        <ele>2407.9335</ele>
        <time>2020-10-18T12:06:51Z</time>
      </trkpt>
      <trkpt lat="44.1416" lon="6.95722">
        <ele>2406.2336</ele>
        <time>2020-10-18T12:06:59Z</time>
      </trkpt>
      <trkpt lat="44.14155" lon="6.95732">
        <ele>2404.1338066667</ele>
        <time>2020-10-18T12:07:05Z</time>
      </trkpt>
      <trkpt lat="44.1415" lon="6.95742">
        <ele>2401.8340066667</ele>
        <time>2020-10-18T12:07:12Z</time>
      </trkpt>
      <trkpt lat="44.14146" lon="6.95751">
        <ele>2399.93418</ele>
        <time>2020-10-18T12:07:17Z</time>
      </trkpt>
      <trkpt lat="44.14141" lon="6.95761">
        <ele>2397.9343666667</ele>
        <time>2020-10-18T12:07:24Z</time>
      </trkpt>
      <trkpt lat="44.14136" lon="6.95771">
        <ele>2397.1345466667</ele>
        <time>2020-10-18T12:07:30Z</time>
      </trkpt>
      <trkpt lat="44.14132" lon="6.95781">
        <ele>2396.1347266667</ele>
        <time>2020-10-18T12:07:36Z</time>
      </trkpt>
      <trkpt lat="44.14129" lon="6.95792">
        <ele>2394.83486</ele>
        <time>2020-10-18T12:07:43Z</time>
      </trkpt>
      <trkpt lat="44.14124" lon="6.95802">
        <ele>2393.6350533333</ele>
        <time>2020-10-18T12:07:49Z</time>
      </trkpt>
      <trkpt lat="44.14119" lon="6.95811">
        <ele>2392.9352466667</ele>
        <time>2020-10-18T12:07:55Z</time>
      </trkpt>
      <trkpt lat="44.14114" lon="6.95819">
        <ele>2392.33546</ele>
        <time>2020-10-18T12:08:00Z</time>
      </trkpt>
      <trkpt lat="44.14108" lon="6.95826">
        <ele>2392.1356733333</ele>
        <time>2020-10-18T12:08:05Z</time>
      </trkpt>
      <trkpt lat="44.14102" lon="6.95835">
        <ele>2393.1359066667</ele>
        <time>2020-10-18T12:08:10Z</time>
      </trkpt>
      <trkpt lat="44.14099" lon="6.95846">
        <ele>2392.6360333333</ele>
        <time>2020-10-18T12:08:16Z</time>
      </trkpt>
      <trkpt lat="44.14095" lon="6.95857">
        <ele>2391.6362133333</ele>
        <time>2020-10-18T12:08:22Z</time>
      </trkpt>
      <trkpt lat="44.14088" lon="6.95865">
        <ele>2390.6364733333</ele>
        <time>2020-10-18T12:08:29Z</time>
      </trkpt>
      <trkpt lat="44.14083" lon="6.95873">
        <ele>2390.0367</ele>
        <time>2020-10-18T12:08:36Z</time>
      </trkpt>
      <trkpt lat="44.14078" lon="6.95881">
        <ele>2389.4368866667</ele>
        <time>2020-10-18T12:08:42Z</time>
      </trkpt>
      <trkpt lat="44.14075" lon="6.95892">
        <ele>2389.33702</ele>
        <time>2020-10-18T12:08:48Z</time>
      </trkpt>
      <trkpt lat="44.14071" lon="6.95902">
        <ele>2388.5371466667</ele>
        <time>2020-10-18T12:08:54Z</time>
      </trkpt>
      <trkpt lat="44.14067" lon="6.95912">
        <ele>2390.0373066667</ele>
        <time>2020-10-18T12:09:01Z</time>
      </trkpt>
      <trkpt lat="44.14062" lon="6.95921">
        <ele>2391.2375333333</ele>
        <time>2020-10-18T12:09:08Z</time>
      </trkpt>
      <trkpt lat="44.14056" lon="6.9593">
        <ele>2391.33778</ele>
        <time>2020-10-18T12:09:15Z</time>
      </trkpt>
      <trkpt lat="44.14052" lon="6.9594">
        <ele>2390.9379333333</ele>
        <time>2020-10-18T12:09:22Z</time>
      </trkpt>
      <trkpt lat="44.14047" lon="6.95949">
        <ele>2391.43814</ele>
        <time>2020-10-18T12:09:28Z</time>
      </trkpt>
      <trkpt lat="44.14041" lon="6.95956">
        <ele>2392.4383666667</ele>
        <time>2020-10-18T12:09:34Z</time>
      </trkpt>
      <trkpt lat="44.14034" lon="6.95963">
        <ele>2391.73866</ele>
        <time>2020-10-18T12:09:42Z</time>
      </trkpt>
      <trkpt lat="44.1403" lon="6.95974">
        <ele>2389.9388066667</ele>
        <time>2020-10-18T12:09:50Z</time>
      </trkpt>
      <trkpt lat="44.14027" lon="6.95985">
        <ele>2389.6389333333</ele>
        <time>2020-10-18T12:09:57Z</time>
      </trkpt>
      <trkpt lat="44.14023" lon="6.95997">
        <ele>2389.9390666667</ele>
        <time>2020-10-18T12:10:04Z</time>
      </trkpt>
      <trkpt lat="44.14021" lon="6.96007">
        <ele>2390.2391466667</ele>
        <time>2020-10-18T12:10:11Z</time>
      </trkpt>
      <trkpt lat="44.14017" lon="6.96016">
        <ele>2391.0393266667</ele>
        <time>2020-10-18T12:10:17Z</time>
      </trkpt>
      <trkpt lat="44.14012" lon="6.96025">
        <ele>2391.43952</ele>
        <time>2020-10-18T12:10:24Z</time>
      </trkpt>
      <trkpt lat="44.14009" lon="6.96034">
        <ele>2391.83966</ele>
        <time>2020-10-18T12:10:30Z</time>
      </trkpt>
      <trkpt lat="44.14004" lon="6.96045">
        <ele>2390.9398266667</ele>
        <time>2020-10-18T12:10:37Z</time>
      </trkpt>
      <trkpt lat="44.14002" lon="6.96056">
        <ele>2390.43992</ele>
        <time>2020-10-18T12:10:45Z</time>
      </trkpt>
      <trkpt lat="44.13998" lon="6.96067">
        <ele>2390.1400666667</ele>
        <time>2020-10-18T12:10:53Z</time>
      </trkpt>
      <trkpt lat="44.13995" lon="6.96076">
        <ele>2389.54022</ele>
        <time>2020-10-18T12:11:00Z</time>
      </trkpt>
      <trkpt lat="44.13989" lon="6.96086">
        <ele>2389.74044</ele>
        <time>2020-10-18T12:11:07Z</time>
      </trkpt>
      <trkpt lat="44.13986" lon="6.96096">
        <ele>2390.54058</ele>
        <time>2020-10-18T12:11:14Z</time>
      </trkpt>
      <trkpt lat="44.13982" lon="6.96107">
        <ele>2390.4407266667</ele>
        <time>2020-10-18T12:11:21Z</time>
      </trkpt>
      <trkpt lat="44.13977" lon="6.96117">
        <ele>2390.04092</ele>
        <time>2020-10-18T12:11:28Z</time>
      </trkpt>
      <trkpt lat="44.13972" lon="6.96127">
        <ele>2390.7411133333</ele>
        <time>2020-10-18T12:11:36Z</time>
      </trkpt>
      <trkpt lat="44.1397" lon="6.96138">
        <ele>2390.3412066667</ele>
        <time>2020-10-18T12:11:43Z</time>
      </trkpt>
      <trkpt lat="44.13966" lon="6.9615">
        <ele>2389.9413466667</ele>
        <time>2020-10-18T12:11:51Z</time>
      </trkpt>
      <trkpt lat="44.13962" lon="6.9616">
        <ele>2388.94152</ele>
        <time>2020-10-18T12:11:58Z</time>
      </trkpt>
      <trkpt lat="44.13958" lon="6.9617">
        <ele>2388.8416666667</ele>
        <time>2020-10-18T12:12:05Z</time>
      </trkpt>
      <trkpt lat="44.13954" lon="6.96179">
        <ele>2389.1418266667</ele>
        <time>2020-10-18T12:12:11Z</time>
      </trkpt>
      <trkpt lat="44.1395" lon="6.96189">
        <ele>2389.1419866667</ele>
        <time>2020-10-18T12:12:18Z</time>
      </trkpt>
      <trkpt lat="44.13948" lon="6.96201">
        <ele>2389.2420666667</ele>
        <time>2020-10-18T12:12:26Z</time>
      </trkpt>
      <trkpt lat="44.13945" lon="6.96211">
        <ele>2389.8422133333</ele>
        <time>2020-10-18T12:12:33Z</time>
      </trkpt>
      <trkpt lat="44.1394" lon="6.9622">
        <ele>2390.7424066667</ele>
        <time>2020-10-18T12:12:40Z</time>
      </trkpt>
      <trkpt lat="44.13937" lon="6.96231">
        <ele>2389.84254</ele>
        <time>2020-10-18T12:12:48Z</time>
      </trkpt>
      <trkpt lat="44.13933" lon="6.96242">
        <ele>2390.2426866667</ele>
        <time>2020-10-18T12:12:57Z</time>
      </trkpt>
      <trkpt lat="44.1393" lon="6.96252">
        <ele>2391.0427866667</ele>
        <time>2020-10-18T12:13:04Z</time>
      </trkpt>
      <trkpt lat="44.13928" lon="6.96263">
        <ele>2391.9428866667</ele>
        <time>2020-10-18T12:13:11Z</time>
      </trkpt>
      <trkpt lat="44.13925" lon="6.96274">
        <ele>2392.14302</ele>
        <time>2020-10-18T12:13:19Z</time>
      </trkpt>
      <trkpt lat="44.13918" lon="6.96281">
        <ele>2391.6432866667</ele>
        <time>2020-10-18T12:13:27Z</time>
      </trkpt>
      <trkpt lat="44.13914" lon="6.96292">
        <ele>2391.8434333333</ele>
        <time>2020-10-18T12:13:35Z</time>
      </trkpt>
      <trkpt lat="44.13913" lon="6.96304">
        <ele>2390.8434733333</ele>
        <time>2020-10-18T12:13:43Z</time>
      </trkpt>
      <trkpt lat="44.1391" lon="6.96315">
        <ele>2390.6436133333</ele>
        <time>2020-10-18T12:13:51Z</time>
      </trkpt>
      <trkpt lat="44.13903" lon="6.96322">
        <ele>2390.44388</ele>
        <time>2020-10-18T12:13:59Z</time>
      </trkpt>
      <trkpt lat="44.13898" lon="6.96331">
        <ele>2391.5440733333</ele>
        <time>2020-10-18T12:14:07Z</time>
      </trkpt>
      <trkpt lat="44.13895" lon="6.96343">
        <ele>2393.3442</ele>
        <time>2020-10-18T12:14:15Z</time>
      </trkpt>
      <trkpt lat="44.1389" lon="6.96352">
        <ele>2394.1443866667</ele>
        <time>2020-10-18T12:14:22Z</time>
      </trkpt>
      <trkpt lat="44.13885" lon="6.96363">
        <ele>2394.0445866667</ele>
        <time>2020-10-18T12:14:30Z</time>
      </trkpt>
      <trkpt lat="44.13882" lon="6.96373">
        <ele>2394.0447333333</ele>
        <time>2020-10-18T12:14:36Z</time>
      </trkpt>
      <trkpt lat="44.13877" lon="6.96383">
        <ele>2393.3449066667</ele>
        <time>2020-10-18T12:14:44Z</time>
      </trkpt>
      <trkpt lat="44.13873" lon="6.96393">
        <ele>2392.7450666667</ele>
        <time>2020-10-18T12:14:51Z</time>
      </trkpt>
      <trkpt lat="44.13871" lon="6.96404">
        <ele>2392.4451533333</ele>
        <time>2020-10-18T12:14:58Z</time>
      </trkpt>
      <trkpt lat="44.13868" lon="6.96414">
        <ele>2392.14528</ele>
        <time>2020-10-18T12:15:05Z</time>
      </trkpt>
      <trkpt lat="44.13866" lon="6.96425">
        <ele>2391.34536</ele>
        <time>2020-10-18T12:15:11Z</time>
      </trkpt>
      <trkpt lat="44.13865" lon="6.96436">
        <ele>2391.14542</ele>
        <time>2020-10-18T12:15:18Z</time>
      </trkpt>
      <trkpt lat="44.13859" lon="6.96444">
        <ele>2390.9456466667</ele>
        <time>2020-10-18T12:15:26Z</time>
      </trkpt>
      <trkpt lat="44.13853" lon="6.96451">
        <ele>2390.6458866667</ele>
        <time>2020-10-18T12:17:04Z</time>
      </trkpt>
      <trkpt lat="44.13851" lon="6.96463">
        <ele>2391.8459533333</ele>
        <time>2020-10-18T12:19:39Z</time>
      </trkpt>
      <trkpt lat="44.13848" lon="6.96475">
        <ele>2391.8461</ele>
        <time>2020-10-18T12:19:50Z</time>
      </trkpt>
      <trkpt lat="44.13845" lon="6.96486">
        <ele>2391.6461933333</ele>
        <time>2020-10-18T12:19:59Z</time>
      </trkpt>
      <trkpt lat="44.13841" lon="6.96497">
        <ele>2391.44638</ele>
        <time>2020-10-18T12:20:08Z</time>
      </trkpt>
      <trkpt lat="44.13835" lon="6.96506">
        <ele>2391.1466</ele>
        <time>2020-10-18T12:20:17Z</time>
      </trkpt>
      <trkpt lat="44.13833" lon="6.96517">
        <ele>2390.8466933333</ele>
        <time>2020-10-18T12:20:24Z</time>
      </trkpt>
      <trkpt lat="44.13828" lon="6.96526">
        <ele>2391.24688</ele>
        <time>2020-10-18T12:20:32Z</time>
      </trkpt>
      <trkpt lat="44.13822" lon="6.96536">
        <ele>2390.1471066667</ele>
        <time>2020-10-18T12:20:40Z</time>
      </trkpt>
      <trkpt lat="44.13822" lon="6.96548">
        <ele>2388.0471133333</ele>
        <time>2020-10-18T12:20:49Z</time>
      </trkpt>
      <trkpt lat="44.13824" lon="6.96559">
        <ele>2387.5470266667</ele>
        <time>2020-10-18T12:20:57Z</time>
      </trkpt>
      <trkpt lat="44.13822" lon="6.96571">
        <ele>2387.5471333333</ele>
        <time>2020-10-18T12:21:05Z</time>
      </trkpt>
      <trkpt lat="44.13819" lon="6.96582">
        <ele>2386.74726</ele>
        <time>2020-10-18T12:21:18Z</time>
      </trkpt>
      <trkpt lat="44.13813" lon="6.9659">
        <ele>2386.2474666667</ele>
        <time>2020-10-18T12:21:25Z</time>
      </trkpt>
      <trkpt lat="44.13808" lon="6.966">
        <ele>2386.0476733333</ele>
        <time>2020-10-18T12:21:35Z</time>
      </trkpt>
      <trkpt lat="44.13806" lon="6.96611">
        <ele>2385.3477533333</ele>
        <time>2020-10-18T12:21:43Z</time>
      </trkpt>
      <trkpt lat="44.13804" lon="6.96623">
        <ele>2385.0478533333</ele>
        <time>2020-10-18T12:21:50Z</time>
      </trkpt>
      <trkpt lat="44.138" lon="6.96633">
        <ele>2385.0479866667</ele>
        <time>2020-10-18T12:21:56Z</time>
      </trkpt>
      <trkpt lat="44.13796" lon="6.96644">
        <ele>2383.54818</ele>
        <time>2020-10-18T12:22:04Z</time>
      </trkpt>
      <trkpt lat="44.13793" lon="6.96655">
        <ele>2382.7482666667</ele>
        <time>2020-10-18T12:22:12Z</time>
      </trkpt>
      <trkpt lat="44.13791" lon="6.96667">
        <ele>2383.6483666667</ele>
        <time>2020-10-18T12:22:20Z</time>
      </trkpt>
      <trkpt lat="44.13786" lon="6.96677">
        <ele>2383.1485466667</ele>
        <time>2020-10-18T12:22:27Z</time>
      </trkpt>
      <trkpt lat="44.13779" lon="6.96683">
        <ele>2380.6488533333</ele>
        <time>2020-10-18T12:22:40Z</time>
      </trkpt>
      <trkpt lat="44.13771" lon="6.96688">
        <ele>2378.64916</ele>
        <time>2020-10-18T12:22:52Z</time>
      </trkpt>
      <trkpt lat="44.13765" lon="6.96695">
        <ele>2376.54942</ele>
        <time>2020-10-18T12:23:02Z</time>
      </trkpt>
      <trkpt lat="44.13759" lon="6.96703">
        <ele>2375.2496266667</ele>
        <time>2020-10-18T12:23:10Z</time>
      </trkpt>
      <trkpt lat="44.13759" lon="6.96714">
        <ele>2372.94966</ele>
        <time>2020-10-18T12:23:16Z</time>
      </trkpt>
      <trkpt lat="44.13759" lon="6.96725">
        <ele>2370.4496333333</ele>
        <time>2020-10-18T12:23:23Z</time>
      </trkpt>
      <trkpt lat="44.1376" lon="6.96737">
        <ele>2367.74962</ele>
        <time>2020-10-18T12:23:30Z</time>
      </trkpt>
      <trkpt lat="44.1376" lon="6.96749">
        <ele>2366.9496066667</ele>
        <time>2020-10-18T12:23:38Z</time>
      </trkpt>
      <trkpt lat="44.13758" lon="6.9676">
        <ele>2366.34968</ele>
        <time>2020-10-18T12:23:44Z</time>
      </trkpt>
      <trkpt lat="44.13759" lon="6.96771">
        <ele>2366.2496266667</ele>
        <time>2020-10-18T12:23:50Z</time>
      </trkpt>
      <trkpt lat="44.13761" lon="6.96784">
        <ele>2365.64958</ele>
        <time>2020-10-18T12:23:56Z</time>
      </trkpt>
      <trkpt lat="44.13759" lon="6.96795">
        <ele>2366.04964</ele>
        <time>2020-10-18T12:24:03Z</time>
      </trkpt>
      <trkpt lat="44.13758" lon="6.96804">
        <ele>2364.94968</ele>
        <time>2020-10-18T12:25:02Z</time>
      </trkpt>
      <trkpt lat="44.13756" lon="6.96816">
        <ele>2363.54976</ele>
        <time>2020-10-18T12:25:11Z</time>
      </trkpt>
      <trkpt lat="44.13753" lon="6.96826">
        <ele>2363.54988</ele>
        <time>2020-10-18T12:25:20Z</time>
      </trkpt>
      <trkpt lat="44.13749" lon="6.96836">
        <ele>2363.5500466667</ele>
        <time>2020-10-18T12:25:27Z</time>
      </trkpt>
      <trkpt lat="44.13744" lon="6.96845">
        <ele>2362.55024</ele>
        <time>2020-10-18T12:25:34Z</time>
      </trkpt>
      <trkpt lat="44.13742" lon="6.96856">
        <ele>2361.2503333333</ele>
        <time>2020-10-18T12:25:41Z</time>
      </trkpt>
      <trkpt lat="44.13739" lon="6.96866">
        <ele>2360.8504533333</ele>
        <time>2020-10-18T12:25:50Z</time>
      </trkpt>
      <trkpt lat="44.13736" lon="6.96877">
        <ele>2359.9505533333</ele>
        <time>2020-10-18T12:25:57Z</time>
      </trkpt>
      <trkpt lat="44.1373" lon="6.96886">
        <ele>2357.7508</ele>
        <time>2020-10-18T12:26:04Z</time>
      </trkpt>
      <trkpt lat="44.13726" lon="6.96897">
        <ele>2356.7509533333</ele>
        <time>2020-10-18T12:26:11Z</time>
      </trkpt>
      <trkpt lat="44.13723" lon="6.96907">
        <ele>2356.2510933333</ele>
        <time>2020-10-18T12:26:16Z</time>
      </trkpt>
      <trkpt lat="44.13721" lon="6.96919">
        <ele>2354.1511533333</ele>
        <time>2020-10-18T12:26:23Z</time>
      </trkpt>
      <trkpt lat="44.13721" lon="6.9693">
        <ele>2353.3511533333</ele>
        <time>2020-10-18T12:26:30Z</time>
      </trkpt>
      <trkpt lat="44.1372" lon="6.96942">
        <ele>2353.0512</ele>
        <time>2020-10-18T12:26:38Z</time>
      </trkpt>
      <trkpt lat="44.13717" lon="6.96953">
        <ele>2355.35132</ele>
        <time>2020-10-18T12:26:50Z</time>
      </trkpt>
      <trkpt lat="44.13719" lon="6.96965">
        <ele>2354.65126</ele>
        <time>2020-10-18T12:26:59Z</time>
      </trkpt>
      <trkpt lat="44.13719" lon="6.96977">
        <ele>2352.6512466667</ele>
        <time>2020-10-18T12:27:08Z</time>
      </trkpt>
      <trkpt lat="44.13718" lon="6.96989">
        <ele>2350.7512866667</ele>
        <time>2020-10-18T12:27:17Z</time>
      </trkpt>
      <trkpt lat="44.13715" lon="6.97001">
        <ele>2350.4514133333</ele>
        <time>2020-10-18T12:27:27Z</time>
      </trkpt>
      <trkpt lat="44.13711" lon="6.9701">
        <ele>2347.2515733333</ele>
        <time>2020-10-18T12:27:36Z</time>
      </trkpt>
      <trkpt lat="44.13703" lon="6.97016">
        <ele>2343.7518933333</ele>
        <time>2020-10-18T12:27:47Z</time>
      </trkpt>
      <trkpt lat="44.13697" lon="6.97025">
        <ele>2342.1521133333</ele>
        <time>2020-10-18T12:27:56Z</time>
      </trkpt>
      <trkpt lat="44.13691" lon="6.97032">
        <ele>2341.5523666667</ele>
        <time>2020-10-18T12:28:05Z</time>
      </trkpt>
      <trkpt lat="44.13684" lon="6.97038">
        <ele>2338.4526466667</ele>
        <time>2020-10-18T12:28:13Z</time>
      </trkpt>
      <trkpt lat="44.13676" lon="6.97044">
        <ele>2336.8529533333</ele>
        <time>2020-10-18T12:28:23Z</time>
      </trkpt>
      <trkpt lat="44.13668" lon="6.97048">
        <ele>2333.45328</ele>
        <time>2020-10-18T12:28:37Z</time>
      </trkpt>
      <trkpt lat="44.13662" lon="6.97055">
        <ele>2334.0535266667</ele>
        <time>2020-10-18T12:28:46Z</time>
      </trkpt>
      <trkpt lat="44.13654" lon="6.97061">
        <ele>2333.5538266667</ele>
        <time>2020-10-18T12:28:53Z</time>
      </trkpt>
      <trkpt lat="44.13646" lon="6.97064">
        <ele>2331.7541733333</ele>
        <time>2020-10-18T12:29:00Z</time>
      </trkpt>
      <trkpt lat="44.13638" lon="6.97069">
        <ele>2330.1544866667</ele>
        <time>2020-10-18T12:29:10Z</time>
      </trkpt>
      <trkpt lat="44.13631" lon="6.97075">
        <ele>2328.25478</ele>
        <time>2020-10-18T12:29:21Z</time>
      </trkpt>
      <trkpt lat="44.13623" lon="6.9708">
        <ele>2327.6550933333</ele>
        <time>2020-10-18T12:29:28Z</time>
      </trkpt>
      <trkpt lat="44.13615" lon="6.97085">
        <ele>2326.9554066667</ele>
        <time>2020-10-18T12:29:36Z</time>
      </trkpt>
      <trkpt lat="44.13608" lon="6.97091">
        <ele>2325.2556733333</ele>
        <time>2020-10-18T12:29:44Z</time>
      </trkpt>
      <trkpt lat="44.136" lon="6.97095">
        <ele>2321.756</ele>
        <time>2020-10-18T12:29:54Z</time>
      </trkpt>
      <trkpt lat="44.13592" lon="6.97097">
        <ele>2319.4563266667</ele>
        <time>2020-10-18T12:30:05Z</time>
      </trkpt>
      <trkpt lat="44.13586" lon="6.97105">
        <ele>2318.5565733333</ele>
        <time>2020-10-18T12:30:20Z</time>
      </trkpt>
      <trkpt lat="44.13578" lon="6.97111">
        <ele>2316.65688</ele>
        <time>2020-10-18T12:30:30Z</time>
      </trkpt>
      <trkpt lat="44.13575" lon="6.97119">
        <ele>2314.35702</ele>
        <time>2020-10-18T12:30:42Z</time>
      </trkpt>
      <trkpt lat="44.13569" lon="6.9713">
        <ele>2312.0572266667</ele>
        <time>2020-10-18T12:30:55Z</time>
      </trkpt>
      <trkpt lat="44.13563" lon="6.97138">
        <ele>2308.5574733333</ele>
        <time>2020-10-18T12:31:06Z</time>
      </trkpt>
      <trkpt lat="44.1356" lon="6.9715">
        <ele>2303.5575933333</ele>
        <time>2020-10-18T12:31:21Z</time>
      </trkpt>
      <trkpt lat="44.1356" lon="6.97162">
        <ele>2298.6575866667</ele>
        <time>2020-10-18T12:31:43Z</time>
      </trkpt>
      <trkpt lat="44.13557" lon="6.97174">
        <ele>2293.1577133333</ele>
        <time>2020-10-18T12:32:00Z</time>
      </trkpt>
      <trkpt lat="44.13556" lon="6.97186">
        <ele>2284.45776</ele>
        <time>2020-10-18T12:32:24Z</time>
      </trkpt>
      <trkpt lat="44.13551" lon="6.97196">
        <ele>2279.4579733333</ele>
        <time>2020-10-18T12:32:43Z</time>
      </trkpt>
      <trkpt lat="44.13549" lon="6.97206">
        <ele>2275.9580266667</ele>
        <time>2020-10-18T12:32:58Z</time>
      </trkpt>
      <trkpt lat="44.13549" lon="6.97219">
        <ele>2272.6580333333</ele>
        <time>2020-10-18T12:33:11Z</time>
      </trkpt>
      <trkpt lat="44.1355" lon="6.97231">
        <ele>2265.95802</ele>
        <time>2020-10-18T12:33:27Z</time>
      </trkpt>
      <trkpt lat="44.13548" lon="6.97243">
        <ele>2262.5580866667</ele>
        <time>2020-10-18T12:33:37Z</time>
      </trkpt>
      <trkpt lat="44.13544" lon="6.97254">
        <ele>2259.15824</ele>
        <time>2020-10-18T12:33:46Z</time>
      </trkpt>
      <trkpt lat="44.13547" lon="6.97265">
        <ele>2255.6581066667</ele>
        <time>2020-10-18T12:33:55Z</time>
      </trkpt>
      <trkpt lat="44.13549" lon="6.97276">
        <ele>2253.3580266667</ele>
        <time>2020-10-18T12:34:04Z</time>
      </trkpt>
      <trkpt lat="44.13552" lon="6.97287">
        <ele>2250.75794</ele>
        <time>2020-10-18T12:34:13Z</time>
      </trkpt>
      <trkpt lat="44.1355" lon="6.97299">
        <ele>2247.0579866667</ele>
        <time>2020-10-18T12:34:24Z</time>
      </trkpt>
      <trkpt lat="44.13551" lon="6.97311">
        <ele>2244.5579466667</ele>
        <time>2020-10-18T12:34:33Z</time>
      </trkpt>
      <trkpt lat="44.13548" lon="6.97322">
        <ele>2241.7580666667</ele>
        <time>2020-10-18T12:34:40Z</time>
      </trkpt>
      <trkpt lat="44.13545" lon="6.97332">
        <ele>2240.65822</ele>
        <time>2020-10-18T12:34:47Z</time>
      </trkpt>
      <trkpt lat="44.13543" lon="6.97344">
        <ele>2239.9582866667</ele>
        <time>2020-10-18T12:34:54Z</time>
      </trkpt>
      <trkpt lat="44.13541" lon="6.97355">
        <ele>2238.25836</ele>
        <time>2020-10-18T12:35:00Z</time>
      </trkpt>
      <trkpt lat="44.13537" lon="6.97365">
        <ele>2236.15852</ele>
        <time>2020-10-18T12:35:06Z</time>
      </trkpt>
      <trkpt lat="44.13532" lon="6.97373">
        <ele>2234.7587133333</ele>
        <time>2020-10-18T12:35:12Z</time>
      </trkpt>
      <trkpt lat="44.13527" lon="6.97382">
        <ele>2234.15892</ele>
        <time>2020-10-18T12:35:18Z</time>
      </trkpt>
      <trkpt lat="44.13521" lon="6.9739">
        <ele>2232.55918</ele>
        <time>2020-10-18T12:35:25Z</time>
      </trkpt>
      <trkpt lat="44.13515" lon="6.97399">
        <ele>2230.9594066667</ele>
        <time>2020-10-18T12:35:33Z</time>
      </trkpt>
      <trkpt lat="44.13513" lon="6.97409">
        <ele>2230.1594933333</ele>
        <time>2020-10-18T12:35:39Z</time>
      </trkpt>
      <trkpt lat="44.13514" lon="6.97421">
        <ele>2228.8594533333</ele>
        <time>2020-10-18T12:35:49Z</time>
      </trkpt>
      <trkpt lat="44.13514" lon="6.97433">
        <ele>2227.05946</ele>
        <time>2020-10-18T12:35:58Z</time>
      </trkpt>
      <trkpt lat="44.13513" lon="6.97444">
        <ele>2225.4594733333</ele>
        <time>2020-10-18T12:36:05Z</time>
      </trkpt>
      <trkpt lat="44.13512" lon="6.97456">
        <ele>2222.3595266667</ele>
        <time>2020-10-18T12:36:14Z</time>
      </trkpt>
      <trkpt lat="44.13506" lon="6.97465">
        <ele>2220.8597533333</ele>
        <time>2020-10-18T12:36:21Z</time>
      </trkpt>
      <trkpt lat="44.13507" lon="6.97477">
        <ele>2218.1597333333</ele>
        <time>2020-10-18T12:36:31Z</time>
      </trkpt>
      <trkpt lat="44.13502" lon="6.97488">
        <ele>2215.9599066667</ele>
        <time>2020-10-18T12:36:39Z</time>
      </trkpt>
      <trkpt lat="44.13501" lon="6.97499">
        <ele>2214.15998</ele>
        <time>2020-10-18T12:36:47Z</time>
      </trkpt>
      <trkpt lat="44.13498" lon="6.9751">
        <ele>2212.0601</ele>
        <time>2020-10-18T12:36:55Z</time>
      </trkpt>
      <trkpt lat="44.13494" lon="6.97521">
        <ele>2210.0602333333</ele>
        <time>2020-10-18T12:37:04Z</time>
      </trkpt>
      <trkpt lat="44.13494" lon="6.97532">
        <ele>2206.46026</ele>
        <time>2020-10-18T12:37:14Z</time>
      </trkpt>
      <trkpt lat="44.13494" lon="6.97545">
        <ele>2203.1602533333</ele>
        <time>2020-10-18T12:37:23Z</time>
      </trkpt>
      <trkpt lat="44.13489" lon="6.97555">
        <ele>2199.3604333333</ele>
        <time>2020-10-18T12:37:32Z</time>
      </trkpt>
      <trkpt lat="44.13488" lon="6.97567">
        <ele>2196.76048</ele>
        <time>2020-10-18T12:37:41Z</time>
      </trkpt>
      <trkpt lat="44.13484" lon="6.97578">
        <ele>2194.76064</ele>
        <time>2020-10-18T12:37:52Z</time>
      </trkpt>
      <trkpt lat="44.13484" lon="6.9759">
        <ele>2190.4606266667</ele>
        <time>2020-10-18T12:38:01Z</time>
      </trkpt>
      <trkpt lat="44.13482" lon="6.97601">
        <ele>2189.1607066667</ele>
        <time>2020-10-18T12:38:09Z</time>
      </trkpt>
      <trkpt lat="44.1348" lon="6.97613">
        <ele>2187.36082</ele>
        <time>2020-10-18T12:38:18Z</time>
      </trkpt>
      <trkpt lat="44.13479" lon="6.97625">
        <ele>2184.3608333333</ele>
        <time>2020-10-18T12:38:31Z</time>
      </trkpt>
      <trkpt lat="44.13475" lon="6.97635">
        <ele>2182.561</ele>
        <time>2020-10-18T12:38:44Z</time>
      </trkpt>
      <trkpt lat="44.13472" lon="6.97646">
        <ele>2181.26114</ele>
        <time>2020-10-18T12:38:55Z</time>
      </trkpt>
      <trkpt lat="44.13469" lon="6.97658">
        <ele>2178.26124</ele>
        <time>2020-10-18T12:39:12Z</time>
      </trkpt>
      <trkpt lat="44.13467" lon="6.97669">
        <ele>2175.4613266667</ele>
        <time>2020-10-18T12:39:24Z</time>
      </trkpt>
      <trkpt lat="44.13462" lon="6.97679">
        <ele>2172.9615133333</ele>
        <time>2020-10-18T12:39:33Z</time>
      </trkpt>
      <trkpt lat="44.13458" lon="6.97688">
        <ele>2170.3616666667</ele>
        <time>2020-10-18T12:39:43Z</time>
      </trkpt>
      <trkpt lat="44.13455" lon="6.97699">
        <ele>2169.66182</ele>
        <time>2020-10-18T12:39:51Z</time>
      </trkpt>
      <trkpt lat="44.1345" lon="6.97709">
        <ele>2166.762</ele>
        <time>2020-10-18T12:40:02Z</time>
      </trkpt>
      <trkpt lat="44.13446" lon="6.97719">
        <ele>2163.3621666667</ele>
        <time>2020-10-18T12:40:12Z</time>
      </trkpt>
      <trkpt lat="44.13443" lon="6.9773">
        <ele>2160.9622733333</ele>
        <time>2020-10-18T12:40:24Z</time>
      </trkpt>
      <trkpt lat="44.1344" lon="6.97741">
        <ele>2159.16242</ele>
        <time>2020-10-18T12:40:35Z</time>
      </trkpt>
      <trkpt lat="44.1344" lon="6.97754">
        <ele>2157.4624066667</ele>
        <time>2020-10-18T12:40:44Z</time>
      </trkpt>
      <trkpt lat="44.13439" lon="6.97766">
        <ele>2154.56244</ele>
        <time>2020-10-18T12:40:56Z</time>
      </trkpt>
      <trkpt lat="44.13436" lon="6.97777">
        <ele>2154.0625466667</ele>
        <time>2020-10-18T12:41:09Z</time>
      </trkpt>
      <trkpt lat="44.13433" lon="6.97788">
        <ele>2151.6626866667</ele>
        <time>2020-10-18T12:41:19Z</time>
      </trkpt>
      <trkpt lat="44.13427" lon="6.97795">
        <ele>2149.36294</ele>
        <time>2020-10-18T12:41:28Z</time>
      </trkpt>
      <trkpt lat="44.13419" lon="6.978">
        <ele>2146.5632466667</ele>
        <time>2020-10-18T12:41:36Z</time>
      </trkpt>
      <trkpt lat="44.13413" lon="6.97809">
        <ele>2143.5634866667</ele>
        <time>2020-10-18T12:41:45Z</time>
      </trkpt>
      <trkpt lat="44.13408" lon="6.97818">
        <ele>2140.9637</ele>
        <time>2020-10-18T12:41:53Z</time>
      </trkpt>
      <trkpt lat="44.13402" lon="6.97826">
        <ele>2139.8639133333</ele>
        <time>2020-10-18T12:42:00Z</time>
      </trkpt>
      <trkpt lat="44.13398" lon="6.97837">
        <ele>2138.1640933333</ele>
        <time>2020-10-18T12:42:11Z</time>
      </trkpt>
      <trkpt lat="44.1339" lon="6.97843">
        <ele>2136.0644</ele>
        <time>2020-10-18T12:42:20Z</time>
      </trkpt>
      <trkpt lat="44.13384" lon="6.97852">
        <ele>2136.2646266667</ele>
        <time>2020-10-18T12:42:27Z</time>
      </trkpt>
      <trkpt lat="44.13384" lon="6.97863">
        <ele>2133.9646533333</ele>
        <time>2020-10-18T12:42:41Z</time>
      </trkpt>
      <trkpt lat="44.13386" lon="6.97874">
        <ele>2132.8645533333</ele>
        <time>2020-10-18T12:42:48Z</time>
      </trkpt>
      <trkpt lat="44.13384" lon="6.97884">
        <ele>2132.1646333333</ele>
        <time>2020-10-18T12:42:54Z</time>
      </trkpt>
      <trkpt lat="44.13386" lon="6.97896">
        <ele>2130.56458</ele>
        <time>2020-10-18T12:43:03Z</time>
      </trkpt>
      <trkpt lat="44.13386" lon="6.97908">
        <ele>2128.1645533333</ele>
        <time>2020-10-18T12:43:13Z</time>
      </trkpt>
      <trkpt lat="44.13386" lon="6.9792">
        <ele>2125.66456</ele>
        <time>2020-10-18T12:43:33Z</time>
      </trkpt>
      <trkpt lat="44.13388" lon="6.97931">
        <ele>2123.5644866667</ele>
        <time>2020-10-18T12:43:47Z</time>
      </trkpt>
      <trkpt lat="44.1339" lon="6.97943">
        <ele>2120.4643866667</ele>
        <time>2020-10-18T12:43:58Z</time>
      </trkpt>
      <trkpt lat="44.13396" lon="6.97953">
        <ele>2117.6641666667</ele>
        <time>2020-10-18T12:44:29Z</time>
      </trkpt>
      <trkpt lat="44.13401" lon="6.97963">
        <ele>2116.6639666667</ele>
        <time>2020-10-18T12:44:40Z</time>
      </trkpt>
      <trkpt lat="44.134" lon="6.97975">
        <ele>2112.16402</ele>
        <time>2020-10-18T12:44:58Z</time>
      </trkpt>
      <trkpt lat="44.13398" lon="6.97986">
        <ele>2108.26408</ele>
        <time>2020-10-18T12:45:11Z</time>
      </trkpt>
      <trkpt lat="44.13396" lon="6.97997">
        <ele>2105.5641533333</ele>
        <time>2020-10-18T12:45:19Z</time>
      </trkpt>
      <trkpt lat="44.13397" lon="6.98009">
        <ele>2102.2641266667</ele>
        <time>2020-10-18T12:45:26Z</time>
      </trkpt>
      <trkpt lat="44.13399" lon="6.9802">
        <ele>2097.66406</ele>
        <time>2020-10-18T12:45:34Z</time>
      </trkpt>
      <trkpt lat="44.13398" lon="6.98032">
        <ele>2095.86408</ele>
        <time>2020-10-18T12:45:41Z</time>
      </trkpt>
      <trkpt lat="44.13397" lon="6.98044">
        <ele>2094.4641266667</ele>
        <time>2020-10-18T12:45:48Z</time>
      </trkpt>
      <trkpt lat="44.13396" lon="6.98055">
        <ele>2093.6641666667</ele>
        <time>2020-10-18T12:45:54Z</time>
      </trkpt>
      <trkpt lat="44.13392" lon="6.98065">
        <ele>2091.6643266667</ele>
        <time>2020-10-18T12:46:05Z</time>
      </trkpt>
      <trkpt lat="44.13385" lon="6.98072">
        <ele>2093.2646133333</ele>
        <time>2020-10-18T12:46:26Z</time>
      </trkpt>
      <trkpt lat="44.13379" lon="6.98082">
        <ele>2091.4648333333</ele>
        <time>2020-10-18T13:01:23Z</time>
      </trkpt>
      <trkpt lat="44.13372" lon="6.98089">
        <ele>2089.76512</ele>
        <time>2020-10-18T13:01:33Z</time>
      </trkpt>
      <trkpt lat="44.13365" lon="6.98095">
        <ele>2088.7653866667</ele>
        <time>2020-10-18T13:01:42Z</time>
      </trkpt>
      <trkpt lat="44.13358" lon="6.98102">
        <ele>2087.96568</ele>
        <time>2020-10-18T13:01:49Z</time>
      </trkpt>
      <trkpt lat="44.13351" lon="6.98108">
        <ele>2086.6659733333</ele>
        <time>2020-10-18T13:01:56Z</time>
      </trkpt>
      <trkpt lat="44.13343" lon="6.98113">
        <ele>2084.0662733333</ele>
        <time>2020-10-18T13:02:03Z</time>
      </trkpt>
      <trkpt lat="44.13337" lon="6.98119">
        <ele>2082.86654</ele>
        <time>2020-10-18T13:02:09Z</time>
      </trkpt>
      <trkpt lat="44.13329" lon="6.98124">
        <ele>2082.4668533333</ele>
        <time>2020-10-18T13:02:16Z</time>
      </trkpt>
      <trkpt lat="44.13321" lon="6.9813">
        <ele>2082.3671533333</ele>
        <time>2020-10-18T13:02:24Z</time>
      </trkpt>
      <trkpt lat="44.13314" lon="6.98137">
        <ele>2080.8674266667</ele>
        <time>2020-10-18T13:02:31Z</time>
      </trkpt>
      <trkpt lat="44.13307" lon="6.9814">
        <ele>2080.1677333333</ele>
        <time>2020-10-18T13:02:37Z</time>
      </trkpt>
      <trkpt lat="44.13299" lon="6.98144">
        <ele>2080.4680533333</ele>
        <time>2020-10-18T13:02:44Z</time>
      </trkpt>
      <trkpt lat="44.13291" lon="6.98149">
        <ele>2080.9683733333</ele>
        <time>2020-10-18T13:02:51Z</time>
      </trkpt>
      <trkpt lat="44.13289" lon="6.98161">
        <ele>2079.06846</ele>
        <time>2020-10-18T13:03:02Z</time>
      </trkpt>
      <trkpt lat="44.13284" lon="6.98171">
        <ele>2079.1686533333</ele>
        <time>2020-10-18T13:03:13Z</time>
      </trkpt>
      <trkpt lat="44.13277" lon="6.98177">
        <ele>2079.96892</ele>
        <time>2020-10-18T13:03:21Z</time>
      </trkpt>
      <trkpt lat="44.13271" lon="6.98186">
        <ele>2079.6691533333</ele>
        <time>2020-10-18T13:03:28Z</time>
      </trkpt>
      <trkpt lat="44.13265" lon="6.98193">
        <ele>2079.5694</ele>
        <time>2020-10-18T13:03:35Z</time>
      </trkpt>
      <trkpt lat="44.13259" lon="6.98203">
        <ele>2078.9696333333</ele>
        <time>2020-10-18T13:03:44Z</time>
      </trkpt>
      <trkpt lat="44.13255" lon="6.98213">
        <ele>2078.36982</ele>
        <time>2020-10-18T13:03:52Z</time>
      </trkpt>
      <trkpt lat="44.1325" lon="6.98223">
        <ele>2077.7699866667</ele>
        <time>2020-10-18T13:04:01Z</time>
      </trkpt>
      <trkpt lat="44.13248" lon="6.98234">
        <ele>2078.0700933333</ele>
        <time>2020-10-18T13:04:08Z</time>
      </trkpt>
      <trkpt lat="44.13245" lon="6.98246">
        <ele>2076.97022</ele>
        <time>2020-10-18T13:04:15Z</time>
      </trkpt>
      <trkpt lat="44.13247" lon="6.98258">
        <ele>2076.0701266667</ele>
        <time>2020-10-18T13:04:22Z</time>
      </trkpt>
      <trkpt lat="44.13252" lon="6.98267">
        <ele>2074.8699266667</ele>
        <time>2020-10-18T13:04:29Z</time>
      </trkpt>
      <trkpt lat="44.13254" lon="6.98278">
        <ele>2074.26986</ele>
        <time>2020-10-18T13:04:36Z</time>
      </trkpt>
      <trkpt lat="44.13256" lon="6.98288">
        <ele>2073.7697466667</ele>
        <time>2020-10-18T13:04:42Z</time>
      </trkpt>
      <trkpt lat="44.13259" lon="6.98299">
        <ele>2072.4696466667</ele>
        <time>2020-10-18T13:04:53Z</time>
      </trkpt>
      <trkpt lat="44.13264" lon="6.98309">
        <ele>2071.7694266667</ele>
        <time>2020-10-18T13:05:01Z</time>
      </trkpt>
      <trkpt lat="44.1327" lon="6.98317">
        <ele>2070.9691933333</ele>
        <time>2020-10-18T13:05:08Z</time>
      </trkpt>
      <trkpt lat="44.13273" lon="6.98328">
        <ele>2070.16908</ele>
        <time>2020-10-18T13:05:15Z</time>
      </trkpt>
      <trkpt lat="44.13274" lon="6.98339">
        <ele>2069.3690333333</ele>
        <time>2020-10-18T13:05:21Z</time>
      </trkpt>
      <trkpt lat="44.13278" lon="6.98349">
        <ele>2067.0689</ele>
        <time>2020-10-18T13:05:27Z</time>
      </trkpt>
      <trkpt lat="44.13278" lon="6.9836">
        <ele>2065.96888</ele>
        <time>2020-10-18T13:05:33Z</time>
      </trkpt>
      <trkpt lat="44.13276" lon="6.98372">
        <ele>2064.8689666667</ele>
        <time>2020-10-18T13:05:39Z</time>
      </trkpt>
      <trkpt lat="44.13272" lon="6.98382">
        <ele>2063.3691133333</ele>
        <time>2020-10-18T13:05:45Z</time>
      </trkpt>
      <trkpt lat="44.13269" lon="6.98392">
        <ele>2061.5692266667</ele>
        <time>2020-10-18T13:05:51Z</time>
      </trkpt>
      <trkpt lat="44.13268" lon="6.98403">
        <ele>2059.8692866667</ele>
        <time>2020-10-18T13:05:57Z</time>
      </trkpt>
      <trkpt lat="44.13265" lon="6.98413">
        <ele>2058.7693933333</ele>
        <time>2020-10-18T13:06:03Z</time>
      </trkpt>
      <trkpt lat="44.13261" lon="6.98423">
        <ele>2058.1695533333</ele>
        <time>2020-10-18T13:06:10Z</time>
      </trkpt>
      <trkpt lat="44.13258" lon="6.98434">
        <ele>2057.8696866667</ele>
        <time>2020-10-18T13:06:18Z</time>
      </trkpt>
      <trkpt lat="44.13258" lon="6.98447">
        <ele>2056.7697</ele>
        <time>2020-10-18T13:06:25Z</time>
      </trkpt>
      <trkpt lat="44.13256" lon="6.98459">
        <ele>2054.8697666667</ele>
        <time>2020-10-18T13:06:37Z</time>
      </trkpt>
      <trkpt lat="44.13249" lon="6.98466">
        <ele>2054.5700533333</ele>
        <time>2020-10-18T13:06:45Z</time>
      </trkpt>
      <trkpt lat="44.13242" lon="6.9847">
        <ele>2054.27034</ele>
        <time>2020-10-18T13:06:51Z</time>
      </trkpt>
      <trkpt lat="44.13235" lon="6.98476">
        <ele>2052.87062</ele>
        <time>2020-10-18T13:06:57Z</time>
      </trkpt>
      <trkpt lat="44.13229" lon="6.98484">
        <ele>2052.37086</ele>
        <time>2020-10-18T13:07:03Z</time>
      </trkpt>
      <trkpt lat="44.13221" lon="6.98491">
        <ele>2052.6711533333</ele>
        <time>2020-10-18T13:07:11Z</time>
      </trkpt>
      <trkpt lat="44.13215" lon="6.98499">
        <ele>2051.7714066667</ele>
        <time>2020-10-18T13:07:18Z</time>
      </trkpt>
      <trkpt lat="44.13208" lon="6.98505">
        <ele>2048.7716866667</ele>
        <time>2020-10-18T13:07:25Z</time>
      </trkpt>
      <trkpt lat="44.13201" lon="6.98512">
        <ele>2046.8719533333</ele>
        <time>2020-10-18T13:07:33Z</time>
      </trkpt>
      <trkpt lat="44.13194" lon="6.98518">
        <ele>2045.8722466667</ele>
        <time>2020-10-18T13:07:39Z</time>
      </trkpt>
      <trkpt lat="44.13189" lon="6.98528">
        <ele>2045.3724266667</ele>
        <time>2020-10-18T13:07:46Z</time>
      </trkpt>
      <trkpt lat="44.13184" lon="6.98536">
        <ele>2044.3726266667</ele>
        <time>2020-10-18T13:07:52Z</time>
      </trkpt>
      <trkpt lat="44.13179" lon="6.98546">
        <ele>2042.7728266667</ele>
        <time>2020-10-18T13:07:59Z</time>
      </trkpt>
      <trkpt lat="44.13176" lon="6.98556">
        <ele>2042.0729466667</ele>
        <time>2020-10-18T13:08:06Z</time>
      </trkpt>
      <trkpt lat="44.13174" lon="6.98567">
        <ele>2041.1730266667</ele>
        <time>2020-10-18T13:08:12Z</time>
      </trkpt>
      <trkpt lat="44.13169" lon="6.98577">
        <ele>2039.5732333333</ele>
        <time>2020-10-18T13:08:21Z</time>
      </trkpt>
      <trkpt lat="44.13163" lon="6.98584">
        <ele>2037.7734866667</ele>
        <time>2020-10-18T13:08:30Z</time>
      </trkpt>
      <trkpt lat="44.13158" lon="6.98594">
        <ele>2035.9736866667</ele>
        <time>2020-10-18T13:08:39Z</time>
      </trkpt>
      <trkpt lat="44.13152" lon="6.98601">
        <ele>2033.5739333333</ele>
        <time>2020-10-18T13:08:48Z</time>
      </trkpt>
      <trkpt lat="44.13151" lon="6.98613">
        <ele>2027.7739533333</ele>
        <time>2020-10-18T13:08:57Z</time>
      </trkpt>
      <trkpt lat="44.13151" lon="6.98625">
        <ele>2024.6739466667</ele>
        <time>2020-10-18T13:09:07Z</time>
      </trkpt>
      <trkpt lat="44.13149" lon="6.98636">
        <ele>2022.9740533333</ele>
        <time>2020-10-18T13:09:17Z</time>
      </trkpt>
      <trkpt lat="44.13148" lon="6.98648">
        <ele>2020.87408</ele>
        <time>2020-10-18T13:09:27Z</time>
      </trkpt>
      <trkpt lat="44.13149" lon="6.98659">
        <ele>2018.9740333333</ele>
        <time>2020-10-18T13:09:36Z</time>
      </trkpt>
      <trkpt lat="44.1315" lon="6.98671">
        <ele>2016.3739866667</ele>
        <time>2020-10-18T13:09:43Z</time>
      </trkpt>
      <trkpt lat="44.13151" lon="6.98683">
        <ele>2013.4739533333</ele>
        <time>2020-10-18T13:09:51Z</time>
      </trkpt>
      <trkpt lat="44.13151" lon="6.98695">
        <ele>2011.9739666667</ele>
        <time>2020-10-18T13:09:59Z</time>
      </trkpt>
      <trkpt lat="44.13153" lon="6.98706">
        <ele>2010.8738866667</ele>
        <time>2020-10-18T13:10:07Z</time>
      </trkpt>
      <trkpt lat="44.13153" lon="6.98719">
        <ele>2008.17388</ele>
        <time>2020-10-18T13:10:15Z</time>
      </trkpt>
      <trkpt lat="44.13152" lon="6.98731">
        <ele>2004.9739333333</ele>
        <time>2020-10-18T13:10:25Z</time>
      </trkpt>
      <trkpt lat="44.13152" lon="6.98742">
        <ele>2003.6739066667</ele>
        <time>2020-10-18T13:10:31Z</time>
      </trkpt>
      <trkpt lat="44.13154" lon="6.98753">
        <ele>2001.9738466667</ele>
        <time>2020-10-18T13:10:37Z</time>
      </trkpt>
      <trkpt lat="44.13152" lon="6.98765">
        <ele>2001.4739133333</ele>
        <time>2020-10-18T13:10:46Z</time>
      </trkpt>
      <trkpt lat="44.13151" lon="6.98776">
        <ele>2002.87398</ele>
        <time>2020-10-18T13:10:56Z</time>
      </trkpt>
      <trkpt lat="44.13156" lon="6.98786">
        <ele>2001.5737666667</ele>
        <time>2020-10-18T13:11:19Z</time>
      </trkpt>
      <trkpt lat="44.13157" lon="6.98798">
        <ele>1999.97372</ele>
        <time>2020-10-18T13:11:29Z</time>
      </trkpt>
      <trkpt lat="44.1316" lon="6.9881">
        <ele>1997.6736133333</ele>
        <time>2020-10-18T13:11:50Z</time>
      </trkpt>
      <trkpt lat="44.13162" lon="6.9882">
        <ele>1997.27352</ele>
        <time>2020-10-18T13:11:56Z</time>
      </trkpt>
      <trkpt lat="44.13165" lon="6.9883">
        <ele>1996.8734133333</ele>
        <time>2020-10-18T13:12:02Z</time>
      </trkpt>
      <trkpt lat="44.13168" lon="6.9884">
        <ele>1996.1732733333</ele>
        <time>2020-10-18T13:12:09Z</time>
      </trkpt>
      <trkpt lat="44.1317" lon="6.98851">
        <ele>1993.1731933333</ele>
        <time>2020-10-18T13:12:18Z</time>
      </trkpt>
      <trkpt lat="44.13169" lon="6.98863">
        <ele>1989.1732466667</ele>
        <time>2020-10-18T13:12:34Z</time>
      </trkpt>
      <trkpt lat="44.13167" lon="6.98874">
        <ele>1989.8733266667</ele>
        <time>2020-10-18T13:12:49Z</time>
      </trkpt>
      <trkpt lat="44.13166" lon="6.98885">
        <ele>1989.27336</ele>
        <time>2020-10-18T13:12:57Z</time>
      </trkpt>
      <trkpt lat="44.13168" lon="6.98897">
        <ele>1987.8732866667</ele>
        <time>2020-10-18T13:13:04Z</time>
      </trkpt>
      <trkpt lat="44.13168" lon="6.98909">
        <ele>1985.1733</ele>
        <time>2020-10-18T13:13:12Z</time>
      </trkpt>
      <trkpt lat="44.1317" lon="6.9892">
        <ele>1983.4731866667</ele>
        <time>2020-10-18T13:13:19Z</time>
      </trkpt>
      <trkpt lat="44.1317" lon="6.98932">
        <ele>1982.2731866667</ele>
        <time>2020-10-18T13:13:30Z</time>
      </trkpt>
      <trkpt lat="44.13173" lon="6.98942">
        <ele>1981.5730866667</ele>
        <time>2020-10-18T13:13:37Z</time>
      </trkpt>
      <trkpt lat="44.13175" lon="6.98952">
        <ele>1981.6730133333</ele>
        <time>2020-10-18T13:13:42Z</time>
      </trkpt>
      <trkpt lat="44.1318" lon="6.98962">
        <ele>1981.07282</ele>
        <time>2020-10-18T13:13:48Z</time>
      </trkpt>
      <trkpt lat="44.13182" lon="6.98973">
        <ele>1980.1727066667</ele>
        <time>2020-10-18T13:13:54Z</time>
      </trkpt>
      <trkpt lat="44.13183" lon="6.98984">
        <ele>1977.4726866667</ele>
        <time>2020-10-18T13:14:02Z</time>
      </trkpt>
      <trkpt lat="44.13177" lon="6.98994">
        <ele>1972.97292</ele>
        <time>2020-10-18T13:14:17Z</time>
      </trkpt>
      <trkpt lat="44.13181" lon="6.99003">
        <ele>1971.67278</ele>
        <time>2020-10-18T13:14:28Z</time>
      </trkpt>
      <trkpt lat="44.13184" lon="6.99014">
        <ele>1970.07264</ele>
        <time>2020-10-18T13:14:34Z</time>
      </trkpt>
      <trkpt lat="44.13185" lon="6.99026">
        <ele>1967.9726</ele>
        <time>2020-10-18T13:14:41Z</time>
      </trkpt>
      <trkpt lat="44.13187" lon="6.99036">
        <ele>1966.6725333333</ele>
        <time>2020-10-18T13:14:56Z</time>
      </trkpt>
      <trkpt lat="44.13188" lon="6.99048">
        <ele>1965.9724933333</ele>
        <time>2020-10-18T13:15:02Z</time>
      </trkpt>
      <trkpt lat="44.13186" lon="6.99059">
        <ele>1964.77256</ele>
        <time>2020-10-18T13:15:08Z</time>
      </trkpt>
      <trkpt lat="44.13181" lon="6.99069">
        <ele>1963.7727666667</ele>
        <time>2020-10-18T13:15:15Z</time>
      </trkpt>
      <trkpt lat="44.13177" lon="6.99078">
        <ele>1963.8729133333</ele>
        <time>2020-10-18T13:15:20Z</time>
      </trkpt>
      <trkpt lat="44.13173" lon="6.99088">
        <ele>1963.97308</ele>
        <time>2020-10-18T13:15:26Z</time>
      </trkpt>
      <trkpt lat="44.13167" lon="6.99095">
        <ele>1963.47332</ele>
        <time>2020-10-18T13:15:32Z</time>
      </trkpt>
      <trkpt lat="44.13163" lon="6.99105">
        <ele>1962.1734666667</ele>
        <time>2020-10-18T13:15:38Z</time>
      </trkpt>
      <trkpt lat="44.13158" lon="6.99113">
        <ele>1960.4736866667</ele>
        <time>2020-10-18T13:15:44Z</time>
      </trkpt>
      <trkpt lat="44.13154" lon="6.99123">
        <ele>1958.47386</ele>
        <time>2020-10-18T13:15:50Z</time>
      </trkpt>
      <trkpt lat="44.13149" lon="6.99132">
        <ele>1956.2740533333</ele>
        <time>2020-10-18T13:15:57Z</time>
      </trkpt>
      <trkpt lat="44.13143" lon="6.99142">
        <ele>1955.57428</ele>
        <time>2020-10-18T13:16:04Z</time>
      </trkpt>
      <trkpt lat="44.1314" lon="6.99153">
        <ele>1954.4743933333</ele>
        <time>2020-10-18T13:16:10Z</time>
      </trkpt>
      <trkpt lat="44.13137" lon="6.99163">
        <ele>1953.17452</ele>
        <time>2020-10-18T13:16:16Z</time>
      </trkpt>
      <trkpt lat="44.13134" lon="6.99174">
        <ele>1951.27464</ele>
        <time>2020-10-18T13:16:24Z</time>
      </trkpt>
      <trkpt lat="44.13133" lon="6.99185">
        <ele>1950.5746866667</ele>
        <time>2020-10-18T13:16:31Z</time>
      </trkpt>
      <trkpt lat="44.13133" lon="6.99197">
        <ele>1950.0747</ele>
        <time>2020-10-18T13:16:38Z</time>
      </trkpt>
      <trkpt lat="44.13134" lon="6.99209">
        <ele>1948.47464</ele>
        <time>2020-10-18T13:16:46Z</time>
      </trkpt>
      <trkpt lat="44.13137" lon="6.9922">
        <ele>1946.8745066667</ele>
        <time>2020-10-18T13:16:53Z</time>
      </trkpt>
      <trkpt lat="44.13141" lon="6.9923">
        <ele>1945.8743466667</ele>
        <time>2020-10-18T13:17:00Z</time>
      </trkpt>
      <trkpt lat="44.13147" lon="6.99239">
        <ele>1946.17412</ele>
        <time>2020-10-18T13:17:07Z</time>
      </trkpt>
      <trkpt lat="44.13151" lon="6.99249">
        <ele>1945.9739733333</ele>
        <time>2020-10-18T13:17:13Z</time>
      </trkpt>
      <trkpt lat="44.13156" lon="6.99258">
        <ele>1944.8737533333</ele>
        <time>2020-10-18T13:17:20Z</time>
      </trkpt>
      <trkpt lat="44.13162" lon="6.99267">
        <ele>1943.1735266667</ele>
        <time>2020-10-18T13:17:27Z</time>
      </trkpt>
      <trkpt lat="44.13168" lon="6.99276">
        <ele>1942.1732866667</ele>
        <time>2020-10-18T13:17:34Z</time>
      </trkpt>
      <trkpt lat="44.13174" lon="6.99282">
        <ele>1941.87304</ele>
        <time>2020-10-18T13:17:41Z</time>
      </trkpt>
      <trkpt lat="44.13181" lon="6.9929">
        <ele>1941.17278</ele>
        <time>2020-10-18T13:17:48Z</time>
      </trkpt>
      <trkpt lat="44.13188" lon="6.99297">
        <ele>1940.2724866667</ele>
        <time>2020-10-18T13:17:56Z</time>
      </trkpt>
      <trkpt lat="44.13194" lon="6.99306">
        <ele>1936.5722333333</ele>
        <time>2020-10-18T13:18:11Z</time>
      </trkpt>
      <trkpt lat="44.13193" lon="6.99317">
        <ele>1934.2723</ele>
        <time>2020-10-18T13:18:23Z</time>
      </trkpt>
      <trkpt lat="44.13185" lon="6.99324">
        <ele>1932.0725866667</ele>
        <time>2020-10-18T13:18:32Z</time>
      </trkpt>
      <trkpt lat="44.13182" lon="6.99334">
        <ele>1927.5727333333</ele>
        <time>2020-10-18T13:18:43Z</time>
      </trkpt>
      <trkpt lat="44.13176" lon="6.99343">
        <ele>1922.37298</ele>
        <time>2020-10-18T13:18:52Z</time>
      </trkpt>
      <trkpt lat="44.13169" lon="6.9935">
        <ele>1918.4732466667</ele>
        <time>2020-10-18T13:19:00Z</time>
      </trkpt>
      <trkpt lat="44.13161" lon="6.99356">
        <ele>1916.07356</ele>
        <time>2020-10-18T13:19:07Z</time>
      </trkpt>
      <trkpt lat="44.13153" lon="6.9936">
        <ele>1912.5738733333</ele>
        <time>2020-10-18T13:19:15Z</time>
      </trkpt>
      <trkpt lat="44.13146" lon="6.99366">
        <ele>1908.8741666667</ele>
        <time>2020-10-18T13:19:26Z</time>
      </trkpt>
      <trkpt lat="44.13137" lon="6.9937">
        <ele>1905.3745066667</ele>
        <time>2020-10-18T13:19:36Z</time>
      </trkpt>
      <trkpt lat="44.13131" lon="6.99377">
        <ele>1900.5747733333</ele>
        <time>2020-10-18T13:19:47Z</time>
      </trkpt>
      <trkpt lat="44.13123" lon="6.99384">
        <ele>1898.17508</ele>
        <time>2020-10-18T13:19:56Z</time>
      </trkpt>
      <trkpt lat="44.13116" lon="6.9939">
        <ele>1894.5753466667</ele>
        <time>2020-10-18T13:20:05Z</time>
      </trkpt>
      <trkpt lat="44.13108" lon="6.99394">
        <ele>1891.5756733333</ele>
        <time>2020-10-18T13:20:12Z</time>
      </trkpt>
      <trkpt lat="44.131" lon="6.99395">
        <ele>1887.8760133333</ele>
        <time>2020-10-18T13:20:20Z</time>
      </trkpt>
      <trkpt lat="44.13093" lon="6.99402">
        <ele>1884.2762733333</ele>
        <time>2020-10-18T13:20:28Z</time>
      </trkpt>
      <trkpt lat="44.13085" lon="6.99405">
        <ele>1881.7766</ele>
        <time>2020-10-18T13:20:36Z</time>
      </trkpt>
      <trkpt lat="44.13077" lon="6.99408">
        <ele>1877.5769266667</ele>
        <time>2020-10-18T13:20:49Z</time>
      </trkpt>
      <trkpt lat="44.13069" lon="6.9941">
        <ele>1874.97726</ele>
        <time>2020-10-18T13:21:08Z</time>
      </trkpt>
      <trkpt lat="44.1306" lon="6.99412">
        <ele>1873.5776066667</ele>
        <time>2020-10-18T13:21:30Z</time>
      </trkpt>
      <trkpt lat="44.13053" lon="6.99407">
        <ele>1872.6778933333</ele>
        <time>2020-10-18T13:21:39Z</time>
      </trkpt>
      <trkpt lat="44.13044" lon="6.99406">
        <ele>1872.0782266667</ele>
        <time>2020-10-18T13:21:47Z</time>
      </trkpt>
      <trkpt lat="44.13037" lon="6.99404">
        <ele>1869.67854</ele>
        <time>2020-10-18T13:21:55Z</time>
      </trkpt>
      <trkpt lat="44.13029" lon="6.99401">
        <ele>1866.27886</ele>
        <time>2020-10-18T13:22:03Z</time>
      </trkpt>
      <trkpt lat="44.1302" lon="6.99401">
        <ele>1859.8791866667</ele>
        <time>2020-10-18T13:22:14Z</time>
      </trkpt>
      <trkpt lat="44.13012" lon="6.99397">
        <ele>1857.4795266667</ele>
        <time>2020-10-18T13:22:22Z</time>
      </trkpt>
      <trkpt lat="44.13003" lon="6.99398">
        <ele>1854.37988</ele>
        <time>2020-10-18T13:22:29Z</time>
      </trkpt>
      <trkpt lat="44.12995" lon="6.99395">
        <ele>1851.7802133333</ele>
        <time>2020-10-18T13:22:36Z</time>
      </trkpt>
      <trkpt lat="44.12986" lon="6.99393">
        <ele>1850.2805533333</ele>
        <time>2020-10-18T13:22:43Z</time>
      </trkpt>
      <trkpt lat="44.12979" lon="6.99387">
        <ele>1848.18086</ele>
        <time>2020-10-18T13:22:51Z</time>
      </trkpt>
      <trkpt lat="44.1297" lon="6.99384">
        <ele>1847.0811866667</ele>
        <time>2020-10-18T13:23:01Z</time>
      </trkpt>
      <trkpt lat="44.12962" lon="6.99382">
        <ele>1845.3815133333</ele>
        <time>2020-10-18T13:23:08Z</time>
      </trkpt>
      <trkpt lat="44.12953" lon="6.99383">
        <ele>1844.4818666667</ele>
        <time>2020-10-18T13:23:16Z</time>
      </trkpt>
      <trkpt lat="44.12946" lon="6.99385">
        <ele>1843.2821666667</ele>
        <time>2020-10-18T13:23:22Z</time>
      </trkpt>
      <trkpt lat="44.12938" lon="6.99388">
        <ele>1841.9824666667</ele>
        <time>2020-10-18T13:23:28Z</time>
      </trkpt>
      <trkpt lat="44.1293" lon="6.99389">
        <ele>1841.2827866667</ele>
        <time>2020-10-18T13:23:35Z</time>
      </trkpt>
      <trkpt lat="44.12923" lon="6.9939">
        <ele>1841.4831</ele>
        <time>2020-10-18T13:23:41Z</time>
      </trkpt>
      <trkpt lat="44.12914" lon="6.99392">
        <ele>1840.18344</ele>
        <time>2020-10-18T13:23:48Z</time>
      </trkpt>
      <trkpt lat="44.12906" lon="6.99392">
        <ele>1836.88378</ele>
        <time>2020-10-18T13:23:55Z</time>
      </trkpt>
      <trkpt lat="44.12897" lon="6.99392">
        <ele>1834.6841133333</ele>
        <time>2020-10-18T13:24:02Z</time>
      </trkpt>
      <trkpt lat="44.12889" lon="6.99394">
        <ele>1832.2844266667</ele>
        <time>2020-10-18T13:24:08Z</time>
      </trkpt>
      <trkpt lat="44.12882" lon="6.99396">
        <ele>1830.1847333333</ele>
        <time>2020-10-18T13:24:14Z</time>
      </trkpt>
      <trkpt lat="44.12874" lon="6.99395">
        <ele>1829.4850466667</ele>
        <time>2020-10-18T13:24:20Z</time>
      </trkpt>
      <trkpt lat="44.12866" lon="6.99395">
        <ele>1826.98536</ele>
        <time>2020-10-18T13:24:26Z</time>
      </trkpt>
      <trkpt lat="44.12859" lon="6.99397">
        <ele>1825.68566</ele>
        <time>2020-10-18T13:24:31Z</time>
      </trkpt>
      <trkpt lat="44.1285" lon="6.99398">
        <ele>1825.386</ele>
        <time>2020-10-18T13:24:38Z</time>
      </trkpt>
      <trkpt lat="44.12841" lon="6.99399">
        <ele>1823.3863466667</ele>
        <time>2020-10-18T13:24:44Z</time>
      </trkpt>
      <trkpt lat="44.12833" lon="6.99398">
        <ele>1819.2866866667</ele>
        <time>2020-10-18T13:24:50Z</time>
      </trkpt>
      <trkpt lat="44.12825" lon="6.99396">
        <ele>1816.3869866667</ele>
        <time>2020-10-18T13:24:57Z</time>
      </trkpt>
      <trkpt lat="44.12817" lon="6.99397">
        <ele>1813.5873266667</ele>
        <time>2020-10-18T13:25:06Z</time>
      </trkpt>
      <trkpt lat="44.12812" lon="6.99407">
        <ele>1803.7875266667</ele>
        <time>2020-10-18T13:25:19Z</time>
      </trkpt>
      <trkpt lat="44.12805" lon="6.99415">
        <ele>1798.8878066667</ele>
        <time>2020-10-18T13:25:28Z</time>
      </trkpt>
      <trkpt lat="44.12797" lon="6.99417">
        <ele>1797.8881066667</ele>
        <time>2020-10-18T13:25:35Z</time>
      </trkpt>
      <trkpt lat="44.12789" lon="6.99419">
        <ele>1798.4884333333</ele>
        <time>2020-10-18T13:25:43Z</time>
      </trkpt>
      <trkpt lat="44.12782" lon="6.99423">
        <ele>1797.5887266667</ele>
        <time>2020-10-18T13:25:51Z</time>
      </trkpt>
      <trkpt lat="44.12774" lon="6.9943">
        <ele>1793.4890266667</ele>
        <time>2020-10-18T13:26:00Z</time>
      </trkpt>
      <trkpt lat="44.12766" lon="6.99429">
        <ele>1790.5893466667</ele>
        <time>2020-10-18T13:26:07Z</time>
      </trkpt>
      <trkpt lat="44.12758" lon="6.99429">
        <ele>1787.6896933333</ele>
        <time>2020-10-18T13:26:14Z</time>
      </trkpt>
      <trkpt lat="44.12749" lon="6.99429">
        <ele>1785.69004</ele>
        <time>2020-10-18T13:26:21Z</time>
      </trkpt>
      <trkpt lat="44.12741" lon="6.99431">
        <ele>1783.1903666667</ele>
        <time>2020-10-18T13:26:28Z</time>
      </trkpt>
      <trkpt lat="44.12735" lon="6.9944">
        <ele>1778.2906</ele>
        <time>2020-10-18T13:26:35Z</time>
      </trkpt>
      <trkpt lat="44.12728" lon="6.99444">
        <ele>1775.7909</ele>
        <time>2020-10-18T13:26:42Z</time>
      </trkpt>
      <trkpt lat="44.12719" lon="6.99447">
        <ele>1775.69124</ele>
        <time>2020-10-18T13:26:50Z</time>
      </trkpt>
      <trkpt lat="44.12711" lon="6.9945">
        <ele>1773.3915666667</ele>
        <time>2020-10-18T13:26:58Z</time>
      </trkpt>
      <trkpt lat="44.12702" lon="6.99447">
        <ele>1771.9919133333</ele>
        <time>2020-10-18T13:27:05Z</time>
      </trkpt>
      <trkpt lat="44.12695" lon="6.99453">
        <ele>1768.2922</ele>
        <time>2020-10-18T13:27:12Z</time>
      </trkpt>
      <trkpt lat="44.12687" lon="6.99458">
        <ele>1763.7925133333</ele>
        <time>2020-10-18T13:27:20Z</time>
      </trkpt>
      <trkpt lat="44.1268" lon="6.99462">
        <ele>1760.6928133333</ele>
        <time>2020-10-18T13:27:27Z</time>
      </trkpt>
      <trkpt lat="44.12672" lon="6.99467">
        <ele>1755.6931333333</ele>
        <time>2020-10-18T13:27:36Z</time>
      </trkpt>
      <trkpt lat="44.12663" lon="6.99467">
        <ele>1752.9934666667</ele>
        <time>2020-10-18T13:27:42Z</time>
      </trkpt>
      <trkpt lat="44.12655" lon="6.99469">
        <ele>1751.3938133333</ele>
        <time>2020-10-18T13:27:48Z</time>
      </trkpt>
      <trkpt lat="44.12649" lon="6.99461">
        <ele>1749.79404</ele>
        <time>2020-10-18T13:27:54Z</time>
      </trkpt>
      <trkpt lat="44.12641" lon="6.99458">
        <ele>1748.69436</ele>
        <time>2020-10-18T13:28:00Z</time>
      </trkpt>
      <trkpt lat="44.12633" lon="6.99454">
        <ele>1748.1946933333</ele>
        <time>2020-10-18T13:28:05Z</time>
      </trkpt>
      <trkpt lat="44.12624" lon="6.99453">
        <ele>1750.09504</ele>
        <time>2020-10-18T13:28:13Z</time>
      </trkpt>
      <trkpt lat="44.12616" lon="6.99451">
        <ele>1748.39538</ele>
        <time>2020-10-18T13:28:21Z</time>
      </trkpt>
      <trkpt lat="44.12607" lon="6.99451">
        <ele>1745.59572</ele>
        <time>2020-10-18T13:28:27Z</time>
      </trkpt>
      <trkpt lat="44.126" lon="6.99447">
        <ele>1744.3960066667</ele>
        <time>2020-10-18T13:28:32Z</time>
      </trkpt>
      <trkpt lat="44.12597" lon="6.99436">
        <ele>1742.39614</ele>
        <time>2020-10-18T13:28:37Z</time>
      </trkpt>
      <trkpt lat="44.12589" lon="6.9943">
        <ele>1738.39646</ele>
        <time>2020-10-18T13:28:47Z</time>
      </trkpt>
      <trkpt lat="44.1258" lon="6.99427">
        <ele>1735.8967933333</ele>
        <time>2020-10-18T13:29:01Z</time>
      </trkpt>
      <trkpt lat="44.12573" lon="6.9942">
        <ele>1733.29708</ele>
        <time>2020-10-18T13:30:16Z</time>
      </trkpt>
      <trkpt lat="44.12564" lon="6.99422">
        <ele>1732.1974333333</ele>
        <time>2020-10-18T13:30:25Z</time>
      </trkpt>
      <trkpt lat="44.12556" lon="6.99422">
        <ele>1730.2977666667</ele>
        <time>2020-10-18T13:30:38Z</time>
      </trkpt>
      <trkpt lat="44.12548" lon="6.99427">
        <ele>1727.6980933333</ele>
        <time>2020-10-18T13:30:48Z</time>
      </trkpt>
      <trkpt lat="44.12539" lon="6.99429">
        <ele>1726.8984333333</ele>
        <time>2020-10-18T13:30:59Z</time>
      </trkpt>
      <trkpt lat="44.12531" lon="6.9943">
        <ele>1725.4987466667</ele>
        <time>2020-10-18T13:31:05Z</time>
      </trkpt>
      <trkpt lat="44.12523" lon="6.99431">
        <ele>1725.4990933333</ele>
        <time>2020-10-18T13:31:11Z</time>
      </trkpt>
      <trkpt lat="44.12514" lon="6.9943">
        <ele>1725.1994466667</ele>
        <time>2020-10-18T13:31:17Z</time>
      </trkpt>
      <trkpt lat="44.12506" lon="6.99429">
        <ele>1722.99976</ele>
        <time>2020-10-18T13:31:24Z</time>
      </trkpt>
      <trkpt lat="44.12498" lon="6.99426">
        <ele>1720.30008</ele>
        <time>2020-10-18T13:31:32Z</time>
      </trkpt>
      <trkpt lat="44.1249" lon="6.99423">
        <ele>1717.3004133333</ele>
        <time>2020-10-18T13:31:39Z</time>
      </trkpt>
      <trkpt lat="44.12481" lon="6.9942">
        <ele>1715.8007533333</ele>
        <time>2020-10-18T13:31:46Z</time>
      </trkpt>
      <trkpt lat="44.12473" lon="6.99416">
        <ele>1715.3010666667</ele>
        <time>2020-10-18T13:31:54Z</time>
      </trkpt>
      <trkpt lat="44.12467" lon="6.9941">
        <ele>1714.0013266667</ele>
        <time>2020-10-18T13:32:01Z</time>
      </trkpt>
      <trkpt lat="44.12462" lon="6.99401">
        <ele>1712.5015266667</ele>
        <time>2020-10-18T13:32:07Z</time>
      </trkpt>
      <trkpt lat="44.12455" lon="6.99394">
        <ele>1710.4018066667</ele>
        <time>2020-10-18T13:35:44Z</time>
      </trkpt>
      <trkpt lat="44.12447" lon="6.99393">
        <ele>1711.2021333333</ele>
        <time>2020-10-18T13:35:49Z</time>
      </trkpt>
      <trkpt lat="44.12439" lon="6.99388">
        <ele>1711.10246</ele>
        <time>2020-10-18T13:35:55Z</time>
      </trkpt>
      <trkpt lat="44.12431" lon="6.99382">
        <ele>1710.3027533333</ele>
        <time>2020-10-18T13:36:01Z</time>
      </trkpt>
      <trkpt lat="44.12424" lon="6.99374">
        <ele>1707.6030266667</ele>
        <time>2020-10-18T13:36:07Z</time>
      </trkpt>
      <trkpt lat="44.12417" lon="6.9937">
        <ele>1705.50332</ele>
        <time>2020-10-18T13:36:13Z</time>
      </trkpt>
      <trkpt lat="44.12409" lon="6.99368">
        <ele>1703.3036333333</ele>
        <time>2020-10-18T13:36:20Z</time>
      </trkpt>
      <trkpt lat="44.12401" lon="6.99366">
        <ele>1702.8039733333</ele>
        <time>2020-10-18T13:36:26Z</time>
      </trkpt>
      <trkpt lat="44.12393" lon="6.99367">
        <ele>1702.8042866667</ele>
        <time>2020-10-18T13:36:31Z</time>
      </trkpt>
      <trkpt lat="44.12385" lon="6.99364">
        <ele>1702.9046133333</ele>
        <time>2020-10-18T13:36:37Z</time>
      </trkpt>
      <trkpt lat="44.12377" lon="6.9936">
        <ele>1702.1049266667</ele>
        <time>2020-10-18T13:36:43Z</time>
      </trkpt>
      <trkpt lat="44.12369" lon="6.99356">
        <ele>1701.1052333333</ele>
        <time>2020-10-18T13:36:48Z</time>
      </trkpt>
      <trkpt lat="44.12362" lon="6.99352">
        <ele>1699.3055133333</ele>
        <time>2020-10-18T13:37:02Z</time>
      </trkpt>
      <trkpt lat="44.12354" lon="6.99346">
        <ele>1696.7058266667</ele>
        <time>2020-10-18T13:37:09Z</time>
      </trkpt>
      <trkpt lat="44.12348" lon="6.99339">
        <ele>1692.5061</ele>
        <time>2020-10-18T13:37:18Z</time>
      </trkpt>
      <trkpt lat="44.1234" lon="6.99332">
        <ele>1689.9064</ele>
        <time>2020-10-18T13:37:25Z</time>
      </trkpt>
      <trkpt lat="44.12332" lon="6.99327">
        <ele>1687.40672</ele>
        <time>2020-10-18T13:37:34Z</time>
      </trkpt>
      <trkpt lat="44.12325" lon="6.99321">
        <ele>1684.8070133333</ele>
        <time>2020-10-18T13:37:44Z</time>
      </trkpt>
      <trkpt lat="44.12316" lon="6.99317">
        <ele>1684.8073533333</ele>
        <time>2020-10-18T13:37:51Z</time>
      </trkpt>
      <trkpt lat="44.12309" lon="6.99311">
        <ele>1683.7076533333</ele>
        <time>2020-10-18T13:37:58Z</time>
      </trkpt>
      <trkpt lat="44.12301" lon="6.99305">
        <ele>1681.7079666667</ele>
        <time>2020-10-18T13:38:05Z</time>
      </trkpt>
      <trkpt lat="44.12293" lon="6.99299">
        <ele>1679.2082666667</ele>
        <time>2020-10-18T13:38:11Z</time>
      </trkpt>
      <trkpt lat="44.12287" lon="6.9929">
        <ele>1675.20852</ele>
        <time>2020-10-18T13:38:17Z</time>
      </trkpt>
      <trkpt lat="44.1228" lon="6.99285">
        <ele>1672.7087866667</ele>
        <time>2020-10-18T13:38:23Z</time>
      </trkpt>
      <trkpt lat="44.12272" lon="6.9928">
        <ele>1671.40912</ele>
        <time>2020-10-18T13:38:30Z</time>
      </trkpt>
      <trkpt lat="44.12264" lon="6.99278">
        <ele>1669.7094466667</ele>
        <time>2020-10-18T13:38:38Z</time>
      </trkpt>
      <trkpt lat="44.12255" lon="6.99276">
        <ele>1667.8097866667</ele>
        <time>2020-10-18T13:38:46Z</time>
      </trkpt>
      <trkpt lat="44.12247" lon="6.99273">
        <ele>1664.8101133333</ele>
        <time>2020-10-18T13:38:53Z</time>
      </trkpt>
      <trkpt lat="44.12241" lon="6.99266">
        <ele>1662.4103666667</ele>
        <time>2020-10-18T13:38:59Z</time>
      </trkpt>
      <trkpt lat="44.12235" lon="6.99257">
        <ele>1659.2105933333</ele>
        <time>2020-10-18T13:39:05Z</time>
      </trkpt>
      <trkpt lat="44.12228" lon="6.99252">
        <ele>1658.0109</ele>
        <time>2020-10-18T13:39:11Z</time>
      </trkpt>
      <trkpt lat="44.1222" lon="6.99246">
        <ele>1656.8111933333</ele>
        <time>2020-10-18T13:39:20Z</time>
      </trkpt>
      <trkpt lat="44.12212" lon="6.99249">
        <ele>1653.9115333333</ele>
        <time>2020-10-18T13:39:32Z</time>
      </trkpt>
      <trkpt lat="44.12205" lon="6.99254">
        <ele>1650.4118066667</ele>
        <time>2020-10-18T13:39:42Z</time>
      </trkpt>
      <trkpt lat="44.12198" lon="6.99246">
        <ele>1640.6120733333</ele>
        <time>2020-10-18T13:39:58Z</time>
      </trkpt>
      <trkpt lat="44.12199" lon="6.99234">
        <ele>1636.2120266667</ele>
        <time>2020-10-18T13:40:04Z</time>
      </trkpt>
      <trkpt lat="44.12201" lon="6.99223">
        <ele>1633.1119733333</ele>
        <time>2020-10-18T13:40:11Z</time>
      </trkpt>
      <trkpt lat="44.12195" lon="6.99214">
        <ele>1630.21222</ele>
        <time>2020-10-18T13:40:18Z</time>
      </trkpt>
      <trkpt lat="44.12191" lon="6.99216">
        <ele>1630.1123466667</ele>
        <time>2020-10-18T13:40:58Z</time>
      </trkpt>
      <trkpt lat="44.12188" lon="6.99209">
        <ele>1630.31248</ele>
        <time>2020-10-18T13:41:06Z</time>
      </trkpt>
      <trkpt lat="44.12179" lon="6.99202">
        <ele>1629.81286</ele>
        <time>2020-10-18T13:41:11Z</time>
      </trkpt>
      <trkpt lat="44.1217" lon="6.99202">
        <ele>1629.7131933333</ele>
        <time>2020-10-18T13:41:18Z</time>
      </trkpt>
      <trkpt lat="44.12161" lon="6.99202">
        <ele>1630.01356</ele>
        <time>2020-10-18T13:41:22Z</time>
      </trkpt>
      <trkpt lat="44.12153" lon="6.99203">
        <ele>1630.0139</ele>
        <time>2020-10-18T13:41:30Z</time>
      </trkpt>
      <trkpt lat="44.12145" lon="6.99202">
        <ele>1630.1142133333</ele>
        <time>2020-10-18T13:41:35Z</time>
      </trkpt>
      <trkpt lat="44.12137" lon="6.99199">
        <ele>1629.8145133333</ele>
        <time>2020-10-18T13:41:41Z</time>
      </trkpt>
      <trkpt lat="44.12129" lon="6.99194">
        <ele>1629.0148466667</ele>
        <time>2020-10-18T13:41:47Z</time>
      </trkpt>
      <trkpt lat="44.12123" lon="6.99187">
        <ele>1628.3150733333</ele>
        <time>2020-10-18T13:41:52Z</time>
      </trkpt>
      <trkpt lat="44.12116" lon="6.99182">
        <ele>1628.6153666667</ele>
        <time>2020-10-18T13:41:58Z</time>
      </trkpt>
      <trkpt lat="44.12108" lon="6.99179">
        <ele>1629.4156933333</ele>
        <time>2020-10-18T13:42:05Z</time>
      </trkpt>
      <trkpt lat="44.121" lon="6.99174">
        <ele>1627.916</ele>
        <time>2020-10-18T13:42:11Z</time>
      </trkpt>
      <trkpt lat="44.12093" lon="6.99167">
        <ele>1626.2162866667</ele>
        <time>2020-10-18T13:42:18Z</time>
      </trkpt>
      <trkpt lat="44.12085" lon="6.99165">
        <ele>1622.8166133333</ele>
        <time>2020-10-18T13:42:38Z</time>
      </trkpt>
      <trkpt lat="44.12077" lon="6.9916">
        <ele>1621.51692</ele>
        <time>2020-10-18T13:42:59Z</time>
      </trkpt>
      <trkpt lat="44.1207" lon="6.99155">
        <ele>1620.9172133333</ele>
        <time>2020-10-18T13:43:09Z</time>
      </trkpt>
      <trkpt lat="44.12061" lon="6.99152">
        <ele>1619.0175466667</ele>
        <time>2020-10-18T13:43:16Z</time>
      </trkpt>
      <trkpt lat="44.12055" lon="6.99147">
        <ele>1617.9178133333</ele>
        <time>2020-10-18T13:43:23Z</time>
      </trkpt>
      <trkpt lat="44.12047" lon="6.99141">
        <ele>1616.7181066667</ele>
        <time>2020-10-18T13:43:29Z</time>
      </trkpt>
      <trkpt lat="44.12042" lon="6.99132">
        <ele>1614.6183133333</ele>
        <time>2020-10-18T13:43:36Z</time>
      </trkpt>
      <trkpt lat="44.12046" lon="6.99121">
        <ele>1611.4181733333</ele>
        <time>2020-10-18T13:43:43Z</time>
      </trkpt>
      <trkpt lat="44.12038" lon="6.99118">
        <ele>1607.3184866667</ele>
        <time>2020-10-18T13:43:55Z</time>
      </trkpt>
      <trkpt lat="44.12031" lon="6.99125">
        <ele>1605.91878</ele>
        <time>2020-10-18T13:44:04Z</time>
      </trkpt>
      <trkpt lat="44.12025" lon="6.99132">
        <ele>1605.31902</ele>
        <time>2020-10-18T13:44:10Z</time>
      </trkpt>
      <trkpt lat="44.12017" lon="6.99138">
        <ele>1601.0193266667</ele>
        <time>2020-10-18T13:44:20Z</time>
      </trkpt>
      <trkpt lat="44.12009" lon="6.99143">
        <ele>1597.4196466667</ele>
        <time>2020-10-18T13:44:29Z</time>
      </trkpt>
      <trkpt lat="44.12001" lon="6.99148">
        <ele>1594.71996</ele>
        <time>2020-10-18T13:44:38Z</time>
      </trkpt>
      <trkpt lat="44.11995" lon="6.99156">
        <ele>1592.1201866667</ele>
        <time>2020-10-18T13:44:46Z</time>
      </trkpt>
      <trkpt lat="44.1199" lon="6.99146">
        <ele>1587.9203866667</ele>
        <time>2020-10-18T13:44:57Z</time>
      </trkpt>
      <trkpt lat="44.11982" lon="6.99148">
        <ele>1583.8207266667</ele>
        <time>2020-10-18T13:45:04Z</time>
      </trkpt>
      <trkpt lat="44.11974" lon="6.99151">
        <ele>1579.0210466667</ele>
        <time>2020-10-18T13:45:13Z</time>
      </trkpt>
      <trkpt lat="44.11966" lon="6.99148">
        <ele>1573.6213733333</ele>
        <time>2020-10-18T13:45:22Z</time>
      </trkpt>
      <trkpt lat="44.1196" lon="6.99156">
        <ele>1571.4216133333</ele>
        <time>2020-10-18T13:45:31Z</time>
      </trkpt>
      <trkpt lat="44.11952" lon="6.99161">
        <ele>1572.4219133333</ele>
        <time>2020-10-18T13:45:37Z</time>
      </trkpt>
      <trkpt lat="44.11945" lon="6.99166">
        <ele>1572.7222133333</ele>
        <time>2020-10-18T13:45:43Z</time>
      </trkpt>
      <trkpt lat="44.11937" lon="6.99171">
        <ele>1570.4225066667</ele>
        <time>2020-10-18T13:45:50Z</time>
      </trkpt>
      <trkpt lat="44.1193" lon="6.99176">
        <ele>1567.2228133333</ele>
        <time>2020-10-18T13:45:58Z</time>
      </trkpt>
      <trkpt lat="44.11924" lon="6.99185">
        <ele>1564.82306</ele>
        <time>2020-10-18T13:46:05Z</time>
      </trkpt>
      <trkpt lat="44.11915" lon="6.99188">
        <ele>1561.8233933333</ele>
        <time>2020-10-18T13:46:12Z</time>
      </trkpt>
      <trkpt lat="44.11908" lon="6.99193">
        <ele>1559.4236733333</ele>
        <time>2020-10-18T13:46:20Z</time>
      </trkpt>
      <trkpt lat="44.11901" lon="6.99199">
        <ele>1557.6239666667</ele>
        <time>2020-10-18T13:46:33Z</time>
      </trkpt>
      <trkpt lat="44.11893" lon="6.99197">
        <ele>1558.9242933333</ele>
        <time>2020-10-18T13:46:47Z</time>
      </trkpt>
      <trkpt lat="44.11884" lon="6.992">
        <ele>1558.92464</ele>
        <time>2020-10-18T13:47:02Z</time>
      </trkpt>
      <trkpt lat="44.11877" lon="6.99205">
        <ele>1556.7249333333</ele>
        <time>2020-10-18T13:47:22Z</time>
      </trkpt>
      <trkpt lat="44.11869" lon="6.99211">
        <ele>1554.52524</ele>
        <time>2020-10-18T13:47:29Z</time>
      </trkpt>
      <trkpt lat="44.11861" lon="6.99214">
        <ele>1551.82558</ele>
        <time>2020-10-18T13:47:36Z</time>
      </trkpt>
      <trkpt lat="44.11855" lon="6.99222">
        <ele>1550.6258133333</ele>
        <time>2020-10-18T13:47:43Z</time>
      </trkpt>
      <trkpt lat="44.11846" lon="6.99221">
        <ele>1551.1261533333</ele>
        <time>2020-10-18T13:48:16Z</time>
      </trkpt>
      <trkpt lat="44.11838" lon="6.99221">
        <ele>1552.92648</ele>
        <time>2020-10-18T14:07:17Z</time>
      </trkpt>
      <trkpt lat="44.11829" lon="6.99219">
        <ele>1555.9268266667</ele>
        <time>2020-10-18T14:07:26Z</time>
      </trkpt>
      <trkpt lat="44.11821" lon="6.99214">
        <ele>1556.2271466667</ele>
        <time>2020-10-18T14:07:33Z</time>
      </trkpt>
      <trkpt lat="44.11815" lon="6.99206">
        <ele>1555.9273866667</ele>
        <time>2020-10-18T14:07:41Z</time>
      </trkpt>
      <trkpt lat="44.11807" lon="6.99203">
        <ele>1554.6277333333</ele>
        <time>2020-10-18T14:07:48Z</time>
      </trkpt>
      <trkpt lat="44.11799" lon="6.99201">
        <ele>1552.42806</ele>
        <time>2020-10-18T14:07:54Z</time>
      </trkpt>
      <trkpt lat="44.1179" lon="6.99199">
        <ele>1550.2283933333</ele>
        <time>2020-10-18T14:08:00Z</time>
      </trkpt>
      <trkpt lat="44.11782" lon="6.99196">
        <ele>1549.6287266667</ele>
        <time>2020-10-18T14:08:06Z</time>
      </trkpt>
      <trkpt lat="44.11774" lon="6.99196">
        <ele>1547.8290266667</ele>
        <time>2020-10-18T14:08:11Z</time>
      </trkpt>
      <trkpt lat="44.11766" lon="6.99193">
        <ele>1545.32936</ele>
        <time>2020-10-18T14:08:18Z</time>
      </trkpt>
      <trkpt lat="44.11758" lon="6.99191">
        <ele>1543.7296733333</ele>
        <time>2020-10-18T14:08:23Z</time>
      </trkpt>
      <trkpt lat="44.1175" lon="6.99187">
        <ele>1541.0299933333</ele>
        <time>2020-10-18T14:08:30Z</time>
      </trkpt>
      <trkpt lat="44.11743" lon="6.99186">
        <ele>1539.1302933333</ele>
        <time>2020-10-18T14:08:35Z</time>
      </trkpt>
      <trkpt lat="44.11734" lon="6.99185">
        <ele>1537.9306266667</ele>
        <time>2020-10-18T14:08:40Z</time>
      </trkpt>
      <trkpt lat="44.11726" lon="6.99184">
        <ele>1536.5309533333</ele>
        <time>2020-10-18T14:08:45Z</time>
      </trkpt>
      <trkpt lat="44.11719" lon="6.99178">
        <ele>1534.3312266667</ele>
        <time>2020-10-18T14:08:52Z</time>
      </trkpt>
      <trkpt lat="44.11712" lon="6.99173">
        <ele>1532.6315333333</ele>
        <time>2020-10-18T14:08:57Z</time>
      </trkpt>
      <trkpt lat="44.11704" lon="6.99167">
        <ele>1530.8318333333</ele>
        <time>2020-10-18T14:09:02Z</time>
      </trkpt>
      <trkpt lat="44.11697" lon="6.9916">
        <ele>1528.33212</ele>
        <time>2020-10-18T14:09:07Z</time>
      </trkpt>
      <trkpt lat="44.1169" lon="6.99156">
        <ele>1527.9324</ele>
        <time>2020-10-18T14:09:11Z</time>
      </trkpt>
      <trkpt lat="44.11683" lon="6.99153">
        <ele>1527.3327</ele>
        <time>2020-10-18T14:09:16Z</time>
      </trkpt>
      <trkpt lat="44.11675" lon="6.99149">
        <ele>1527.4330133333</ele>
        <time>2020-10-18T14:09:22Z</time>
      </trkpt>
      <trkpt lat="44.11668" lon="6.99143">
        <ele>1525.2333</ele>
        <time>2020-10-18T14:09:27Z</time>
      </trkpt>
      <trkpt lat="44.11661" lon="6.99137">
        <ele>1524.3335733333</ele>
        <time>2020-10-18T14:09:33Z</time>
      </trkpt>
      <trkpt lat="44.11653" lon="6.99131">
        <ele>1522.73388</ele>
        <time>2020-10-18T14:09:39Z</time>
      </trkpt>
      <trkpt lat="44.11646" lon="6.99126">
        <ele>1521.23418</ele>
        <time>2020-10-18T14:09:45Z</time>
      </trkpt>
      <trkpt lat="44.11638" lon="6.9912">
        <ele>1519.9344933333</ele>
        <time>2020-10-18T14:09:51Z</time>
      </trkpt>
      <trkpt lat="44.11632" lon="6.99111">
        <ele>1518.0347133333</ele>
        <time>2020-10-18T14:09:56Z</time>
      </trkpt>
      <trkpt lat="44.11627" lon="6.99103">
        <ele>1515.93494</ele>
        <time>2020-10-18T14:10:01Z</time>
      </trkpt>
      <trkpt lat="44.11619" lon="6.99096">
        <ele>1515.0352466667</ele>
        <time>2020-10-18T14:10:06Z</time>
      </trkpt>
      <trkpt lat="44.11614" lon="6.99087">
        <ele>1512.13546</ele>
        <time>2020-10-18T14:10:12Z</time>
      </trkpt>
      <trkpt lat="44.11609" lon="6.99076">
        <ele>1509.23566</ele>
        <time>2020-10-18T14:10:17Z</time>
      </trkpt>
      <trkpt lat="44.11601" lon="6.99069">
        <ele>1506.7359466667</ele>
        <time>2020-10-18T14:10:22Z</time>
      </trkpt>
      <trkpt lat="44.11593" lon="6.99071">
        <ele>1503.0362666667</ele>
        <time>2020-10-18T14:10:28Z</time>
      </trkpt>
      <trkpt lat="44.11586" lon="6.99076">
        <ele>1500.33658</ele>
        <time>2020-10-18T14:10:36Z</time>
      </trkpt>
      <trkpt lat="44.11577" lon="6.99074">
        <ele>1498.9369333333</ele>
        <time>2020-10-18T14:10:43Z</time>
      </trkpt>
      <trkpt lat="44.1157" lon="6.99071">
        <ele>1497.5372133333</ele>
        <time>2020-10-18T14:10:47Z</time>
      </trkpt>
      <trkpt lat="44.11562" lon="6.99067">
        <ele>1497.2375066667</ele>
        <time>2020-10-18T14:10:52Z</time>
      </trkpt>
      <trkpt lat="44.11555" lon="6.99063">
        <ele>1496.8378</ele>
        <time>2020-10-18T14:10:57Z</time>
      </trkpt>
      <trkpt lat="44.11548" lon="6.99058">
        <ele>1496.6380666667</ele>
        <time>2020-10-18T14:11:02Z</time>
      </trkpt>
      <trkpt lat="44.11542" lon="6.99051">
        <ele>1496.7383266667</ele>
        <time>2020-10-18T14:11:07Z</time>
      </trkpt>
      <trkpt lat="44.11534" lon="6.99044">
        <ele>1497.6386466667</ele>
        <time>2020-10-18T14:11:12Z</time>
      </trkpt>
      <trkpt lat="44.11528" lon="6.99035">
        <ele>1497.3388933333</ele>
        <time>2020-10-18T14:11:17Z</time>
      </trkpt>
      <trkpt lat="44.11521" lon="6.99028">
        <ele>1496.4391733333</ele>
        <time>2020-10-18T14:11:22Z</time>
      </trkpt>
      <trkpt lat="44.11517" lon="6.99019">
        <ele>1495.43934</ele>
        <time>2020-10-18T14:11:27Z</time>
      </trkpt>
      <trkpt lat="44.1151" lon="6.99012">
        <ele>1495.2395866667</ele>
        <time>2020-10-18T14:11:32Z</time>
      </trkpt>
      <trkpt lat="44.11506" lon="6.99002">
        <ele>1494.7397733333</ele>
        <time>2020-10-18T14:11:38Z</time>
      </trkpt>
      <trkpt lat="44.11499" lon="6.98995">
        <ele>1494.94006</ele>
        <time>2020-10-18T14:11:44Z</time>
      </trkpt>
      <trkpt lat="44.11494" lon="6.98985">
        <ele>1494.54026</ele>
        <time>2020-10-18T14:11:49Z</time>
      </trkpt>
      <trkpt lat="44.11487" lon="6.98981">
        <ele>1493.5405333333</ele>
        <time>2020-10-18T14:11:54Z</time>
      </trkpt>
      <trkpt lat="44.11481" lon="6.98973">
        <ele>1493.24078</ele>
        <time>2020-10-18T14:11:59Z</time>
      </trkpt>
      <trkpt lat="44.11476" lon="6.98963">
        <ele>1491.9409733333</ele>
        <time>2020-10-18T14:12:04Z</time>
      </trkpt>
      <trkpt lat="44.1147" lon="6.98955">
        <ele>1491.0412</ele>
        <time>2020-10-18T14:12:09Z</time>
      </trkpt>
      <trkpt lat="44.11463" lon="6.98948">
        <ele>1489.9414733333</ele>
        <time>2020-10-18T14:12:15Z</time>
      </trkpt>
      <trkpt lat="44.11457" lon="6.9894">
        <ele>1491.3417133333</ele>
        <time>2020-10-18T14:12:21Z</time>
      </trkpt>
      <trkpt lat="44.11451" lon="6.98931">
        <ele>1490.7419466667</ele>
        <time>2020-10-18T14:12:27Z</time>
      </trkpt>
      <trkpt lat="44.11444" lon="6.98924">
        <ele>1490.3422466667</ele>
        <time>2020-10-18T14:12:32Z</time>
      </trkpt>
      <trkpt lat="44.11437" lon="6.9892">
        <ele>1489.5425133333</ele>
        <time>2020-10-18T14:12:37Z</time>
      </trkpt>
      <trkpt lat="44.11429" lon="6.98916">
        <ele>1488.34284</ele>
        <time>2020-10-18T14:12:43Z</time>
      </trkpt>
      <trkpt lat="44.11423" lon="6.98907">
        <ele>1488.3430733333</ele>
        <time>2020-10-18T14:12:48Z</time>
      </trkpt>
      <trkpt lat="44.11415" lon="6.98904">
        <ele>1489.7434133333</ele>
        <time>2020-10-18T14:12:55Z</time>
      </trkpt>
      <trkpt lat="44.11408" lon="6.98899">
        <ele>1490.3436933333</ele>
        <time>2020-10-18T14:13:00Z</time>
      </trkpt>
      <trkpt lat="44.11401" lon="6.98895">
        <ele>1489.0439666667</ele>
        <time>2020-10-18T14:13:05Z</time>
      </trkpt>
      <trkpt lat="44.11394" lon="6.9889">
        <ele>1487.84426</ele>
        <time>2020-10-18T14:13:10Z</time>
      </trkpt>
      <trkpt lat="44.11386" lon="6.98883">
        <ele>1486.0445466667</ele>
        <time>2020-10-18T14:13:16Z</time>
      </trkpt>
      <trkpt lat="44.1138" lon="6.98877">
        <ele>1484.8448133333</ele>
        <time>2020-10-18T14:13:21Z</time>
      </trkpt>
      <trkpt lat="44.11372" lon="6.98871">
        <ele>1483.2451066667</ele>
        <time>2020-10-18T14:13:26Z</time>
      </trkpt>
      <trkpt lat="44.11366" lon="6.98865">
        <ele>1480.84536</ele>
        <time>2020-10-18T14:13:32Z</time>
      </trkpt>
      <trkpt lat="44.11358" lon="6.9886">
        <ele>1480.0456733333</ele>
        <time>2020-10-18T14:13:37Z</time>
      </trkpt>
      <trkpt lat="44.11353" lon="6.98851">
        <ele>1479.5458666667</ele>
        <time>2020-10-18T14:13:42Z</time>
      </trkpt>
      <trkpt lat="44.11346" lon="6.98842">
        <ele>1479.44616</ele>
        <time>2020-10-18T14:13:47Z</time>
      </trkpt>
      <trkpt lat="44.11338" lon="6.98839">
        <ele>1480.3465</ele>
        <time>2020-10-18T14:13:52Z</time>
      </trkpt>
      <trkpt lat="44.11329" lon="6.98835">
        <ele>1481.9468266667</ele>
        <time>2020-10-18T14:13:58Z</time>
      </trkpt>
      <trkpt lat="44.11323" lon="6.98826">
        <ele>1482.7470666667</ele>
        <time>2020-10-18T14:14:04Z</time>
      </trkpt>
      <trkpt lat="44.11317" lon="6.9882">
        <ele>1482.1473133333</ele>
        <time>2020-10-18T14:14:09Z</time>
      </trkpt>
      <trkpt lat="44.1131" lon="6.98814">
        <ele>1480.9476</ele>
        <time>2020-10-18T14:14:14Z</time>
      </trkpt>
      <trkpt lat="44.11303" lon="6.98807">
        <ele>1480.0479</ele>
        <time>2020-10-18T14:14:20Z</time>
      </trkpt>
      <trkpt lat="44.11295" lon="6.98801">
        <ele>1479.5481866667</ele>
        <time>2020-10-18T14:14:26Z</time>
      </trkpt>
      <trkpt lat="44.11288" lon="6.98796">
        <ele>1481.0484933333</ele>
        <time>2020-10-18T14:14:32Z</time>
      </trkpt>
      <trkpt lat="44.11281" lon="6.98791">
        <ele>1481.14878</ele>
        <time>2020-10-18T14:14:38Z</time>
      </trkpt>
      <trkpt lat="44.11273" lon="6.98784">
        <ele>1480.34908</ele>
        <time>2020-10-18T14:14:44Z</time>
      </trkpt>
      <trkpt lat="44.11265" lon="6.98781">
        <ele>1479.4493933333</ele>
        <time>2020-10-18T14:14:49Z</time>
      </trkpt>
      <trkpt lat="44.11258" lon="6.98777">
        <ele>1478.3496666667</ele>
        <time>2020-10-18T14:14:54Z</time>
      </trkpt>
      <trkpt lat="44.11252" lon="6.98769">
        <ele>1477.9499333333</ele>
        <time>2020-10-18T14:15:01Z</time>
      </trkpt>
      <trkpt lat="44.11244" lon="6.98766">
        <ele>1477.5502266667</ele>
        <time>2020-10-18T14:15:07Z</time>
      </trkpt>
      <trkpt lat="44.11237" lon="6.98765">
        <ele>1477.05054</ele>
        <time>2020-10-18T14:15:12Z</time>
      </trkpt>
      <trkpt lat="44.1123" lon="6.9877">
        <ele>1475.75082</ele>
        <time>2020-10-18T14:15:17Z</time>
      </trkpt>
      <trkpt lat="44.11221" lon="6.98774">
        <ele>1474.9511666667</ele>
        <time>2020-10-18T14:15:23Z</time>
      </trkpt>
      <trkpt lat="44.11213" lon="6.98778">
        <ele>1472.1514933333</ele>
        <time>2020-10-18T14:15:31Z</time>
      </trkpt>
      <trkpt lat="44.11207" lon="6.98784">
        <ele>1469.4517333333</ele>
        <time>2020-10-18T14:15:36Z</time>
      </trkpt>
      <trkpt lat="44.112" lon="6.98791">
        <ele>1467.25202</ele>
        <time>2020-10-18T14:15:42Z</time>
      </trkpt>
      <trkpt lat="44.11196" lon="6.98801">
        <ele>1464.0521733333</ele>
        <time>2020-10-18T14:15:48Z</time>
      </trkpt>
      <trkpt lat="44.11188" lon="6.98807">
        <ele>1461.85248</ele>
        <time>2020-10-18T14:15:54Z</time>
      </trkpt>
      <trkpt lat="44.11181" lon="6.98815">
        <ele>1458.8527533333</ele>
        <time>2020-10-18T14:16:00Z</time>
      </trkpt>
      <trkpt lat="44.11174" lon="6.98819">
        <ele>1456.8530466667</ele>
        <time>2020-10-18T14:16:05Z</time>
      </trkpt>
      <trkpt lat="44.11168" lon="6.98828">
        <ele>1455.3533</ele>
        <time>2020-10-18T14:16:11Z</time>
      </trkpt>
      <trkpt lat="44.11162" lon="6.98836">
        <ele>1452.55352</ele>
        <time>2020-10-18T14:16:18Z</time>
      </trkpt>
      <trkpt lat="44.11156" lon="6.98842">
        <ele>1450.35378</ele>
        <time>2020-10-18T14:16:23Z</time>
      </trkpt>
      <trkpt lat="44.11147" lon="6.98846">
        <ele>1448.6541133333</ele>
        <time>2020-10-18T14:16:29Z</time>
      </trkpt>
      <trkpt lat="44.11139" lon="6.98847">
        <ele>1447.55446</ele>
        <time>2020-10-18T14:16:35Z</time>
      </trkpt>
      <trkpt lat="44.11134" lon="6.98856">
        <ele>1446.3546466667</ele>
        <time>2020-10-18T14:16:42Z</time>
      </trkpt>
      <trkpt lat="44.11127" lon="6.98862">
        <ele>1445.0549333333</ele>
        <time>2020-10-18T14:16:49Z</time>
      </trkpt>
      <trkpt lat="44.1112" lon="6.9887">
        <ele>1442.8551866667</ele>
        <time>2020-10-18T14:16:56Z</time>
      </trkpt>
      <trkpt lat="44.11114" lon="6.98869">
        <ele>1441.15546</ele>
        <time>2020-10-18T14:17:03Z</time>
      </trkpt>
      <trkpt lat="44.11106" lon="6.9887">
        <ele>1442.35576</ele>
        <time>2020-10-18T14:17:07Z</time>
      </trkpt>
      <trkpt lat="44.11098" lon="6.98872">
        <ele>1443.2560733333</ele>
        <time>2020-10-18T14:17:12Z</time>
      </trkpt>
      <trkpt lat="44.11091" lon="6.98877">
        <ele>1443.35638</ele>
        <time>2020-10-18T14:17:17Z</time>
      </trkpt>
      <trkpt lat="44.11082" lon="6.9888">
        <ele>1443.25672</ele>
        <time>2020-10-18T14:17:24Z</time>
      </trkpt>
      <trkpt lat="44.11075" lon="6.98882">
        <ele>1440.65702</ele>
        <time>2020-10-18T14:17:29Z</time>
      </trkpt>
      <trkpt lat="44.11066" lon="6.98883">
        <ele>1439.85736</ele>
        <time>2020-10-18T14:17:34Z</time>
      </trkpt>
      <trkpt lat="44.11058" lon="6.98883">
        <ele>1440.3576866667</ele>
        <time>2020-10-18T14:17:39Z</time>
      </trkpt>
      <trkpt lat="44.11051" lon="6.98876">
        <ele>1441.3579533333</ele>
        <time>2020-10-18T14:17:44Z</time>
      </trkpt>
      <trkpt lat="44.11044" lon="6.98869">
        <ele>1442.2582533333</ele>
        <time>2020-10-18T14:17:51Z</time>
      </trkpt>
      <trkpt lat="44.11038" lon="6.9886">
        <ele>1440.2584733333</ele>
        <time>2020-10-18T14:17:57Z</time>
      </trkpt>
      <trkpt lat="44.11031" lon="6.98854">
        <ele>1438.3587733333</ele>
        <time>2020-10-18T14:18:03Z</time>
      </trkpt>
      <trkpt lat="44.11024" lon="6.98848">
        <ele>1436.5590533333</ele>
        <time>2020-10-18T14:18:09Z</time>
      </trkpt>
      <trkpt lat="44.11016" lon="6.98844">
        <ele>1436.0593733333</ele>
        <time>2020-10-18T14:18:15Z</time>
      </trkpt>
      <trkpt lat="44.11007" lon="6.98845">
        <ele>1435.95972</ele>
        <time>2020-10-18T14:18:21Z</time>
      </trkpt>
      <trkpt lat="44.10999" lon="6.98847">
        <ele>1436.9600333333</ele>
        <time>2020-10-18T14:18:26Z</time>
      </trkpt>
      <trkpt lat="44.10991" lon="6.98845">
        <ele>1437.26036</ele>
        <time>2020-10-18T14:18:32Z</time>
      </trkpt>
      <trkpt lat="44.10982" lon="6.98845">
        <ele>1436.4607133333</ele>
        <time>2020-10-18T14:18:38Z</time>
      </trkpt>
      <trkpt lat="44.10975" lon="6.98842">
        <ele>1436.06102</ele>
        <time>2020-10-18T14:18:44Z</time>
      </trkpt>
      <trkpt lat="44.10966" lon="6.98841">
        <ele>1436.0613466667</ele>
        <time>2020-10-18T14:18:50Z</time>
      </trkpt>
      <trkpt lat="44.10958" lon="6.98843">
        <ele>1437.6617</ele>
        <time>2020-10-18T14:18:56Z</time>
      </trkpt>
      <trkpt lat="44.10949" lon="6.98843">
        <ele>1438.4620533333</ele>
        <time>2020-10-18T14:19:02Z</time>
      </trkpt>
      <trkpt lat="44.10941" lon="6.9884">
        <ele>1437.3623733333</ele>
        <time>2020-10-18T14:19:08Z</time>
      </trkpt>
      <trkpt lat="44.10933" lon="6.98836">
        <ele>1433.9627</ele>
        <time>2020-10-18T14:19:15Z</time>
      </trkpt>
      <trkpt lat="44.10926" lon="6.98834">
        <ele>1433.36298</ele>
        <time>2020-10-18T14:19:19Z</time>
      </trkpt>
      <trkpt lat="44.10918" lon="6.98831">
        <ele>1431.86328</ele>
        <time>2020-10-18T14:19:24Z</time>
      </trkpt>
      <trkpt lat="44.10911" lon="6.98826">
        <ele>1430.7635533333</ele>
        <time>2020-10-18T14:19:29Z</time>
      </trkpt>
      <trkpt lat="44.10906" lon="6.98816">
        <ele>1426.66376</ele>
        <time>2020-10-18T14:19:36Z</time>
      </trkpt>
      <trkpt lat="44.10899" lon="6.98814">
        <ele>1424.56406</ele>
        <time>2020-10-18T14:19:40Z</time>
      </trkpt>
      <trkpt lat="44.1089" lon="6.98813">
        <ele>1424.4644133333</ele>
        <time>2020-10-18T14:19:46Z</time>
      </trkpt>
      <trkpt lat="44.10882" lon="6.98807">
        <ele>1422.96472</ele>
        <time>2020-10-18T14:19:52Z</time>
      </trkpt>
      <trkpt lat="44.10874" lon="6.98803">
        <ele>1421.5650333333</ele>
        <time>2020-10-18T14:19:57Z</time>
      </trkpt>
      <trkpt lat="44.10866" lon="6.98803">
        <ele>1421.3653466667</ele>
        <time>2020-10-18T14:20:02Z</time>
      </trkpt>
      <trkpt lat="44.10859" lon="6.98799">
        <ele>1420.1656466667</ele>
        <time>2020-10-18T14:20:09Z</time>
      </trkpt>
      <trkpt lat="44.10852" lon="6.98794">
        <ele>1419.4659266667</ele>
        <time>2020-10-18T14:20:14Z</time>
      </trkpt>
      <trkpt lat="44.10844" lon="6.98789">
        <ele>1418.9662266667</ele>
        <time>2020-10-18T14:20:19Z</time>
      </trkpt>
      <trkpt lat="44.10838" lon="6.98784">
        <ele>1417.9664866667</ele>
        <time>2020-10-18T14:20:23Z</time>
      </trkpt>
      <trkpt lat="44.10829" lon="6.98781">
        <ele>1418.1668533333</ele>
        <time>2020-10-18T14:20:28Z</time>
      </trkpt>
      <trkpt lat="44.10823" lon="6.98773">
        <ele>1418.2671</ele>
        <time>2020-10-18T14:20:33Z</time>
      </trkpt>
      <trkpt lat="44.10815" lon="6.9877">
        <ele>1417.5673866667</ele>
        <time>2020-10-18T14:20:38Z</time>
      </trkpt>
      <trkpt lat="44.10808" lon="6.98768">
        <ele>1415.86768</ele>
        <time>2020-10-18T14:20:43Z</time>
      </trkpt>
      <trkpt lat="44.108" lon="6.98767">
        <ele>1414.5680133333</ele>
        <time>2020-10-18T14:20:47Z</time>
      </trkpt>
      <trkpt lat="44.10791" lon="6.98767">
        <ele>1413.46836</ele>
        <time>2020-10-18T14:20:52Z</time>
      </trkpt>
      <trkpt lat="44.10783" lon="6.98763">
        <ele>1412.5686933333</ele>
        <time>2020-10-18T14:20:58Z</time>
      </trkpt>
      <trkpt lat="44.10775" lon="6.98758">
        <ele>1410.969</ele>
        <time>2020-10-18T14:21:05Z</time>
      </trkpt>
      <trkpt lat="44.10767" lon="6.98754">
        <ele>1410.0693066667</ele>
        <time>2020-10-18T14:21:11Z</time>
      </trkpt>
      <trkpt lat="44.10759" lon="6.9875">
        <ele>1408.3696333333</ele>
        <time>2020-10-18T14:21:17Z</time>
      </trkpt>
      <trkpt lat="44.10751" lon="6.9875">
        <ele>1408.0699533333</ele>
        <time>2020-10-18T14:21:22Z</time>
      </trkpt>
      <trkpt lat="44.10744" lon="6.98747">
        <ele>1408.8702466667</ele>
        <time>2020-10-18T14:21:27Z</time>
      </trkpt>
      <trkpt lat="44.10737" lon="6.98745">
        <ele>1409.27054</ele>
        <time>2020-10-18T14:21:31Z</time>
      </trkpt>
      <trkpt lat="44.10728" lon="6.98743">
        <ele>1411.0708933333</ele>
        <time>2020-10-18T14:21:37Z</time>
      </trkpt>
      <trkpt lat="44.10719" lon="6.98742">
        <ele>1411.67124</ele>
        <time>2020-10-18T14:21:44Z</time>
      </trkpt>
      <trkpt lat="44.10711" lon="6.98736">
        <ele>1411.2715466667</ele>
        <time>2020-10-18T14:21:50Z</time>
      </trkpt>
      <trkpt lat="44.10703" lon="6.98736">
        <ele>1410.6718933333</ele>
        <time>2020-10-18T14:21:56Z</time>
      </trkpt>
      <trkpt lat="44.10695" lon="6.98735">
        <ele>1410.0722133333</ele>
        <time>2020-10-18T14:22:02Z</time>
      </trkpt>
      <trkpt lat="44.10687" lon="6.98731">
        <ele>1407.3725066667</ele>
        <time>2020-10-18T14:22:08Z</time>
      </trkpt>
      <trkpt lat="44.10679" lon="6.9873">
        <ele>1406.07284</ele>
        <time>2020-10-18T14:22:14Z</time>
      </trkpt>
      <trkpt lat="44.10671" lon="6.98728">
        <ele>1404.8731533333</ele>
        <time>2020-10-18T14:22:19Z</time>
      </trkpt>
      <trkpt lat="44.10662" lon="6.98726">
        <ele>1403.8735066667</ele>
        <time>2020-10-18T14:22:34Z</time>
      </trkpt>
      <trkpt lat="44.10654" lon="6.98727">
        <ele>1404.0738533333</ele>
        <time>2020-10-18T14:22:40Z</time>
      </trkpt>
      <trkpt lat="44.10646" lon="6.98728">
        <ele>1404.37418</ele>
        <time>2020-10-18T14:22:46Z</time>
      </trkpt>
      <trkpt lat="44.10637" lon="6.98731">
        <ele>1405.77452</ele>
        <time>2020-10-18T14:22:52Z</time>
      </trkpt>
      <trkpt lat="44.10629" lon="6.98731">
        <ele>1404.97486</ele>
        <time>2020-10-18T14:22:58Z</time>
      </trkpt>
      <trkpt lat="44.1062" lon="6.98732">
        <ele>1403.2752133333</ele>
        <time>2020-10-18T14:23:05Z</time>
      </trkpt>
      <trkpt lat="44.10612" lon="6.98731">
        <ele>1402.9755066667</ele>
        <time>2020-10-18T14:23:10Z</time>
      </trkpt>
      <trkpt lat="44.10604" lon="6.98728">
        <ele>1402.87584</ele>
        <time>2020-10-18T14:23:15Z</time>
      </trkpt>
      <trkpt lat="44.10596" lon="6.98725">
        <ele>1402.77616</ele>
        <time>2020-10-18T14:23:20Z</time>
      </trkpt>
      <trkpt lat="44.10588" lon="6.98725">
        <ele>1402.87648</ele>
        <time>2020-10-18T14:23:26Z</time>
      </trkpt>
      <trkpt lat="44.1058" lon="6.98724">
        <ele>1401.7768133333</ele>
        <time>2020-10-18T14:23:32Z</time>
      </trkpt>
      <trkpt lat="44.10572" lon="6.9872">
        <ele>1401.0771133333</ele>
        <time>2020-10-18T14:23:37Z</time>
      </trkpt>
      <trkpt lat="44.10563" lon="6.98718">
        <ele>1399.3774666667</ele>
        <time>2020-10-18T14:23:44Z</time>
      </trkpt>
      <trkpt lat="44.10555" lon="6.98714">
        <ele>1398.0777933333</ele>
        <time>2020-10-18T14:23:50Z</time>
      </trkpt>
      <trkpt lat="44.10547" lon="6.98711">
        <ele>1398.5781266667</ele>
        <time>2020-10-18T14:23:56Z</time>
      </trkpt>
      <trkpt lat="44.10539" lon="6.98706">
        <ele>1396.5784466667</ele>
        <time>2020-10-18T14:24:03Z</time>
      </trkpt>
      <trkpt lat="44.10531" lon="6.98704">
        <ele>1395.4787533333</ele>
        <time>2020-10-18T14:24:09Z</time>
      </trkpt>
      <trkpt lat="44.10523" lon="6.98703">
        <ele>1395.4790733333</ele>
        <time>2020-10-18T14:24:14Z</time>
      </trkpt>
      <trkpt lat="44.10515" lon="6.98701">
        <ele>1396.0794066667</ele>
        <time>2020-10-18T14:24:20Z</time>
      </trkpt>
      <trkpt lat="44.10507" lon="6.98698">
        <ele>1396.4797266667</ele>
        <time>2020-10-18T14:24:27Z</time>
      </trkpt>
      <trkpt lat="44.105" lon="6.98692">
        <ele>1395.4800066667</ele>
        <time>2020-10-18T14:24:37Z</time>
      </trkpt>
      <trkpt lat="44.10492" lon="6.9869">
        <ele>1393.3803333333</ele>
        <time>2020-10-18T14:24:47Z</time>
      </trkpt>
      <trkpt lat="44.10483" lon="6.98687">
        <ele>1392.7806666667</ele>
        <time>2020-10-18T14:24:54Z</time>
      </trkpt>
      <trkpt lat="44.10481" lon="6.98685">
        <ele>1392.2807466667</ele>
        <time>2020-10-18T14:31:41Z</time>
      </trkpt>
      <trkpt lat="44.10481" lon="6.98685">
        <ele>1392.2807466667</ele>
        <time>2020-10-18T14:31:42Z</time>
      </trkpt>
    </trkseg>
  </trk>
</gpx>